[[{"header":{"parameterUnit":"m.s-1","parameterCategory":1,"la1":30.6,"la2":29.2853,"lo1":-89.7004,"lo2":-87.6739,"dy":0.0162,"dx":0.0183,"nx":112,"ny":82,"refTime":"2023-10-17T12:00:00:Z","depth":0,"parameterNumber":2,"parameterNumberName":"U-component_of_WINDS"},"data":[0.0,0.0,0.0,0.0,0.0,0.0,0.0,0.0,0.0,0.0,0.0,0.0,0.0,0.0,0.0,0.0,0.0,0.0,0.0,0.0,0.0,0.0,0.0,0.0,0.0,0.0,0.0,0.0,0.0,0.0,0.0,0.0,0.0,0.0,0.0,0.0,0.0,0.0,0.0,0.0,0.0,0.0,0.0,0.0,0.0,0.0,0.0,0.0,0.0,0.0,0.0,0.0,0.0,0.0,0.0,0.0,0.0,0.0,0.0,0.0,0.0,0.0,0.0,0.0,0.0,0.0,0.0,0.0,0.0,0.0,0.0,0.0,0.0,0.0,0.0,0.0,0.0,0.0,0.0,0.0,0.0,0.0,0.0,0.0,0.0,0.0,0.0,0.0,0.0,0.0,-2.0313,-2.5409,-3.2651,-3.6526,-3.4713,-3.4601,-3.1275,-2.3599,0.0,0.0,0.0,0.0,0.0,0.0,0.0,0.0,0.0,0.0,0.0,0.0,0.0,0.0,0.0,0.0,0.0,0.0,0.0,0.0,0.0,0.0,0.0,0.0,0.0,0.0,0.0,0.0,0.0,0.0,0.0,0.0,0.0,0.0,0.0,0.0,0.0,0.0,0.0,0.0,0.0,0.0,0.0,0.0,0.0,0.0,0.0,0.0,0.0,0.0,0.0,0.0,0.0,0.0,0.0,0.0,0.0,0.0,0.0,0.0,0.0,0.0,0.0,0.0,0.0,0.0,0.0,0.0,0.0,0.0,0.0,0.0,0.0,0.0,0.0,0.0,0.0,0.0,0.0,0.0,0.0,0.0,0.0,0.0,0.0,0.0,0.0,0.0,0.0,0.0,0.0,0.0,0.0,0.0,0.0,0.0,0.0,0.0,0.0,0.0,0.0,0.0,0.0,0.0,-2.0809,-2.9129,-3.365,-3.5459,-3.3917,-3.1322,-2.7942,-2.3482,0.0,0.0,0.0,0.0,0.0,0.0,0.0,0.0,0.0,0.0,0.0,0.0,0.0,0.0,0.0,0.0,0.0,0.0,0.0,0.0,0.0,0.0,0.0,0.0,0.0,0.0,0.0,0.0,0.0,0.0,0.0,0.0,0.0,0.0,0.0,0.0,0.0,0.0,0.0,0.0,0.0,0.0,0.0,0.0,0.0,0.0,0.0,0.0,0.0,0.0,0.0,0.0,0.0,0.0,0.0,0.0,0.0,0.0,0.0,0.0,0.0,0.0,0.0,0.0,0.0,0.0,0.0,0.0,0.0,0.0,0.0,0.0,0.0,0.0,0.0,0.0,0.0,0.0,0.0,0.0,0.0,0.0,0.0,0.0,0.0,0.0,0.0,0.0,0.0,0.0,0.0,0.0,0.0,0.0,0.0,0.0,0.0,0.0,0.0,0.0,0.0,0.0,0.0,-1.987,-2.3985,-3.0024,-3.2718,-3.3726,-3.3008,-3.1063,-2.7936,-2.3514,-2.1608,0.0,0.0,0.0,0.0,0.0,0.0,0.0,0.0,0.0,0.0,0.0,0.0,0.0,0.0,0.0,0.0,0.0,0.0,0.0,0.0,0.0,0.0,0.0,0.0,0.0,0.0,0.0,0.0,0.0,0.0,0.0,0.0,0.0,0.0,0.0,0.0,0.0,0.0,0.0,0.0,0.0,0.0,0.0,0.0,0.0,0.0,0.0,0.0,0.0,0.0,0.0,0.0,0.0,0.0,0.0,0.0,0.0,0.0,0.0,0.0,0.0,0.0,0.0,0.0,0.0,0.0,0.0,0.0,0.0,0.0,0.0,0.0,0.0,0.0,0.0,0.0,0.0,0.0,0.0,0.0,0.0,0.0,0.0,0.0,0.0,0.0,0.0,0.0,0.0,0.0,0.0,0.0,0.0,0.0,0.0,0.0,0.0,0.0,0.0,0.0,0.0,0.0,-2.3698,-2.6571,-3.0056,-3.155,-3.2322,-3.2232,-3.0853,-2.7968,-2.3143,-2.0585,0.0,0.0,0.0,0.0,0.0,0.0,0.0,0.0,0.0,0.0,0.0,0.0,0.0,0.0,0.0,0.0,0.0,0.0,0.0,0.0,0.0,0.0,0.0,0.0,0.0,0.0,0.0,0.0,0.0,0.0,0.0,0.0,0.0,0.0,0.0,0.0,0.0,0.0,0.0,0.0,0.0,0.0,0.0,0.0,0.0,0.0,0.0,0.0,0.0,0.0,0.0,0.0,0.0,0.0,0.0,0.0,0.0,0.0,0.0,0.0,0.0,0.0,0.0,0.0,0.0,0.0,0.0,0.0,0.0,0.0,0.0,0.0,0.0,0.0,0.0,0.0,0.0,0.0,0.0,0.0,0.0,0.0,0.0,0.0,0.0,0.0,0.0,0.0,0.0,0.0,0.0,0.0,0.0,0.0,0.0,0.0,0.0,0.0,0.0,0.0,0.0,0.0,-2.2709,-2.643,-2.9663,-3.1144,-3.173,-3.1532,-2.9081,-2.5944,-2.2149,-1.8916,0.0,0.0,0.0,0.0,0.0,0.0,0.0,0.0,0.0,0.0,0.0,0.0,0.0,0.0,0.0,0.0,0.0,0.0,0.0,0.0,0.0,0.0,0.0,0.0,0.0,0.0,0.0,0.0,0.0,0.0,0.0,0.0,0.0,0.0,0.0,0.0,0.0,0.0,0.0,0.0,0.0,0.0,0.0,0.0,0.0,0.0,0.0,0.0,0.0,0.0,0.0,0.0,0.0,0.0,0.0,0.0,0.0,0.0,0.0,0.0,0.0,0.0,0.0,0.0,0.0,0.0,0.0,0.0,0.0,0.0,0.0,0.0,0.0,0.0,0.0,0.0,0.0,0.0,0.0,0.0,0.0,0.0,0.0,0.0,0.0,0.0,0.0,0.0,0.0,0.0,0.0,0.0,0.0,0.0,0.0,0.0,0.0,0.0,0.0,0.0,0.0,0.0,-2.2704,-2.5909,-2.8794,-2.9808,-3.0307,-3.0491,-2.8603,-2.5778,-2.1948,0.0,0.0,0.0,0.0,0.0,0.0,0.0,0.0,0.0,0.0,0.0,0.0,0.0,0.0,0.0,0.0,0.0,0.0,0.0,0.0,0.0,0.0,0.0,0.0,0.0,0.0,0.0,0.0,0.0,0.0,0.0,0.0,0.0,0.0,0.0,0.0,0.0,0.0,0.0,0.0,0.0,0.0,0.0,0.0,0.0,0.0,0.0,0.0,0.0,0.0,0.0,0.0,0.0,0.0,0.0,0.0,0.0,0.0,0.0,0.0,0.0,0.0,0.0,0.0,0.0,0.0,0.0,0.0,0.0,0.0,0.0,0.0,0.0,0.0,0.0,0.0,0.0,0.0,0.0,0.0,0.0,0.0,0.0,0.0,0.0,0.0,0.0,0.0,0.0,0.0,0.0,0.0,0.0,0.0,0.0,0.0,0.0,0.0,0.0,0.0,0.0,0.0,-1.9975,-2.2873,-2.5689,-2.8131,-2.8938,-2.9373,-2.9663,-2.7931,-2.5284,-2.1515,0.0,0.0,0.0,0.0,0.0,0.0,0.0,0.0,0.0,0.0,0.0,0.0,0.0,0.0,0.0,0.0,0.0,0.0,0.0,0.0,0.0,0.0,0.0,0.0,0.0,0.0,0.0,0.0,0.0,0.0,0.0,0.0,0.0,0.0,0.0,0.0,0.0,0.0,0.0,0.0,0.0,0.0,0.0,0.0,0.0,0.0,0.0,0.0,0.0,0.0,0.0,0.0,0.0,0.0,0.0,0.0,0.0,0.0,0.0,0.0,0.0,0.0,0.0,0.0,0.0,0.0,0.0,0.0,0.0,0.0,0.0,0.0,0.0,0.0,0.0,0.0,0.0,0.0,0.0,0.0,0.0,0.0,0.0,0.0,0.0,0.0,0.0,0.0,0.0,0.0,0.0,0.0,0.0,0.0,0.0,0.0,0.0,0.0,0.0,0.0,0.0,0.0,-1.9808,-2.3036,-2.5916,-2.7717,-2.8731,-2.9206,-2.8969,-2.663,-2.3846,0.0,0.0,0.0,0.0,0.0,0.0,0.0,0.0,0.0,0.0,0.0,0.0,0.0,0.0,0.0,0.0,0.0,0.0,0.0,0.0,0.0,0.0,0.0,0.0,0.0,0.0,0.0,0.0,0.0,0.0,0.0,0.0,0.0,0.0,0.0,0.0,0.0,0.0,0.0,0.0,0.0,0.0,0.0,0.0,0.0,0.0,0.0,0.0,0.0,0.0,0.0,0.0,0.0,0.0,0.0,0.0,0.0,0.0,0.0,0.0,0.0,0.0,0.0,0.0,0.0,0.0,0.0,0.0,0.0,0.0,0.0,0.0,0.0,0.0,0.0,0.0,0.0,0.0,0.0,0.0,0.0,0.0,0.0,0.0,0.0,0.0,0.0,0.0,0.0,0.0,0.0,0.0,0.0,0.0,0.0,0.0,0.0,0.0,0.0,0.0,0.0,0.0,0.0,-2.0058,-2.2604,-2.5088,-2.722,-2.7407,-2.7544,-2.7752,-2.6055,-2.3597,-2.0545,0.0,0.0,0.0,0.0,0.0,0.0,0.0,0.0,0.0,0.0,0.0,0.0,0.0,0.0,0.0,0.0,0.0,0.0,0.0,0.0,0.0,0.0,0.0,0.0,0.0,0.0,0.0,0.0,0.0,0.0,0.0,0.0,0.0,0.0,0.0,0.0,0.0,0.0,0.0,0.0,0.0,0.0,0.0,0.0,0.0,0.0,0.0,0.0,0.0,0.0,0.0,0.0,0.0,0.0,0.0,0.0,0.0,0.0,0.0,0.0,0.0,0.0,0.0,0.0,0.0,0.0,0.0,0.0,0.0,0.0,0.0,0.0,0.0,0.0,0.0,0.0,0.0,0.0,0.0,0.0,0.0,0.0,0.0,0.0,0.0,0.0,0.0,0.0,0.0,0.0,0.0,0.0,0.0,0.0,0.0,0.0,0.0,0.0,0.0,0.0,0.0,0.0,-2.0156,-2.2658,-2.4885,-2.6517,-2.6786,-2.6983,-2.7181,-2.5659,-2.3597,-2.1135,0.0,0.0,0.0,0.0,0.0,0.0,0.0,0.0,0.0,0.0,0.0,0.0,0.0,0.0,0.0,0.0,0.0,0.0,0.0,0.0,0.0,0.0,0.0,0.0,0.0,0.0,0.0,0.0,0.0,0.0,0.0,0.0,0.0,0.0,0.0,0.0,0.0,0.0,0.0,0.0,0.0,0.0,0.0,0.0,0.0,0.0,0.0,0.0,0.0,0.0,0.0,0.0,0.0,0.0,0.0,0.0,0.0,0.0,0.0,0.0,0.0,0.0,0.0,0.0,0.0,0.0,0.0,0.0,0.0,0.0,0.0,0.0,0.0,0.0,0.0,0.0,0.0,0.0,0.0,0.0,0.0,0.0,0.0,0.0,0.0,0.0,0.0,0.0,0.0,0.0,0.0,0.0,0.0,0.0,0.0,0.0,0.0,0.0,0.0,0.0,0.0,0.0,-2.0139,-2.2835,-2.5037,-2.5861,-2.6713,-2.716,-2.6991,-2.5513,-2.3867,-2.2213,0.0,0.0,0.0,0.0,0.0,0.0,0.0,0.0,0.0,0.0,0.0,0.0,0.0,0.0,0.0,0.0,0.0,0.0,0.0,0.0,0.0,0.0,0.0,0.0,0.0,0.0,0.0,0.0,0.0,0.0,0.0,0.0,0.0,0.0,0.0,0.0,0.0,0.0,0.0,0.0,0.0,0.0,0.0,0.0,0.0,0.0,0.0,0.0,0.0,0.0,0.0,0.0,0.0,0.0,0.0,0.0,0.0,0.0,0.0,0.0,-2.3565,-2.2832,0.0,0.0,0.0,0.0,0.0,0.0,0.0,0.0,0.0,0.0,0.0,0.0,0.0,0.0,0.0,0.0,0.0,0.0,0.0,0.0,0.0,0.0,0.0,0.0,0.0,0.0,0.0,0.0,0.0,0.0,0.0,0.0,0.0,0.0,0.0,0.0,0.0,0.0,0.0,0.0,-2.0534,-2.2611,-2.4597,-2.5957,-2.6313,-2.6564,-2.6949,-2.5602,-2.4158,-2.2808,-2.0963,0.0,0.0,0.0,0.0,0.0,0.0,0.0,0.0,0.0,0.0,0.0,0.0,0.0,0.0,0.0,0.0,0.0,0.0,0.0,0.0,0.0,0.0,0.0,0.0,0.0,0.0,0.0,0.0,0.0,0.0,0.0,0.0,0.0,0.0,0.0,0.0,0.0,0.0,0.0,0.0,0.0,0.0,0.0,0.0,0.0,0.0,0.0,0.0,0.0,0.0,0.0,0.0,0.0,0.0,0.0,0.0,0.0,0.0,0.0,-2.6281,-2.4935,0.0,0.0,0.0,0.0,0.0,0.0,0.0,0.0,0.0,0.0,0.0,0.0,0.0,0.0,0.0,0.0,0.0,0.0,0.0,0.0,0.0,0.0,0.0,0.0,0.0,0.0,0.0,0.0,0.0,0.0,0.0,0.0,0.0,0.0,0.0,0.0,0.0,0.0,0.0,0.0,-2.1232,-2.3268,-2.5189,-2.6563,-2.6943,-2.7091,-2.7112,-2.6055,-2.4872,-2.3849,-2.1859,0.0,0.0,0.0,0.0,0.0,0.0,0.0,0.0,0.0,0.0,0.0,0.0,0.0,0.0,0.0,0.0,0.0,0.0,0.0,0.0,0.0,0.0,0.0,0.0,0.0,0.0,0.0,0.0,0.0,0.0,0.0,0.0,0.0,0.0,0.0,0.0,0.0,0.0,0.0,0.0,0.0,0.0,0.0,0.0,0.0,0.0,0.0,0.0,0.0,0.0,0.0,0.0,0.0,-2.9805,-3.0759,-3.1262,-3.1832,-3.2503,-3.3093,-3.0297,-2.8462,-2.7413,-2.6086,0.0,0.0,0.0,0.0,0.0,0.0,0.0,0.0,0.0,0.0,0.0,0.0,0.0,0.0,0.0,0.0,0.0,0.0,0.0,0.0,0.0,0.0,-2.2947,-2.4594,-2.4459,-2.3759,-2.2905,0.0,0.0,0.0,0.0,0.0,0.0,0.0,0.0,0.0,0.0,0.0,-2.1905,-2.4083,-2.6002,-2.7238,-2.7729,-2.7836,-2.7537,-2.6576,-2.5744,-2.5117,-2.2843,-2.1582,0.0,0.0,0.0,0.0,0.0,0.0,0.0,0.0,0.0,0.0,0.0,0.0,0.0,0.0,0.0,0.0,0.0,0.0,0.0,0.0,0.0,0.0,0.0,0.0,0.0,0.0,0.0,0.0,0.0,0.0,0.0,0.0,-2.0165,-2.0974,0.0,0.0,0.0,0.0,0.0,0.0,0.0,0.0,0.0,0.0,0.0,0.0,0.0,-2.8301,-2.8199,-3.1073,-3.2168,-3.1581,-3.4155,-3.5114,-3.4575,-3.5954,-3.661,-3.6697,-3.6238,0.0,-3.0821,-2.903,0.0,0.0,0.0,0.0,0.0,0.0,0.0,0.0,0.0,0.0,0.0,0.0,0.0,0.0,0.0,0.0,0.0,0.0,0.0,0.0,0.0,0.0,-2.598,-2.7236,-2.6671,-2.6088,-2.6954,-2.4298,-2.1795,-2.1998,-2.1381,-2.0637,0.0,0.0,0.0,0.0,0.0,0.0,-2.1955,-2.432,-2.6281,-2.7511,-2.7726,-2.792,-2.8265,-2.6947,-2.6109,-2.6066,-2.453,-2.3141,-2.1999,-2.2133,0.0,0.0,0.0,0.0,0.0,0.0,0.0,0.0,0.0,0.0,0.0,0.0,0.0,0.0,0.0,0.0,0.0,0.0,0.0,0.0,0.0,0.0,0.0,0.0,0.0,0.0,0.0,0.0,0.0,-2.0021,-2.1527,-2.2072,-2.2546,-2.248,0.0,0.0,0.0,0.0,0.0,0.0,0.0,0.0,0.0,-2.8338,-3.0056,-3.1374,-3.2084,-3.4345,-3.5402,-3.5435,-3.7588,-3.8369,-3.8239,-3.9539,-4.0061,-3.9821,-4.0105,-3.8794,-3.6238,-3.294,-3.0286,-2.8028,0.0,0.0,0.0,0.0,-2.4892,-2.5723,-2.6582,-2.7363,-2.8112,-2.8017,0.0,0.0,0.0,0.0,0.0,0.0,0.0,-2.449,-2.6195,-2.7298,-2.8337,-2.9905,-2.9536,-2.9015,-2.9613,-2.7406,-2.5027,-2.4003,-2.2843,-2.1782,-2.1169,-2.077,0.0,0.0,0.0,-2.2678,-2.371,-2.5535,-2.7151,-2.8217,-2.8348,-2.8435,-2.8653,-2.7757,-2.7085,-2.6691,-2.5376,-2.4249,-2.3356,-2.2974,-2.227,0.0,0.0,0.0,0.0,0.0,0.0,0.0,0.0,0.0,0.0,0.0,0.0,0.0,0.0,0.0,0.0,0.0,0.0,0.0,0.0,0.0,0.0,0.0,0.0,0.0,0.0,0.0,0.0,-2.1377,-2.3,-2.3024,-2.443,-2.4765,0.0,0.0,0.0,0.0,0.0,0.0,-2.8007,-2.9223,-3.0557,-3.2019,-3.3561,-3.5143,-3.6566,-3.7898,-3.8914,-3.9475,-4.0583,-4.1303,-4.1532,-4.25,-4.2769,-4.2442,-4.2813,-4.2158,-4.052,-3.6426,-3.3095,-3.0557,-2.9394,-2.8391,-2.7453,-2.7429,-2.7955,-2.8828,-2.9526,-3.0456,-3.1345,-3.0556,-3.0262,-2.9786,-2.7119,0.0,0.0,0.0,0.0,-2.6296,-2.833,-2.9288,-3.0154,-3.1924,-3.1772,-3.1316,-3.1473,-2.9829,-2.7817,-2.6152,-2.4681,-2.3513,-2.2757,-2.2422,0.0,-2.1631,-2.2961,-2.4364,-2.5426,-2.6802,-2.8003,-2.8855,-2.8943,-2.8899,-2.8768,-2.82,-2.7545,-2.7083,-2.5942,-2.5098,-2.4526,-2.3731,-2.3069,-2.2435,0.0,0.0,0.0,0.0,0.0,0.0,0.0,0.0,0.0,0.0,0.0,0.0,0.0,0.0,0.0,0.0,0.0,0.0,0.0,0.0,0.0,0.0,0.0,0.0,0.0,0.0,0.0,0.0,0.0,-2.3875,-2.7083,0.0,0.0,0.0,0.0,-2.7217,-2.8113,-2.965,-3.1955,-3.3398,-3.5402,-3.7984,-3.9278,-4.0607,-4.2049,-4.2617,-4.3119,-4.3599,-4.3665,-4.3949,-4.4408,-4.4451,-4.4473,-4.4451,-4.4473,-4.3643,-4.2092,-3.8763,-3.6665,-3.5408,-3.2426,-3.1527,-3.1711,-3.0579,-3.1219,-3.2447,-3.2057,-3.2441,-3.3027,-3.3442,-3.2656,-3.1157,-2.944,-2.8337,0.0,0.0,-2.8082,-2.8481,-2.9785,-3.0621,-3.1473,-3.2787,-3.2556,-3.2212,-3.2332,-3.0745,-2.8998,-2.8322,-2.7236,-2.6103,-2.5185,0.0,-2.414,-2.2491,-2.3742,-2.5283,-2.6345,-2.7807,-2.8877,-2.9401,-2.9445,-2.9248,-2.879,-2.7894,-2.7326,-2.7282,-2.6118,-2.5407,-2.5179,-2.4592,-2.4136,-2.3939,-2.2568,0.0,0.0,0.0,0.0,0.0,0.0,0.0,0.0,0.0,0.0,0.0,0.0,0.0,0.0,0.0,0.0,0.0,0.0,0.0,0.0,0.0,0.0,0.0,0.0,0.0,0.0,0.0,0.0,-2.8355,-3.0914,0.0,-3.0584,-3.0338,-3.07,-3.1715,-3.3246,-3.479,-3.6431,-3.8195,-3.9779,-4.1164,-4.2108,-4.2988,-4.3818,-4.3993,-4.4167,-4.432,-4.432,-4.443,-4.4604,-4.491,-4.4888,-4.4604,-4.4932,-4.4582,-4.3709,-4.1964,-3.9713,-3.709,-3.5929,-3.4996,-3.4231,-3.4533,-3.4949,-3.5518,-3.5903,-3.6173,-3.6129,-3.4853,-3.3204,-3.1377,-3.0678,-2.988,-2.95,-3.0194,-3.0696,-3.1227,-3.2814,-3.3269,-3.353,-3.4294,-3.3878,-3.316,-3.3117,-3.2079,-3.117,-3.0723,-2.895,-2.7216,-2.6498,-2.639,-2.6127,-2.5044,-2.5738,-2.6693,-2.7457,-2.8244,-2.8811,-2.8986,-2.9008,-2.8943,-2.8768,-2.8156,-2.7654,-2.7326,-2.6647,-2.5986,-2.5451,-2.5076,-2.467,-2.4203,-2.3594,-2.2656,0.0,0.0,0.0,0.0,0.0,0.0,0.0,0.0,0.0,0.0,0.0,0.0,0.0,0.0,0.0,0.0,0.0,0.0,0.0,0.0,0.0,0.0,0.0,0.0,0.0,-2.7228,-3.0367,-3.1801,-3.44,-3.5755,-3.4712,-3.4611,-3.5125,-3.6394,-3.7681,-3.9109,-4.0403,-4.176,-4.274,-4.3577,-4.4046,-4.4582,-4.5063,-4.5063,-4.5063,-4.5063,-4.5063,-4.5063,-4.5085,-4.5391,-4.5194,-4.4604,-4.4932,-4.4713,-4.408,-4.3491,-4.1762,-3.9451,-3.911,-3.8316,-3.7548,-3.7974,-3.8355,-3.846,-3.8586,-3.8385,-3.7898,-3.6275,-3.4554,-3.3044,-3.2844,-3.2285,-3.2032,-3.2775,-3.3279,-3.3849,-3.4912,-3.5141,-3.5037,-3.5168,-3.4619,-3.4074,-3.366,-3.2705,-3.1967,-3.2097,-3.0438,-2.8609,-2.745,-2.7388,-2.7151,-2.6,-2.6432,-2.6955,-2.7282,-2.8025,-2.8462,-2.8287,-2.8702,-2.8877,-2.8549,-2.7785,-2.7261,-2.7086,-2.619,-2.5661,-2.5672,-2.4878,-2.4271,-2.3958,-2.3216,-2.2413,-2.1616,0.0,0.0,0.0,0.0,0.0,0.0,0.0,0.0,0.0,0.0,0.0,0.0,0.0,0.0,0.0,0.0,0.0,0.0,0.0,0.0,0.0,0.0,0.0,-2.6403,-3.012,-3.3122,-3.4005,-3.7276,-3.8993,-3.771,-3.8786,-3.9926,-4.1066,-4.1277,-4.2145,-4.384,-4.3883,-4.432,-4.526,-4.5303,-4.5522,-4.5959,-4.598,-4.6002,-4.6002,-4.6002,-4.6002,-4.6002,-4.6024,-4.5522,-4.4626,-4.4648,-4.4124,-4.325,-4.3228,-4.3066,-4.2538,-4.1647,-4.1452,-4.1586,-4.0908,-4.0865,-4.0964,-4.0058,-3.8957,-3.8037,-3.7811,-3.704,-3.6144,-3.5905,-3.5682,-3.5552,-3.5531,-3.5765,-3.5998,-3.5998,-3.5998,-3.5867,-3.5364,-3.5005,-3.4631,-3.3922,-3.2509,-3.1538,-3.2306,-3.1607,-3.0242,-2.8185,-2.7952,-2.7412,-2.5352,-2.5648,0.0,-2.6037,-2.7239,-2.7938,-2.7457,-2.8615,-2.9074,-2.8134,-2.6736,-2.6103,-2.6605,-2.5018,-2.4579,-2.5841,-2.4015,-2.3117,-2.3364,-2.1461,-2.1174,-2.2518,0.0,0.0,0.0,0.0,0.0,0.0,0.0,0.0,0.0,0.0,0.0,0.0,0.0,0.0,0.0,0.0,0.0,0.0,0.0,0.0,0.0,-2.8271,-3.093,-3.1366,-3.4198,-3.7044,-3.9664,-4.085,-4.1641,-4.2107,-4.1936,-4.2086,-4.3075,-4.372,-4.4351,-4.4888,-4.4582,-4.4517,-4.4779,-4.4779,-4.4845,-4.4976,-4.5653,-4.6002,-4.6002,-4.6002,-4.6002,-4.6024,-4.6374,-4.6199,-4.5631,-4.598,-4.5609,-4.4713,-4.4342,-4.3993,-4.348,-4.2861,-4.2384,-4.1791,-4.1559,-4.0995,-4.0454,-3.9585,-3.898,-3.8763,-3.8657,-3.81,-3.7356,-3.7231,-3.6788,-3.622,-3.6125,-3.6282,-3.6316,-3.621,-3.6382,-3.6457,-3.6326,-3.562,-3.5032,-3.4884,-3.3857,-3.3029,-3.2918,-3.2394,-3.1586,-3.0221,-3.0122,-2.9816,-2.8871,-2.8943,-2.903,-2.903,-2.9379,-2.9554,-2.9423,-2.8833,-2.8462,-2.8549,-2.6933,-2.6103,-2.6605,-2.5797,-2.5574,-2.5884,-2.5333,-2.5032,-2.4891,-2.3674,-2.3054,0.0,0.0,0.0,0.0,0.0,0.0,0.0,0.0,0.0,0.0,0.0,0.0,0.0,0.0,0.0,0.0,0.0,0.0,0.0,0.0,0.0,0.0,-3.1948,-3.5373,-3.7353,-3.8458,-4.0255,-4.3003,-4.3443,-4.3994,-4.4776,-4.4375,-4.4246,-4.4779,-4.5331,-4.5679,-4.5609,-4.557,-4.5265,-4.4604,-4.5369,-4.5412,-4.4604,-4.574,-4.6199,-4.6002,-4.6002,-4.6002,-4.6002,-4.6286,-4.5937,-4.5129,-4.5631,-4.5172,-4.4102,-4.4036,-4.3676,-4.3252,0.0,0.0,0.0,0.0,-4.1294,-4.0317,-3.9905,-3.9561,-3.9217,-3.8936,-3.8486,-3.8061,-3.7487,-3.6834,-3.6199,-3.5734,-3.555,-3.551,-3.5876,-3.6155,-3.6435,-3.6653,-3.6085,-3.5408,-3.5015,-3.401,-3.318,-3.3093,-3.2525,0.0,-3.1586,-3.0843,-3.0013,-2.9045,-2.8892,-2.8855,-2.8462,-2.9117,-2.9358,-2.8746,-2.8484,-2.8375,-2.844,-2.6779,0.0,0.0,0.0,-2.5143,-2.4843,-2.488,0.0,0.0,0.0,-2.3298,-2.3608,-2.3608,0.0,0.0,-2.326,-2.2783,0.0,0.0,0.0,0.0,0.0,0.0,0.0,0.0,0.0,0.0,0.0,0.0,0.0,0.0,0.0,0.0,-3.5579,-3.9403,-4.3131,-4.2772,-4.2772,-4.4739,-4.5391,-4.5672,-4.6093,-4.6009,-4.6031,-4.5962,-4.6138,-4.6031,-4.6111,-4.6442,0.0,0.0,0.0,-4.6352,-4.4692,-4.598,-4.6461,-4.609,-4.6024,-4.6002,-4.6002,-4.6068,-4.5369,-4.4124,-4.4561,-4.3949,-4.2704,-4.3097,-4.311,-4.2646,-4.218,-4.2257,-4.2495,-4.201,-4.1295,-4.055,-4.0371,0.0,0.0,-3.8882,-3.8608,-3.8378,-3.727,-3.6666,-3.6075,-3.5163,-3.4752,-3.4625,-3.5496,-3.5852,-3.6238,-3.6675,-3.6413,-3.5801,-3.4949,-3.3683,-3.2809,-3.3158,-3.2481,-3.1979,-3.2328,-3.0952,-2.9263,-2.7731,-2.7717,-2.7501,-2.6649,-2.7981,-2.8528,-2.7282,-2.8025,0.0,-2.8156,-2.6535,-2.581,-2.6562,-2.5458,-2.4457,-2.3718,-2.3886,-2.3492,-2.2369,-2.2346,-2.2988,-2.4271,-2.4502,-2.5093,-2.5946,-2.4215,-2.3677,0.0,0.0,0.0,0.0,0.0,0.0,0.0,0.0,0.0,0.0,0.0,0.0,0.0,0.0,0.0,-3.5508,-3.9305,-4.2438,-4.4369,-4.4836,-4.5295,-4.6329,-4.5708,-4.5433,-4.6548,-4.5944,-4.5664,-4.6117,-4.6008,-4.6115,-4.657,-4.5527,-4.5004,-4.5172,-4.515,-4.515,-4.5172,-4.5828,-4.6286,-4.6592,-4.6177,0.0,-4.6024,-4.6417,-4.6221,-4.5587,-4.5696,-4.5129,-4.4146,-4.384,-4.3589,-4.312,-4.2308,-4.2064,-4.1839,-4.0901,-4.0277,-3.9862,-3.9347,-3.8961,-3.875,-3.8241,-3.8565,-3.8997,-3.8378,-3.8338,0.0,-3.7573,-3.7184,-3.6902,-3.6578,-3.6828,-3.7134,-3.7221,-3.6894,-3.65,-3.6326,-3.543,-3.4578,-3.4294,-3.377,-3.3158,-3.2503,-3.2066,-3.1586,-3.0787,-3.0799,-3.0712,-3.0537,-3.0493,-3.0515,-3.0646,-2.8811,-2.7872,-2.8549,-2.6954,-2.6016,-2.6583,-2.6713,-2.6579,-2.624,-2.6245,-2.6063,-2.5721,-2.5494,-2.5605,-2.5895,-2.5895,-2.6155,-2.6595,-2.5946,-2.5429,0.0,0.0,0.0,0.0,0.0,0.0,0.0,0.0,0.0,0.0,0.0,-2.6998,-2.9535,0.0,-3.5346,-3.9259,-4.1601,-4.3552,-4.5328,-4.6016,-4.6374,-4.63,-4.5911,-4.5835,-4.6351,-4.6052,-4.575,-4.6073,-4.6073,-4.6223,-4.6374,-4.6006,-4.54,-4.4976,-4.5653,-4.5696,-4.4954,-4.5893,-4.6374,-4.6374,-4.6111,-4.6002,-4.6002,-4.6243,-4.598,-4.5303,-4.5544,-4.4976,-4.3862,-4.3458,-4.323,-4.323,-4.2664,-4.2372,-4.2257,-4.1368,-4.088,-4.055,-3.9677,-3.9361,-3.9178,-3.8089,-3.8287,-3.8611,-3.7634,-3.7234,-3.7121,-3.6517,-3.596,-3.5715,-3.5972,-3.6382,-3.6784,-3.7265,-3.685,-3.6326,-3.6326,-3.5561,-3.4797,-3.4578,-3.4449,-3.4076,-3.2896,-3.2827,-3.2669,-3.1738,-3.1629,-3.1542,-3.1302,-3.104,-3.0799,-3.0581,-2.927,-2.8506,-2.8724,-2.7654,-2.6867,-2.6799,-2.713,-2.7195,-2.7129,-2.6973,-2.6819,-2.6689,-2.6594,-2.6488,-2.6452,-2.6623,-2.6731,-2.6689,-2.6841,-2.6657,0.0,0.0,0.0,0.0,0.0,0.0,0.0,-2.4323,-2.5701,-2.7577,-2.9223,-3.1245,-3.4712,-3.626,-3.821,-4.2223,-4.3337,-4.4123,-4.5969,-4.6592,-4.6478,-4.5806,-4.61,-4.6329,-4.618,-4.6095,-4.6009,-4.6006,-4.6117,-4.616,-4.6155,-4.6485,-4.6203,-4.5041,-4.6439,-4.6505,-4.5019,-4.6046,-4.6439,-4.6133,-4.6046,-4.6002,-4.6002,-4.5915,-4.5456,-4.4735,-4.4954,-4.432,-4.3184,-4.297,-4.3013,-4.3337,-4.2999,-4.2863,-4.2821,-4.2295,-4.1601,-4.0986,-4.0213,-3.9846,-3.9368,-3.7785,-3.7796,-3.8079,-3.6644,-3.6039,-3.5676,-3.5191,-3.4752,-3.4581,-3.5478,-3.6003,-3.6435,-3.7199,-3.6719,-3.6107,-3.6107,-3.5343,-3.4666,-3.4666,-3.4823,-3.4582,-3.3463,-3.3416,-3.3149,-3.1782,-3.1629,-3.1476,-3.1083,-3.0952,-3.0603,-2.9838,-2.951,-2.9139,-2.8659,-2.8265,-2.7831,-2.7304,-2.7458,-2.7545,-2.7546,-2.7239,-2.7129,-2.6997,-2.6867,-2.6845,-2.6734,-2.7239,-2.7371,-2.7019,-2.7569,-2.7453,-1.8386,-1.6738,-1.6995,-2.0162,-2.1734,-2.3658,0.0,-3.0366,-3.2061,-3.3452,-3.5128,-3.6981,-3.9042,-4.0515,-4.2025,-4.4117,-4.5209,-4.5809,-4.6248,-4.6215,-4.6294,-4.6075,-4.6428,-4.6717,-4.6764,-4.629,-4.6093,-4.6009,-4.5986,-4.6243,-4.6636,-4.633,-4.6264,-4.6483,-4.6286,-4.6264,-4.6483,-4.6221,-4.6264,-4.6636,-4.6199,-4.6002,-4.598,-4.5587,-4.5347,-4.5194,-4.4386,-4.3709,-4.3206,-4.3621,-4.3774,-4.3796,-4.384,-4.372,-4.3577,-4.2513,-4.1383,-4.015,-3.9696,-3.9114,-3.8242,-3.7177,-3.7395,-3.78,-3.6897,-3.7086,-3.7486,-3.6997,-3.7031,-3.7126,-3.6846,-3.698,-3.7243,-3.7352,-3.6981,-3.661,-3.661,-3.5823,-3.5124,-3.5124,-3.4797,-3.436,-3.3814,-3.3704,-3.3246,-3.1826,-3.1629,-3.1607,-3.1542,-3.1171,-3.0865,-3.0756,-2.9598,-2.8637,-2.8156,-2.8069,-2.8178,-2.8576,-2.8664,-2.851,-2.8274,-2.8164,-2.7922,-2.7612,-2.7283,-2.713,-2.7173,-2.8096,-2.8604,-2.8517,-2.8251,-2.7832,-2.074,-2.1053,-2.222,-2.3846,-2.6494,-2.9359,-3.2091,-3.4304,-3.6307,-3.7842,-3.954,-4.1158,-4.244,-4.2775,-4.3392,-4.5188,-4.5513,-4.5492,-4.6129,-4.6652,-4.6398,-4.4586,-4.5014,-4.5596,-4.5578,-4.5791,-4.5849,-4.5205,-4.5657,-4.609,-4.6286,-4.6111,-4.609,-4.6308,-4.6111,-4.609,-4.6308,-4.6111,-4.6111,-4.6308,-4.5828,-4.5609,-4.5587,-4.5107,-4.4888,-4.4845,-4.3883,-4.3512,-4.3578,-4.349,-4.3468,-4.349,-4.3752,-4.3687,-4.3468,-4.2741,-4.2074,-4.1358,-4.0276,-3.9815,-3.9559,-3.7963,-3.7653,-3.772,-3.6813,-3.6561,-3.6457,-3.6639,-3.6822,-3.6903,-3.7197,-3.7253,-3.7374,-3.7374,-3.7025,-3.6697,-3.6697,-3.5911,-3.5212,-3.5212,-3.5172,-3.4911,-3.3923,-3.4142,-3.4054,-3.2634,-3.2241,-3.1957,-3.1673,-3.1192,-3.0799,-3.0515,-2.9707,-2.8986,-2.8506,-2.82,-2.8134,-2.8331,-2.8331,-2.8375,-2.8646,-2.836,-2.8228,-2.8316,-2.7586,-2.7475,-2.816,-2.8564,-2.8811,-2.8811,-2.8676,-2.8451,-2.2603,-2.4114,-2.5811,-2.7661,-3.0891,-3.3997,-3.5791,-3.7734,-3.9713,-4.1358,-4.2731,-4.385,-4.4699,-4.4149,-4.422,-4.5707,-4.5341,-4.5144,-4.5815,-4.6203,-4.5565,-4.3053,-4.3141,-4.3241,-4.2916,-4.4329,-4.5107,-4.4823,-4.5434,-4.5871,-4.6002,-4.6002,-4.6002,-4.6002,-4.6002,-4.6002,-4.6002,-4.6133,-4.6068,-4.5806,-4.574,-4.55,-4.5107,-4.4604,-4.432,-4.4167,-4.3468,-4.3359,-4.3665,-4.3599,-4.349,-4.3403,-4.3883,-4.3774,-4.3337,-4.2926,-4.2635,-4.214,-4.0636,-4.0392,-4.0479,-3.865,-3.8016,-3.7912,-3.6918,-3.6123,-3.5831,-3.6199,-3.63,-3.6502,-3.698,-3.7287,-3.7352,-3.7221,-3.6937,-3.6697,-3.6697,-3.602,-3.5408,-3.5408,-3.5659,-3.5439,-3.4624,-3.4801,-3.467,-3.3595,-3.3071,-3.2547,-3.1913,-3.128,-3.0712,-3.0253,-2.9773,-2.9336,-2.8986,-2.8637,-2.8506,-2.8637,-2.8375,-2.851,-2.8998,-2.8627,-2.8539,-2.88,-2.8017,-2.8061,-2.8746,-2.8746,-2.8746,-2.8746,-2.8746,-2.8746,-2.3055,-2.359,-2.4746,-3.0634,-3.3617,-3.5926,-3.9149,-4.105,-4.2696,-4.4322,-4.4608,-4.4823,-4.5319,-4.5017,-4.4847,-4.5358,-4.5341,-4.5353,-4.5405,-4.4576,-4.3425,-4.1918,-4.0956,-3.9864,-3.8466,-4.1328,-4.3818,-4.5194,-4.5325,-4.5522,-4.598,-4.6002,-4.6002,-4.6002,-4.6002,-4.6002,-4.6002,-4.6461,-4.6243,-4.5347,-4.6264,-4.5959,-4.4604,-4.4102,-4.3643,-4.3228,-4.3184,-4.3184,-4.3272,-4.4167,-4.4255,-4.3883,-4.4386,-4.4277,-4.3774,-4.3337,-4.2601,-4.171,-4.0531,-4.0066,-3.965,-3.8414,-3.8227,-3.8187,-3.7024,-3.6603,-3.6499,-3.6058,-3.6178,-3.6316,-3.623,-3.6806,-3.7265,-3.6828,-3.6697,-3.6697,-3.6697,-3.6304,-3.5954,-3.5954,-3.5932,-3.5932,-3.5911,-3.5496,-3.5037,-3.4556,-3.4076,-3.342,-3.2481,-3.1498,-3.0712,-3.0253,-2.9773,-2.9467,-2.9467,-2.9445,-2.9642,-3.0122,-2.9248,-2.902,-2.9684,-2.9101,-2.8743,-2.8765,-2.8756,-2.8746,-2.8746,-2.8746,-2.8746,-2.8746,-2.8746,-2.8746,-2.4159,-2.6998,-3.0512,-3.3947,-3.7004,-3.9886,-4.2118,-4.3816,-4.4801,-4.4678,-4.3654,-4.2297,-4.1056,-4.0212,-3.9951,-4.1223,-4.1813,-4.2774,-4.4678,-4.3981,-4.2638,-4.052,-4.0279,-3.958,-3.7789,-4.0105,-4.1939,-4.242,-4.3927,-4.5041,-4.5522,-4.5828,-4.6002,-4.6002,-4.6002,-4.6155,-4.6483,-4.633,-4.6417,-4.6745,-4.6111,-4.5041,-4.3643,-4.349,-4.3316,-4.3184,-4.3184,-4.3359,-4.3665,-4.3971,-4.4014,-4.3883,-4.4036,-4.3818,-4.3381,-4.3228,-4.2718,-4.208,-4.0921,-4.0586,-4.036,-3.9188,-3.8893,-3.868,-3.7784,-3.7129,-3.6519,-3.6058,-3.5932,-3.6135,-3.6231,-3.6682,-3.6924,-3.6448,-3.6796,-3.7068,-3.6762,-3.6566,-3.6457,-3.6457,-3.6457,-3.6347,-3.602,-3.5823,-3.5452,-3.4644,-3.3573,-3.2743,-3.2416,-3.1804,-3.1192,-3.0712,-3.0253,-2.9969,-2.9969,-2.9095,-2.9008,-3.0144,-2.9008,-2.8707,-2.962,-2.8495,-2.8099,-2.8778,-2.8795,-2.8746,-2.8746,-2.8746,-2.8746,-2.8746,-2.8746,-2.8746,-2.821,-3.1389,-3.4624,-3.8087,-4.0541,-4.2418,-4.3968,-4.4656,-4.4713,-4.3752,-4.2027,-3.9844,-3.7479,-3.6416,-3.6351,-3.7783,-3.8521,-4.0127,-4.3381,-4.2704,-4.1437,-4.0214,-3.9733,-3.9012,-3.7767,-3.9362,-4.0629,-4.0846,-4.3075,-4.4473,-4.4656,-4.5238,-4.5653,-4.598,-4.6002,-4.6155,-4.6461,-4.633,-4.6505,-4.6942,-4.55,-4.432,-4.3425,-4.325,-4.3075,-4.2922,-4.3097,-4.3228,-4.3381,-4.3709,-4.3862,-4.3862,-4.3862,-4.3687,-4.3403,-4.3228,-4.2609,-4.1863,-4.113,-4.0991,-4.078,-3.9776,-3.9303,-3.898,-3.8103,-3.7234,-3.6519,-3.6058,-3.5932,-3.589,-3.6088,-3.6667,-3.6997,-3.635,-3.6937,-3.7505,-3.7046,-3.6937,-3.6937,-3.6937,-3.6937,-3.685,-3.6522,-3.6195,-3.5648,-3.4666,-3.3595,-3.2831,-3.2656,-3.2197,-3.1629,-3.0974,-3.0493,-3.0209,-3.0209,-2.9183,-2.9095,-3.0384,-2.927,-2.8921,-2.9847,-2.825,-2.7793,-2.8746,-2.8817,-2.8817,-2.8817,-2.8773,-2.8773,-2.8773,-2.9139,-2.9161,-3.4581,-3.6237,-3.6982,-4.3019,-4.3939,-4.3543,-4.4242,-4.3731,-4.2704,-4.159,-3.9733,-3.734,-3.4376,-3.3574,-3.3769,-3.5222,-3.5707,-3.744,-4.1765,-4.0804,-3.9995,-4.0891,-3.9406,-3.827,-3.8248,-3.9165,-3.9996,-4.0558,-4.2653,-4.3741,-4.3522,-4.4264,-4.5063,-4.598,-4.6002,-4.6024,-4.6046,-4.6505,-4.6461,-4.5915,-4.4539,-4.3883,-4.3818,-4.3381,-4.2922,-4.2485,-4.2966,-4.2922,-4.2573,-4.349,-4.3862,-4.3862,-4.3862,-4.384,-4.3774,-4.3316,-4.2254,-4.118,-4.1158,-4.1103,-4.0759,-3.9908,-3.9455,-3.9002,-3.8103,-3.7403,-3.6582,-3.6058,-3.5932,-3.5848,-3.5749,-3.6667,-3.7363,-3.6393,-3.7154,-3.7964,-3.7418,-3.7352,-3.7374,-3.7374,-3.7374,-3.7374,-3.7352,-3.6588,-3.5648,-3.4709,-3.4141,-3.3661,-3.3158,-3.2678,-3.2022,-3.1061,-3.0537,-3.0253,-3.0275,-2.9794,-2.9882,-3.0843,-3.0013,-2.9707,-3.0209,-2.8464,-2.7857,-2.879,-2.8795,-2.8773,-2.8888,-2.8892,-2.8826,-2.8826,-2.9759,-2.969,-3.526,-3.8052,-4.0583,-4.421,-4.4403,-4.3567,-4.3119,-4.1961,-4.0236,-3.744,-3.3923,-3.0482,-2.7753,-2.719,-2.8164,-3.1365,-3.3679,-3.6676,-4.1262,-4.1459,-4.1109,-4.1022,-4.0869,-4.0629,-4.0301,-4.1786,-4.2283,-4.105,-4.2849,-4.4189,-4.4765,-4.5391,-4.5762,-4.6002,-4.6002,-4.6177,-4.6548,-4.6679,-4.6133,-4.4954,-4.4582,-4.4036,-4.3337,-4.3228,-4.3119,-4.2988,-4.3119,-4.3294,-4.3512,-4.3752,-4.3862,-4.3862,-4.3862,-4.3643,-4.3294,-4.2536,-4.1971,-4.1521,-4.0904,-4.0184,-3.9644,-3.9384,-3.9408,-3.9303,-3.821,-3.8125,-3.8061,-3.6122,-3.5915,-3.6331,-3.5623,-3.641,-3.6886,-3.5606,-3.6773,-3.7789,-3.6588,-3.6872,-3.7374,-3.7374,-3.7374,-3.7265,-3.6937,-3.6369,-3.5758,-3.5124,-3.4644,-3.4163,-3.3661,-3.2896,-3.2285,-3.2022,-3.1236,-3.0865,-3.1236,-3.0166,-2.9882,-3.0843,-3.0013,-2.9987,-3.1203,-3.0061,-2.9211,-2.8839,-2.882,-2.9129,-2.9853,-2.9844,-2.9642,-2.9346,-2.962,-2.939,-3.9546,-4.1316,-4.2507,-4.5598,-4.4548,-4.2442,-4.0629,-3.8925,-3.6544,-3.2306,-2.9183,-2.6343,-2.3253,-2.3253,-2.4789,-2.8185,-3.0954,-3.4463,-3.9449,-4.0301,-4.0825,-4.183,-4.1983,-4.2158,-4.2551,-4.3556,-4.3927,-4.3057,-4.3698,-4.432,-4.4525,-4.4982,-4.5565,-4.598,-4.6002,-4.6133,-4.6395,-4.6221,-4.5609,-4.4582,-4.4364,-4.3883,-4.3184,-4.3184,-4.3184,-4.3184,-4.3184,-4.3316,-4.3556,-4.3556,-4.3556,-4.3556,-4.3556,-4.3403,-4.3119,-4.2202,-4.1726,-4.1364,-4.0485,-3.9747,-3.921,-3.9625,-3.9606,-3.9347,-3.868,-3.8445,-3.8316,-3.6876,-3.6582,-3.6603,-3.654,-3.6959,-3.7292,-3.641,-3.7313,-3.8095,-3.685,-3.7003,-3.7374,-3.7374,-3.7374,-3.7243,-3.6784,-3.6479,-3.6107,-3.5605,-3.5124,-3.4731,-3.4447,-3.3595,-3.2937,-3.2625,-3.1775,-3.1236,-3.1425,-3.0482,-3.0122,-3.0843,-3.0406,-3.0493,-3.1207,-3.0963,-3.0144,-2.8824,-2.962,-2.9869,-2.9613,-2.9559,-2.9661,-2.9804,-2.9667,-2.9438,-4.4371,-4.4464,-4.3463,-4.6358,-4.4226,-4.0651,-3.7745,-3.5321,-3.2241,-2.7261,-2.5164,-2.3275,-2.0355,-2.1051,-2.3057,-2.5936,-2.8631,-3.2088,-3.7199,-3.851,-3.993,-4.266,-4.2704,-4.3097,-4.4539,-4.4626,-4.4823,-4.5369,-4.5019,-4.446,-4.376,-4.4416,-4.5129,-4.5893,-4.5959,-4.598,-4.5915,-4.5456,-4.4997,-4.4582,-4.4036,-4.3556,-4.3184,-4.3184,-4.3184,-4.3184,-4.3184,-4.3184,-4.3184,-4.3184,-4.3184,-4.3184,-4.3184,-4.3184,-4.3119,-4.2202,-4.1589,-4.1115,-4.0216,-3.9614,-3.9473,-4.0018,-3.9736,-3.9153,-3.9088,-3.8637,-3.8018,-3.7763,-3.7192,-3.6708,-3.7509,-3.7784,-3.7804,-3.752,-3.8174,-3.8554,-3.7505,-3.733,-3.7374,-3.7374,-3.7374,-3.7243,-3.685,-3.6741,-3.6544,-3.6129,-3.5561,-3.5212,-3.5212,-3.4382,-3.3594,-3.2972,-3.2273,-3.1666,-3.145,-3.0723,-3.0472,-3.0865,-3.0887,-3.0843,-3.0535,-3.1086,-3.0646,-2.9189,-3.0621,-3.0637,-2.9137,-2.8899,-2.9289,-3.017,-2.9806,-2.9646,-4.3356,-4.3826,-4.3903,-4.496,-4.2548,-3.9165,-3.5907,-3.2054,-2.8222,-2.4923,-2.149,-1.9184,-1.9443,-2.0336,-2.2361,-2.6432,-2.9205,-3.2219,-3.6347,-3.8379,-4.0061,-4.1743,-4.2595,-4.3621,-4.5041,-4.4823,-4.4954,-4.5806,-4.5806,-4.5718,-4.5483,-4.5718,-4.5653,-4.5434,-4.5806,-4.5806,-4.5434,-4.4954,-4.467,-4.4582,-4.3709,-4.325,-4.3184,-4.3184,-4.3184,-4.3184,-4.3184,-4.3184,-4.3184,-4.3184,-4.3184,-4.3184,-4.3184,-4.3184,-4.3119,-4.218,-4.1841,-4.1499,-4.0351,-4.0012,-4.0149,-3.9888,-3.9713,-3.9563,-3.9174,-3.9002,-3.8637,-3.7213,-3.6687,-3.6645,-3.6855,-3.7403,-3.774,-3.7133,-3.7957,-3.8466,-3.7112,-3.7112,-3.7374,-3.7374,-3.7374,-3.7352,-3.7265,-3.6937,-3.6675,-3.6588,-3.578,-3.5212,-3.5212,-3.4382,-3.3726,-3.3682,-3.2977,-3.2531,-3.2236,-3.1526,-3.102,-3.0887,-3.0887,-3.0591,-2.9916,-2.9916,-3.0351,-3.1064,-3.0414,-3.0422,-3.1086,-2.9567,-2.9321,-3.0206,-2.9642,-2.9441,-4.3038,-4.3529,-4.3806,-4.4414,-4.1584,-3.733,-3.2965,-2.9102,-2.5131,-2.0815,-1.8794,-1.7737,-1.7492,-1.8816,-2.1051,-2.4429,-2.6998,-3.009,-3.4578,-3.685,-3.8881,-4.1066,-4.242,-4.3534,-4.4473,-4.4342,-4.4495,-4.5216,-4.526,-4.5478,-4.598,-4.6002,-4.5784,-4.5325,-4.5762,-4.5653,-4.4954,-4.4713,-4.4473,-4.4211,-4.3512,-4.3184,-4.3184,-4.3425,-4.3534,-4.3556,-4.3796,-4.349,-4.2813,-4.3337,-4.3075,-4.2464,-4.2966,-4.3184,-4.3119,-4.2202,-4.1705,-4.1364,-4.0485,-4.0145,-4.0018,-4.0018,-4.0018,-3.9975,-3.9758,-3.9671,-3.9541,-3.8189,-3.7869,-3.7869,-3.7869,-3.8167,-3.8465,-3.8391,-3.8559,-3.851,-3.7309,-3.7418,-3.768,-3.7418,-3.7374,-3.7374,-3.7374,-3.7199,-3.7046,-3.7046,-3.6216,-3.5605,-3.5605,-3.4775,-3.4076,-3.4032,-3.3592,-3.3131,-3.2625,-3.2163,-3.1666,-3.128,-3.128,-3.0939,-3.0318,-3.0296,-3.0504,-3.0943,-3.0734,-3.0975,-3.1617,-3.0362,-3.0053,-3.0409,-3.0001,-2.9844,-4.2884,-4.3294,-4.3458,-4.3736,-4.0323,-3.5605,-3.0525,-2.6585,-2.2604,-1.781,-1.6959,-1.6903,-1.6009,-1.7615,-1.9879,-2.2366,-2.4523,-2.754,-3.2634,-3.5015,-3.733,-4.0345,-4.207,-4.3228,-4.3796,-4.3862,-4.4058,-4.4539,-4.4582,-4.4997,-4.5959,-4.6002,-4.574,-4.5172,-4.5718,-4.55,-4.4451,-4.4539,-4.4342,-4.3862,-4.3403,-4.3184,-4.3184,-4.3556,-4.3709,-4.3731,-4.4124,-4.3512,-4.2217,-4.3316,-4.2922,-4.1651,-4.2791,-4.3184,-4.3119,-4.2202,-4.1589,-4.1115,-4.0485,-4.0012,-3.9625,-4.0018,-4.0149,-4.0279,-4.0279,-4.0214,-3.9909,-3.9304,-3.9002,-3.8937,-3.9045,-3.9067,-3.9195,-3.9558,-3.9187,-3.8619,-3.7855,-3.7986,-3.8139,-3.7767,-3.768,-3.7658,-3.7549,-3.7527,-3.7505,-3.7396,-3.6566,-3.5976,-3.5976,-3.5124,-3.4493,-3.4317,-3.4076,-3.3594,-3.306,-3.2691,-3.2301,-3.1804,-3.1797,-3.1512,-3.0908,-3.0887,-3.07,-3.0206,-3.103,-3.1606,-3.1773,-3.1152,-3.0811,-3.0864,-3.0566,-3.0476,-4.271,-4.3587,-4.3534,-4.1863,-3.8451,-3.4248,-3.0012,-2.4902,-2.0465,-1.8148,-1.6246,-1.5348,-1.6556,-1.7765,-1.9468,-2.2375,-2.3471,-2.5819,-3.1083,-3.3508,-3.5954,-3.9296,-4.135,-4.2857,-4.3774,-4.3862,-4.4058,-4.4539,-4.4582,-4.4997,-4.5959,-4.6002,-4.5587,-4.4692,-4.5522,-4.5325,-4.3949,-4.4364,-4.4342,-4.3862,-4.3403,-4.3184,-4.3184,-4.3228,-4.3228,-4.325,-4.3294,-4.2587,-4.1445,-4.2696,-4.25,-4.1402,-4.2653,-4.3184,-4.3119,-4.218,-4.1568,-4.0979,-3.9947,-3.9347,-3.921,-3.9341,-3.9757,-4.0279,-4.0279,-3.9844,-3.926,-3.9067,-3.8616,-3.8125,-3.8959,-3.9067,-3.9195,-3.9558,-3.9187,-3.8816,-3.8728,-3.8728,-3.875,-3.8707,-3.8707,-3.8554,-3.8117,-3.8051,-3.7898,-3.744,-3.6566,-3.5976,-3.5976,-3.5124,-3.4513,-3.4469,-3.4274,-3.4075,-3.377,-3.3382,-3.2871,-3.2306,-3.2405,-3.1917,-3.0908,-3.1086,-3.0678,-2.9742,-3.0743,-3.1494,-3.2117,-3.1551,-3.1384,-3.1591,-3.1121,-3.0897,-3.967,-4.1769,-4.31,-4.1082,-3.7667,-3.3465,-2.8668,-2.3946,-1.9857,-1.7166,-1.5868,-1.5314,-1.5519,-1.646,-1.783,-1.9748,0.0,0.0,-2.8287,-3.0188,-3.2831,-3.768,-3.9689,-4.1306,-4.2835,-4.3272,-4.3774,-4.4539,-4.4582,-4.4997,-4.5959,-4.574,-4.5412,-4.5041,-4.5391,-4.5041,-4.3883,-4.4342,-4.4342,-4.3862,-4.3687,-4.3578,-4.3578,-4.3578,-4.3447,-4.3206,-4.3774,-4.2675,-4.058,-4.2696,-4.237,-4.0601,-4.2435,-4.287,-4.2427,-4.2094,-4.1122,-4.0167,-4.011,-3.9747,-3.921,-3.9494,-3.9888,-4.0279,-4.0279,-4.0018,-3.9671,-3.9282,-3.926,-3.9304,-3.9088,-3.9412,-3.9801,-3.9624,-3.9624,-3.9537,-3.8969,-3.9056,-3.9187,-3.8881,-3.8838,-3.8685,-3.8182,-3.8117,-3.7942,-3.7461,-3.6566,-3.5976,-3.5976,-3.5124,-3.4534,-3.4534,-3.4471,-3.423,-3.3814,-3.3658,-3.3197,-3.2416,-3.2487,-3.2214,-3.1381,-3.1362,-3.1296,-3.0817,-3.0952,-3.1372,-3.2037,-3.1838,-3.1695,-3.1703,-3.1502,-3.1412,-3.6746,-3.9713,-4.1971,-3.9995,-3.6413,-3.2175,-2.7304,-2.283,-1.8992,-1.6125,-1.5574,-1.5365,-1.4595,-1.5592,-1.6968,0.0,0.0,-2.1355,-2.6149,-2.7981,-3.0537,-3.5343,-3.7309,-3.9143,-4.135,-4.2551,-4.3578,-4.4517,-4.432,-4.4648,-4.574,-4.5347,-4.5172,-4.5303,-4.5456,-4.4976,-4.3883,-4.4495,-4.443,-4.3665,-4.3796,-4.3643,-4.3228,-4.3534,-4.3316,-4.2791,-4.3752,-4.2696,-4.045,-4.2696,-4.2348,-4.045,-4.2102,-4.2471,-4.1869,-4.1293,-4.035,-3.9488,-3.9763,-3.9486,-3.9078,-3.9473,-3.9757,-4.0149,-4.0279,-4.0279,-4.0214,-3.9628,-3.9888,-4.0192,-3.9606,-3.9909,-4.0192,-3.9842,-4.0017,-4.0083,-3.9406,-3.9537,-3.9668,-3.9318,-3.9253,-3.91,-3.8619,-3.8423,-3.816,-3.768,-3.6816,-3.6158,-3.6173,-3.5343,-3.4753,-3.4731,-3.4731,-3.4534,-3.4054,-3.3989,-3.3616,-3.2831,-3.2818,-3.2672,-3.1965,-3.204,-3.2007,-3.1715,-3.1539,-3.1683,-3.2117,-3.224,-3.2163,-3.2049,-3.1928,-3.1828,-3.4357,-3.7724,-3.9842,-3.7898,-3.4141,-2.9925,-2.6059,-2.1403,-1.7283,-1.5308,-1.5286,-1.5228,-1.4047,-1.5708,-1.747,-1.8002,-1.9641,-2.1969,-2.5178,-2.7477,-2.9707,-3.2154,-3.4098,-3.6391,-3.9296,-4.1765,-4.3578,-4.4517,-4.3731,-4.3818,-4.526,-4.4866,-4.4823,-4.5303,-4.5762,-4.5303,-4.3883,-4.4823,-4.4604,-4.3184,-4.3643,-4.3119,-4.1743,-4.2726,-4.2638,-4.1765,-4.2769,-4.2479,-4.1244,-4.2631,-4.2457,-4.1201,-4.1719,-4.1891,-4.1645,-4.0002,-3.9395,-3.9311,-3.847,-3.8437,-3.8814,-3.9078,-3.9494,-3.9757,-4.0149,-4.0279,-4.0279,-4.0279,-4.0279,-4.0279,-4.0279,-4.0279,-4.0279,-4.0279,-4.0279,-4.0279,-4.0257,-4.0257,-4.0279,-4.0257,-4.0257,-4.0105,-3.9624,-3.9143,-3.8663,-3.8182,-3.7079,-3.6472,-3.6631,-3.5983,-3.5391,-3.5212,-3.519,-3.5015,-3.4556,-3.4296,-3.3988,-3.3617,-3.3615,-3.3411,-3.2745,-3.3107,-3.2858,-3.2015,-3.2488,-3.2589,-3.2544,-3.2768,-3.2891,-3.2869,-3.2645,-3.2139,-2.8055,-3.0743,-3.2437,-3.0515,-2.8265,-2.5688,-2.231,0.0,-1.6983,-1.5271,-1.5077,-1.5077,-1.4628,-1.5747,-1.7353,-1.9039,-2.0204,-2.204,-2.5343,-2.7194,-2.9773,-3.3835,-3.8073,-4.1131,-4.2376,-4.2922,-4.3578,-4.4517,-4.3993,-4.4124,-4.526,-4.4845,-4.4823,-4.5303,-4.5129,-4.467,-4.3862,-4.4167,-4.4102,-4.3643,-4.3796,-4.3272,-4.2201,-4.2879,-4.2638,-4.1743,-4.2748,-4.2479,-4.1244,-4.2631,-4.2123,-4.0479,-4.1546,-4.1208,-4.0066,-3.9635,-3.9051,-3.8645,-3.8611,-3.8814,-3.9078,-3.921,-3.9625,-4.0149,-3.9888,-4.0018,-4.0279,-4.0279,-4.0279,-4.0279,-4.0279,-4.0279,-4.0279,-4.0279,-4.0279,-4.0279,-4.0279,-4.0279,-4.0279,-4.0279,-4.0279,-4.0017,-3.9209,-3.9117,-3.8766,-3.7745,-3.7308,-3.689,-3.6513,-3.6107,-3.5742,-3.5255,-3.5212,-3.5015,-3.4556,-3.4493,-3.4252,-3.3792,-3.433,-3.4313,-3.3465,-3.356,-3.3413,-3.3163,-3.2746,-3.2566,-3.2544,-3.2768,-3.2791,-3.2667,-3.2544,-3.2062,0.0,-2.5999,-2.7763,-2.6127,-2.4385,0.0,0.0,0.0,-1.6029,-1.5042,-1.5228,-1.5473,-1.515,-1.6137,-1.7448,-1.8698,-2.0204,-2.1996,-2.4306,-2.6346,-2.9202,-3.3677,-3.8451,-4.1655,-4.2544,-4.3032,-4.349,-4.4255,-4.3883,-4.4036,-4.4997,-4.4582,-4.4451,-4.4757,-4.4648,-4.4364,-4.3862,-4.4036,-4.3949,-4.3599,-4.3774,-4.325,-4.2158,-4.2857,-4.2638,-4.1743,-4.2551,-4.2413,0.0,-4.2167,-4.1791,-4.0872,-4.0951,-4.0529,-3.9876,-3.9113,-3.8687,-3.8437,-3.8437,-3.8946,-3.9363,-3.921,-3.9757,-4.0279,-4.0018,-4.0149,-4.0279,-4.0279,-4.0279,-4.0279,-4.0279,-4.0279,-4.0279,-4.0279,-4.0279,-4.0279,-4.0279,-4.0279,-4.0279,-4.0279,-4.0279,-4.0039,-3.9445,-3.9182,-3.8788,-3.8099,-3.7626,-3.7273,-3.6774,-3.6684,-3.629,-3.5801,-3.5605,-3.5299,-3.4818,-3.4622,-3.4403,-3.4076,-3.4514,-3.4594,-3.3848,-3.3975,-3.3935,-3.3808,-3.3492,-3.322,-3.2938,-3.2959,-3.2869,-3.2667,-3.2667,-3.2286,0.0,-2.2948,-2.4843,-2.3829,-2.1919,-1.9857,0.0,0.0,0.0,0.0,0.0,-1.6245,-1.5668,-1.6959,-1.8013,-1.7684,-1.9921,-2.1897,-2.2638,-2.5507,-2.8785,-3.2378,-3.621,-3.8973,-4.0209,-4.2015,-4.3359,-4.3818,-4.3468,-4.3621,-4.4539,-4.4124,-4.3862,-4.3862,-4.4233,-4.4233,-4.3818,-4.4255,-4.4014,-4.3075,-4.3578,-4.301,-4.1568,-4.2638,-4.2573,-4.1677,-4.2201,-4.242,-4.2376,-4.1532,-4.1711,-4.2087,-4.0252,-3.9897,-4.0422,-3.8883,-3.8437,-3.8681,-3.8437,-3.8835,-3.9625,-3.9363,-3.9757,-4.0279,-4.0279,-4.0279,-4.0279,-4.0279,-4.0279,-4.0279,-4.0279,-4.0279,-4.0279,-4.0279,-4.0279,-4.0279,-4.0279,-4.0279,-4.0279,-4.0279,-4.0257,-4.0256,-4.0312,-3.9462,-3.881,-3.8684,-3.7989,-3.7405,-3.733,-3.733,-3.7185,-3.6653,-3.6195,-3.5714,-3.5212,-3.4775,-3.4534,-3.4534,-3.4472,-3.4425,-3.4141,-3.4516,-3.4502,-3.3989,-3.4494,-3.4429,-3.3594,-3.3444,-3.3215,-3.2891,-3.2891,-3.2566,-1.4821,0.0,-1.7191,-1.6577,-1.602,-1.5561,0.0,0.0,0.0,0.0,0.0,0.0,0.0,-1.8311,-1.9378,-2.0421,-2.1751,-2.3263,-2.4908,-2.9829,-3.3486,-3.405,-3.8734,-4.1437,-3.9888,-4.1896,-4.3359,-4.3818,-4.3752,-4.3971,-4.4561,-4.4124,-4.3862,-4.3862,-4.2991,-4.2796,-4.3337,-4.3447,-4.301,-4.2049,-4.2922,-4.218,-4.0105,-4.1808,-4.207,-4.1219,-4.2049,-4.242,-4.242,-4.2174,-4.1624,-4.0904,-4.0421,-3.9896,-3.9529,-3.9163,-3.8946,-3.9078,-3.8946,-3.9231,-3.9757,-4.0018,-4.0149,-4.0279,-4.0279,-4.0279,-4.0279,-4.0279,-4.0279,-4.0279,-4.0279,-4.0279,-4.0279,-4.0279,-4.0279,-4.0279,-4.0279,-4.0279,-4.0279,-4.0279,-3.993,-3.973,-4.0211,-3.9508,-3.8495,-3.7802,-3.7539,-3.7407,-3.7374,-3.6959,-3.6544,-3.6173,-3.5692,-3.519,-3.4731,-3.4578,-3.4534,-3.4534,-3.4781,-3.4825,-3.4803,-3.4881,-3.4956,-3.4803,-3.4781,-3.4532,-3.3902,-3.3889,-3.3536,-3.2891,-3.2891,-3.2667,-1.2658,-1.3796,-1.4935,-1.5241,-1.4978,-1.4779,0.0,0.0,0.0,0.0,0.0,0.0,0.0,-1.8837,-1.9944,-2.0942,-2.2165,-2.4059,-2.7258,-3.107,-3.4183,-3.5811,-3.8825,-4.0935,-4.0908,-4.2261,-4.3359,-4.3818,-4.3665,-4.3665,-4.3927,-4.3328,-4.2818,-4.2601,-4.1826,-4.1783,-4.2536,-4.2202,-4.1596,-4.0645,-4.1754,-4.132,-3.9801,-4.1415,-4.1808,-4.1306,-4.1175,-4.135,-4.1721,-4.0911,-4.0604,-4.0713,-4.0077,-3.9837,-3.9773,-3.9295,-3.9341,-3.9363,-3.921,-3.9363,-3.9757,-4.0149,-4.0279,-4.0279,-4.0279,-4.0279,-4.0279,-4.0279,-4.0279,-4.0279,-4.0279,-4.0279,-4.0279,-4.0279,-4.0279,-4.0279,-4.0279,-4.0279,-4.0279,-4.0279,-4.0037,-3.9577,-3.9095,-3.8472,-3.8292,-3.8687,-3.8275,-3.7986,-3.8077,-3.7309,-3.6622,-3.5843,-3.5664,-3.5364,-3.4884,-3.484,-3.4753,-3.4534,-3.4646,-3.4758,-3.4758,-3.4934,-3.5128,-3.5455,-3.5169,-3.4992,-3.4693,-3.4463,-3.4016,-3.3412,-3.331,-3.2994,-1.2208,-1.3714,-1.5387,-1.6299,-1.5924,-1.5478,0.0,0.0,0.0,0.0,0.0,0.0,0.0,-1.9533,-2.0701,-2.1025,-2.2613,-2.5283,-2.944,-3.1365,-3.3636,-3.7079,-3.8183,-3.9584,-4.1805,-4.2601,-4.325,-4.3709,-4.311,-4.2849,-4.3053,-4.218,-4.1589,-4.1315,-4.0822,-4.0972,-4.1632,-4.1058,-4.0281,-3.9341,-4.0705,-4.0774,-3.9801,-4.102,-4.159,-4.1524,-4.0301,-4.0236,-4.0913,-3.9282,-3.9584,-4.0847,-3.9776,-3.9862,-4.0428,-3.9623,-3.9494,-3.9757,-3.9473,-3.9625,-3.9888,-4.0149,-4.0279,-4.0279,-4.0279,-4.0279,-4.0279,-4.0279,-4.0279,-4.0279,-4.0279,-4.0279,-4.0279,-4.0279,-4.0279,-4.0279,-4.0279,-4.0279,-4.0236,-3.9953,-4.0166,-3.9726,-3.7676,-3.7401,-3.8114,-4.0017,-3.961,-3.9023,-3.9064,-3.8055,-3.7035,-3.5951,-3.5938,-3.578,-3.5479,-3.5255,-3.5037,-3.4644,-3.4556,-3.4534,-3.4534,-3.4869,-3.5312,-3.5753,-3.5648,-3.5588,-3.552,-3.5106,-3.4647,-3.4119,-3.3845,-3.3492,-1.3277,-1.4612,-1.5531,-1.5113,-1.4864,-1.486,0.0,0.0,0.0,0.0,0.0,0.0,0.0,-2.228,-2.37,-2.3275,-2.5633,-2.8314,-3.0827,-3.3699,-3.5627,-3.5703,-3.9412,-4.1358,-4.0127,-4.132,-4.2332,-4.2786,-4.1731,-4.1409,-4.2094,-4.1546,-4.138,-4.1564,-4.0635,-4.0195,-4.0662,-4.1007,-4.055,-3.9625,-4.0973,-4.0978,-3.9689,-4.0672,-4.1109,-4.1109,-4.0891,-4.0869,-4.1,-4.076,-4.0563,-4.0388,-4.0171,-4.0192,-4.0258,-4.0171,-4.0149,-4.0149,-4.0149,-4.0149,-4.0279,-4.0279,-4.0279,-4.0279,-4.0279,-4.0279,-4.0279,-4.0279,-4.0279,-4.0279,-4.0279,-4.0279,-4.0279,-4.0279,-4.0279,-4.0279,-4.0279,-4.0279,-3.978,-3.821,-3.9194,-3.9726,-3.7676,-3.7401,-3.8114,-4.0017,-4.0185,-4.0128,-4.0017,-3.8553,-3.733,-3.7101,-3.6457,-3.6049,-3.6192,-3.5566,-3.5303,-3.5464,-3.4865,-3.4646,-3.4869,-3.5202,-3.5533,-3.573,-3.61,-3.5956,-3.552,-3.5451,-3.5152,-3.467,-3.4211,-3.3856,-1.2165,-1.354,-1.5034,-1.5574,-1.5935,-1.6594,0.0,0.0,0.0,0.0,0.0,0.0,0.0,-2.2657,-2.4421,-2.626,-2.9085,-3.1423,-3.2378,-3.4031,-3.5593,-3.6566,-3.8488,-3.9623,-3.9821,-4.07,-4.1315,-4.1529,-4.1143,-4.1022,-4.1115,-4.0899,-4.0796,-4.0669,-3.9533,-3.9014,-3.9146,-3.9125,-3.9042,-3.8745,-4.0082,-4.004,-3.8955,-4.017,-4.0607,-4.0585,-4.0061,-4.0126,-4.0585,-4.0039,-4.0017,-4.0279,-4.0279,-4.0279,-4.0279,-4.0279,-4.0279,-4.0279,-4.0279,-4.0279,-4.0279,-4.0279,-4.0279,-4.0279,-4.0279,-4.0279,-4.0279,-4.0279,-4.0279,-4.0279,-4.0279,-4.0279,-4.0279,-4.0279,-4.0279,-4.0366,-4.0298,-4.0278,-4.0105,-3.9087,-3.9708,-4.003,-3.9082,-3.9017,-3.9314,-4.0204,-3.9418,-3.9034,-3.9677,-3.8376,-3.7265,-3.6861,-3.661,-3.6377,-3.6208,-3.6114,-3.5786,-3.5109,-3.4756,-3.4534,-3.4758,-3.498,-3.5202,-3.5423,-3.5643,-3.5727,-3.5608,-3.5608,-3.5466,-3.5175,-3.467,-3.428,-1.1535,-1.2678,-1.451,-1.6059,0.0,0.0,0.0,0.0,0.0,0.0,0.0,0.0,-2.2121,-2.3621,-2.5508,-2.885,-3.1763,-3.3684,-3.4012,-3.4665,-3.5924,-3.7975,-3.7975,-3.8378,-4.0088,-4.0316,-4.0401,-4.0295,-4.0345,-4.0244,-4.0012,-3.9883,-3.9711,-3.9606,-3.8463,-3.7821,-3.795,-3.7485,-3.7445,-3.7721,-3.8937,-3.9218,-3.8549,-3.9757,-4.0279,-4.0236,-3.9493,-3.9602,-4.0214,-3.9471,-3.9602,-4.0279,-4.0279,-4.0279,-4.0279,-4.0279,-4.0279,-4.0279,-4.0279,-4.0279,-4.0279,-4.0279,-4.0279,-4.0279,-4.0279,-4.0279,-4.0279,-4.0279,-4.0279,-4.0279,-4.0279,-4.0279,-4.0279,-4.0279,-4.0279,-4.0344,-4.0338,-3.9973,-3.9758,-4.0184,-4.0356,-4.0228,-3.9946,-4.0162,-4.025,-4.029,-3.9066,-3.838,-3.9138,-3.835,-3.7384,-3.6883,-3.6894,-3.6653,-3.6173,-3.6487,-3.6158,-3.4928,-3.4753,-3.4622,-3.4534,-3.4869,-3.498,-3.498,-3.5312,-3.5533,-3.5753,-3.5753,-3.5659,-3.5466,-3.5092,-3.4635,-1.285,-1.3552,-1.427,-1.5849,-1.554,0.0,-2.0939,-1.9598,0.0,-2.308,-2.347,-2.3535,-2.5295,-2.6954,-2.8602,-3.0338,-3.2369,-3.4303,-3.5749,-3.7141,-3.8179,-3.9164,-3.9584,-4.015,-4.0979,-4.0074,-3.9538,-3.938,-3.8408,-3.8005,-3.8614,-3.7953,-3.8039,-3.911,-3.7996,-3.7487,-3.7869,-3.7466,-3.7317,-3.7338,-3.8616,-3.9088,-3.9024,-3.9909,-4.0279,-4.0279,-4.0192,-4.0214,-4.0279,-4.0192,-4.0214,-4.0279,-4.0279,-4.0279,-4.0279,-4.0279,-4.0279,-4.0279,-4.0279,-4.0279,-4.0279,-4.0279,-4.0279,-4.0279,-4.0279,-4.0279,-4.0279,-4.0279,-4.0279,-4.0279,-4.0279,-4.0279,-4.0279,-4.0279,-4.0279,-4.0279,-4.0236,-3.8914,-3.8098,-3.999,-4.0276,-4.0039,-3.9066,-3.9713,-4.0256,-4.0334,-4.0125,-3.9886,-3.9352,-3.8772,-3.8217,-3.8051,-3.7593,-3.7134,-3.6675,-3.6494,-3.6302,-3.5867,-3.5408,-3.4971,-3.4534,-3.4869,-3.498,-3.498,-3.5312,-3.5423,-3.5423,-3.5423,-3.54,-3.5356,-3.5165,-3.5024,-1.158,-1.2934,-1.49,-1.6829,-1.6764,0.0,0.0,-2.0797,-2.0941,-2.563,-2.533,-2.4557,-2.5481,-2.7323,-2.9204,-3.0872,-3.3014,-3.4793,-3.5935,-3.6825,-3.7384,-3.7681,-3.7999,-3.8235,-3.876,-3.8329,-3.8031,-3.8122,-3.7803,-3.7697,-3.7697,-3.7678,-3.7912,-3.8592,-3.7509,-3.7129,-3.7756,-3.6833,-3.6581,-3.6727,-3.7974,-3.8719,-3.889,-3.9602,-3.9668,-3.9406,-4.0017,-4.0105,-3.9842,-4.0148,-4.0279,-4.0279,-4.0279,-4.0279,-4.0279,-4.0279,-4.0279,-4.0279,-4.0279,-4.0279,-4.0279,-4.0279,-4.0279,-4.0279,-4.0279,-4.0279,-4.0279,-4.0279,-4.0279,-4.0279,-4.0279,-4.0279,-4.0279,-4.0279,-4.0279,-4.0344,-4.0254,-3.9693,-3.939,-4.0184,-4.0298,-4.0192,-3.9822,-3.9996,-4.0236,-4.0234,-3.9908,-3.9558,-3.9095,-3.8575,-3.8037,-3.7702,-3.7483,-3.7309,-3.7134,-3.7079,-3.6837,-3.6435,-3.5386,-3.484,-3.4949,-3.4799,-3.4646,-3.4646,-3.4758,-3.498,-3.5091,-3.5091,-3.5202,-3.54,-3.5233,-3.5092,-1.0964,-1.2509,-1.4914,-1.6881,0.0,0.0,-2.2302,-2.2456,-2.2981,-2.7363,-2.7209,-2.6431,-2.6842,-2.8125,-2.9732,-3.1275,-3.3278,-3.5022,-3.5956,-3.6515,-3.6804,-3.6804,-3.6804,-3.6933,-3.7317,-3.7189,-3.7126,-3.7234,-3.734,-3.7466,-3.734,-3.7465,-3.757,-3.8075,-3.7146,-3.6767,-3.7262,-3.6449,-3.6178,-3.6566,-3.7434,-3.8092,-3.8494,-3.91,-3.9143,-3.8881,-3.9537,-3.9624,-3.934,-3.9689,-3.9821,-3.9821,-3.9821,-3.9908,-4.0039,-4.0039,-4.0148,-4.0279,-4.0279,-4.0279,-4.0279,-4.0279,-4.0279,-4.0279,-4.0279,-4.0279,-4.0279,-4.0279,-4.0279,-4.0279,-4.0279,-4.0279,-4.0279,-4.0279,-4.0279,-4.0344,-4.0232,-4.0234,-4.0344,-4.0232,-4.0256,-4.0279,-4.0279,-4.0279,-4.0236,-4.0083,-3.9733,-3.9147,-3.8685,-3.8313,-3.792,-3.744,-3.7374,-3.7309,-3.7178,-3.7025,-3.6872,-3.6697,-3.5343,-3.4731,-3.519,-3.4775,-3.4534,-3.4534,-3.4534,-3.4646,-3.4869,-3.4869,-3.498,-3.5069,-3.5064,-3.5125,-1.149,-1.2498,-1.4,-1.5627,0.0,0.0,-2.4341,-2.469,-2.4697,-2.8049,-2.9299,-2.9839,-2.9839,-2.9861,-3.0285,-3.1503,-3.3215,-3.4888,-3.5914,-3.6494,-3.6784,-3.6784,-3.6784,-3.6912,-3.7317,-3.704,-3.6832,-3.7125,-3.6729,-3.6854,-3.7601,-3.678,-3.6758,-3.7579,-3.678,-3.6423,-3.6423,-3.6423,-3.6545,-3.6911,-3.6911,-3.7148,-3.7601,-3.8472,-3.8838,-3.8816,-3.8838,-3.8838,-3.8838,-3.8838,-3.8838,-3.8838,-3.8838,-3.9122,-3.9537,-3.9558,-3.9842,-4.0279,-4.0279,-4.0279,-4.0279,-4.0279,-4.0279,-4.0279,-4.0279,-4.0279,-4.0257,-4.0279,-4.0279,-4.0279,-4.0279,-4.0279,-4.0279,-4.0279,-4.0279,-4.0279,-4.0279,-4.0279,-4.0279,-4.0279,-4.0279,-4.0279,-4.0279,-4.0279,-4.0105,-3.9624,-3.9558,-3.9209,-3.8226,-3.8117,-3.792,-3.744,-3.7374,-3.7199,-3.6741,-3.626,-3.6173,-3.6653,-3.5343,-3.4731,-3.519,-3.4775,-3.4534,-3.4534,-3.4534,-3.4534,-3.4534,-3.4534,-3.4534,-3.4534,-3.4869,-3.5091,-1.2304,-1.3517,-1.5332,-1.7632,0.0,0.0,0.0,-2.4691,0.0,-3.0535,-3.068,-3.0006,-2.9784,-3.0611,-3.1148,-3.1165,-3.2621,-3.4066,-3.5004,-3.5273,-3.548,-3.579,-3.5832,-3.5957,-3.6331,-3.616,-3.6178,-3.6614,-3.6438,-3.6396,-3.6737,-3.6508,-3.6609,-3.7126,-3.6609,-3.6667,-3.7132,-3.6911,-3.676,-3.6796,-3.6796,-3.7035,-3.7493,-3.8095,-3.8139,-3.7855,-3.8532,-3.8641,-3.8357,-3.8685,-3.8838,-3.8838,-3.8838,-3.8925,-3.9078,-3.9427,-3.9646,-3.9821,-4.017,-4.0279,-4.0214,-3.9864,-3.9777,-3.9755,-3.9583,-3.9365,-3.9406,-4.0083,-4.0234,-4.0232,-4.0344,-4.0279,-4.0279,-4.0279,-4.0279,-4.0279,-4.0279,-4.0279,-4.0279,-4.0279,-4.0279,-4.0279,-4.0279,-4.0279,-4.0105,-3.9624,-3.9792,-3.9567,-3.8618,-3.824,-3.792,-3.744,-3.7374,-3.7199,-3.6741,-3.6566,-3.6391,-3.6195,-3.543,-3.5233,-3.5714,-3.4949,-3.4534,-3.4534,-3.4534,-3.4534,-3.4534,-3.4534,-3.4534,-3.4534,-3.4869,-3.5091,-1.3006,-1.457,-1.6736,-1.9447,-2.1231,-2.2789,-2.4523,-2.6043,-2.8293,-3.2509,-3.2017,-3.1077,-3.1741,-3.1806,-3.1951,-3.2364,-3.3163,-3.3962,-3.4403,-3.4652,-3.4797,-3.4879,-3.5167,-3.5331,-3.5143,-3.5692,-3.5955,-3.5749,-3.5832,-3.5929,-3.6089,-3.5917,-3.6135,-3.6589,-3.635,-3.647,-3.6828,-3.6589,-3.6459,-3.6413,-3.6413,-3.6544,-3.6828,-3.733,-3.7374,-3.7134,-3.7724,-3.7811,-3.7593,-3.8051,-3.8248,-3.8248,-3.8248,-3.8379,-3.8575,-3.8859,-3.91,-3.9318,-3.9602,-3.9711,-3.9646,-3.9362,-3.9274,-3.9253,-3.9104,-3.8908,-3.8947,-3.9365,-3.9968,-4.0184,-3.993,-4.0105,-4.0279,-4.0279,-4.0279,-4.0279,-4.0279,-4.0126,-4.0039,-4.0236,-4.0126,-4.0061,-4.0236,-4.0126,-3.9821,-3.934,-3.9051,-3.8803,-3.8407,-3.8065,-3.7767,-3.768,-3.7483,-3.7112,-3.6457,-3.6413,-3.6282,-3.5976,-3.5496,-3.543,-3.5954,-3.5037,-3.4534,-3.4534,-3.4534,-3.4534,-3.4534,-3.4534,-3.4534,-3.4534,-3.4758,-3.498,-1.3641,-1.5499,-1.7943,-2.0907,-2.2136,-2.3615,-2.7295,-2.8559,-3.0049,-3.3871,-3.3202,-3.2513,-3.4517,-3.3304,-3.2555,-3.4075,-3.4316,-3.424,-3.4046,-3.432,-3.4445,-3.4113,-3.4664,-3.4888,-3.4232,-3.5381,-3.577,-3.4728,-3.5093,-3.5445,-3.5488,-3.5287,-3.5496,-3.5954,-3.5976,-3.5976,-3.5976,-3.5911,-3.5889,-3.5889,-3.5845,-3.5867,-3.5911,-3.6413,-3.6631,-3.6631,-3.6631,-3.6631,-3.6653,-3.7134,-3.7287,-3.7265,-3.7287,-3.7571,-3.792,-3.8008,-3.8313,-3.8707,-3.8794,-3.8838,-3.8838,-3.8772,-3.8772,-3.8772,-3.8625,-3.8728,-3.8581,-3.8456,-3.927,-3.9986,-3.9493,-3.9842,-4.0214,-4.0214,-4.0236,-4.0279,-4.0279,-3.9886,-3.9689,-4.0192,-3.9886,-3.9711,-4.0192,-3.9908,-3.9427,-3.8903,-3.8051,-3.7593,-3.7986,-3.7702,-3.7593,-3.8008,-3.7636,-3.7025,-3.6107,-3.5998,-3.5976,-3.5976,-3.5496,-3.543,-3.5954,-3.5081,-3.4556,-3.4534,-3.4534,-3.4534,-3.4534,-3.4534,-3.4534,-3.4534,-3.4534,-3.4646,-1.4704,-1.5891,0.0,-2.0864,-2.3466,-2.6322,-3.0404,-3.0895,-3.1048,-3.3029,-3.2705,-3.2318,-3.3458,-3.3176,-3.2657,-3.2475,-3.2455,-3.2602,-3.2975,-3.3099,-3.3389,-3.3989,-3.4274,-3.4295,-3.4072,-3.4261,-3.4475,-3.4547,-3.454,-3.4847,-3.5466,-3.5496,-3.5613,-3.5954,-3.5976,-3.5976,-3.5976,-3.5561,-3.5364,-3.5364,-3.5015,-3.5015,-3.5386,-3.5889,-3.6129,-3.6129,-3.6129,-3.6129,-3.6151,-3.6653,-3.661,-3.6304,-3.6697,-3.6675,-3.6522,-3.7265,-3.7593,-3.7811,-3.8575,-3.8838,-3.8772,-3.8379,-3.827,-3.8124,-3.7768,-3.7653,-3.7833,-3.826,-3.8472,-3.8744,-3.934,-3.9624,-3.9711,-3.9711,-3.9995,-4.0279,-4.0279,-3.9886,-3.9689,-4.0192,-3.9886,-3.9711,-4.0192,-4.0192,-3.9949,-3.9324,-3.8437,-3.7977,-3.7956,-3.7911,-3.7833,-3.7571,-3.744,-3.7156,-3.6588,-3.6195,-3.5976,-3.5976,-3.5496,-3.543,-3.5954,-3.5386,-3.4884,-3.4534,-3.4534,-3.4534,-3.4534,-3.4534,-3.4534,-3.4534,-3.4534,-3.4646,-1.4104,0.0,0.0,-2.2993,0.0,-2.8416,-3.0482,-3.12,-3.1598,-3.2569,-3.2616,-3.2663,-3.3304,-3.3001,-3.2462,-3.2222,-3.21,-3.2043,-3.2085,-3.2363,-3.2591,-3.2747,-3.3299,-3.357,-3.3017,-3.3621,-3.3671,-3.3156,-3.3428,-3.3652,-3.3785,-3.3917,-3.4227,-3.4578,-3.4578,-3.4578,-3.4578,-3.4316,-3.4185,-3.4185,-3.3945,-3.4076,-3.4556,-3.5277,-3.5605,-3.5605,-3.5605,-3.5605,-3.5648,-3.6151,-3.6195,-3.5998,-3.6238,-3.6195,-3.6063,-3.6784,-3.7046,-3.7156,-3.7876,-3.8139,-3.8095,-3.7833,-3.7745,-3.7745,-3.7414,-3.7406,-3.7483,-3.7819,-3.7783,-3.787,-3.8369,-3.8864,-3.9209,-3.9209,-3.9755,-4.0148,-3.9689,-3.9384,-3.9274,-3.9537,-3.9384,-3.9274,-3.9537,-3.9384,-3.9117,-3.8473,-3.8043,-3.7867,-3.7989,-3.7867,-3.7745,-3.7724,-3.7309,-3.685,-3.6391,-3.6107,-3.5976,-3.5976,-3.5932,-3.6042,-3.6304,-3.6063,-3.5583,-3.4862,-3.4622,-3.4534,-3.4534,-3.4534,-3.4534,-3.4534,-3.4534,-3.4646,-1.3125,0.0,-2.0403,-2.5049,-2.7774,-2.93,-2.9524,-3.0521,-3.1585,-3.2006,-3.2463,-3.2965,-3.3215,-3.2551,-3.1975,-3.2138,-3.1892,-3.1588,-3.1298,-3.1788,-3.1913,-3.1402,-3.2353,-3.2636,-3.1839,-3.2912,-3.3001,-3.1635,-3.2041,-3.2255,-3.1868,-3.2057,-3.2441,-3.294,-3.3027,-3.3071,-3.3071,-3.2984,-3.2984,-3.3071,-3.3071,-3.3268,-3.3704,-3.4491,-3.4884,-3.4949,-3.4862,-3.4884,-3.4993,-3.5496,-3.5714,-3.5736,-3.5801,-3.578,-3.578,-3.626,-3.6435,-3.65,-3.6981,-3.7134,-3.7134,-3.7134,-3.7156,-3.7178,-3.7014,-3.7199,-3.7385,-3.7265,-3.724,-3.7378,-3.7299,-3.8,-3.8685,-3.8472,-3.9318,-3.9799,-3.9012,-3.8772,-3.8728,-3.8816,-3.8838,-3.8859,-3.8947,-3.8488,-3.7964,-3.7571,-3.744,-3.7527,-3.792,-3.7636,-3.7505,-3.7833,-3.7156,-3.65,-3.5998,-3.5976,-3.5998,-3.6085,-3.6479,-3.6741,-3.6806,-3.6741,-3.626,-3.5364,-3.4884,-3.46,-3.4534,-3.4534,-3.4534,-3.4534,-3.4534,-3.4534,-1.3214,0.0,-2.1797,0.0,-2.587,-2.7607,-2.9343,-2.9805,-3.0028,-3.0615,-3.1288,-3.1848,-3.2061,-3.1338,-3.0706,-3.0664,-3.0474,-3.0387,-3.0719,-3.0822,-3.0988,-3.134,-3.1532,-3.1553,-3.1491,-3.1594,-3.1704,-3.1407,-3.1183,-3.1168,-3.1508,-3.1614,-3.1868,-3.2481,-3.2853,-3.3071,-3.3071,-3.2678,-3.2678,-3.3071,-3.3071,-3.3093,-3.3158,-3.3289,-3.3573,-3.3967,-3.353,-3.3595,-3.4032,-3.4513,-3.4709,-3.4753,-3.5146,-3.5059,-3.4775,-3.5027,-3.5179,-3.5474,-3.5626,-3.5917,-3.6151,-3.5917,-3.6143,-3.6347,-3.5607,-3.6317,-3.7259,-3.6524,-3.6839,-3.732,-3.7032,-3.7566,-3.7972,-3.7292,-3.8065,-3.8991,-3.8859,-3.851,-3.8335,-3.875,-3.8838,-3.8969,-3.9384,-3.8707,-3.8095,-3.8029,-3.7658,-3.7396,-3.7461,-3.7418,-3.7243,-3.6915,-3.6762,-3.65,-3.5998,-3.5976,-3.6151,-3.6566,-3.6653,-3.6872,-3.7265,-3.6915,-3.6435,-3.5867,-3.5364,-3.4928,-3.4534,-3.4534,-3.4534,-3.4534,-3.4534,-3.4534,-1.3795,-1.6958,-2.0033,0.0,-2.4973,-2.5873,-2.8459,-2.8828,-2.8946,-2.9771,-3.0061,-3.0218,-3.0554,-3.0113,-2.9614,-2.9411,-2.9538,-2.9684,-2.9891,-3.0244,-3.0579,-3.0574,-3.0914,-3.1021,-3.0808,-3.0808,-3.081,-3.0664,-3.0685,-3.0706,-3.0742,-3.108,-3.1206,-3.1176,-3.1607,-3.1736,-3.1456,-3.1262,-3.1133,-3.1068,-3.143,-3.1793,-3.2075,-3.2158,-3.2678,-3.3377,-3.3158,-3.3355,-3.3814,-3.4032,-3.4272,-3.4534,-3.4753,-3.4709,-3.4578,-3.4923,-3.5098,-3.5277,-3.5664,-3.5998,-3.6158,-3.6085,-3.583,-3.5648,-3.5275,-3.4976,-3.504,-3.6522,-3.6448,-3.6102,-3.5951,-3.6458,-3.7002,-3.6544,-3.7262,-3.8029,-3.8029,-3.8073,-3.8182,-3.8379,-3.8423,-3.8488,-3.8707,-3.8379,-3.8008,-3.7745,-3.7505,-3.7374,-3.7374,-3.7374,-3.7199,-3.6741,-3.6457,-3.6195,-3.5976,-3.5976,-3.6173,-3.6653,-3.6937,-3.7156,-3.7374,-3.7178,-3.685,-3.6391,-3.5605,-3.4971,-3.4534,-3.4534,-3.4534,-3.4534,-3.4534,-3.4534,0.0,0.0,-1.7388,-2.1816,-2.2905,-2.3573,-2.6215,-2.7046,-2.7615,-2.8679,-2.8781,-2.8775,-2.9111,-2.8969,-2.8807,-2.8607,-2.8897,-2.9125,-2.9125,-2.962,-2.9828,-2.9642,-2.9952,-3.0158,-2.9931,-2.9931,-2.995,-3.0024,-3.0028,-3.0028,-3.0125,-3.0434,-3.0434,-3.0125,-3.0466,-3.053,-3.0295,-3.0295,-3.0125,-2.9806,-3.0199,-3.0665,-3.124,-3.1084,-3.1701,-3.27,-3.27,-3.2984,-3.3442,-3.3442,-3.3726,-3.4163,-3.4294,-3.4338,-3.4403,-3.4749,-3.4923,-3.5081,-3.5337,-3.5627,-3.5945,-3.5889,-3.5475,-3.4975,-3.4912,-3.4475,-3.4358,-3.6479,-3.6457,-3.5629,-3.5468,-3.5908,-3.647,-3.6242,-3.6806,-3.7374,-3.7374,-3.7658,-3.7986,-3.8248,-3.8182,-3.8139,-3.827,-3.8182,-3.7942,-3.7461,-3.7374,-3.7374,-3.7374,-3.7374,-3.7156,-3.6566,-3.6195,-3.5911,-3.578,-3.5889,-3.6173,-3.6653,-3.7134,-3.7374,-3.7374,-3.7374,-3.7156,-3.6697,-3.5954,-3.5299,-3.4687,-3.4578,-3.4534,-3.4534,-3.4534,-3.4534,0.0,-1.2485,0.0,-1.6117,-1.8172,-2.0307,-2.208,-2.384,-2.5483,-2.7104,-2.7577,-2.7725,-2.7746,-2.8244,-2.8607,-2.8607,-2.8628,-2.8649,-2.8649,-2.8669,-2.869,-2.869,-2.869,-2.869,-2.869,-2.869,-2.8956,-2.9656,-2.8703,-2.8598,-3.0083,-2.9296,-2.921,-3.0104,-3.0327,-3.0563,-3.0785,-3.0785,-3.0785,-3.0764,-3.0338,-3.0461,-3.1197,-3.0113,-3.0421,-3.1695,-3.1695,-3.1979,-3.2459,-3.2459,-3.2721,-3.318,-3.3639,-3.3835,-3.3901,-3.4069,-3.4354,-3.4444,-3.4108,-3.4242,-3.4553,-3.4604,-3.4597,-3.4547,-3.4349,-3.566,-3.6964,-3.6438,-3.6709,-3.7057,-3.634,-3.6741,-3.7101,-3.6427,-3.6806,-3.7374,-3.7374,-3.7396,-3.768,-3.8619,-3.8423,-3.8248,-3.8728,-3.8401,-3.7942,-3.7461,-3.7374,-3.7374,-3.7374,-3.7374,-3.7025,-3.6107,-3.5976,-3.578,-3.5277,-3.5692,-3.6173,-3.6653,-3.7134,-3.7374,-3.7374,-3.7374,-3.7156,-3.6697,-3.6653,-3.6151,-3.5168,-3.4731,-3.4534,-3.4534,-3.4534,-3.4534,0.0,0.0,0.0,-1.5518,-1.6547,-1.758,-2.0175,-2.2109,-2.3668,-2.4892,-2.595,-2.6653,-2.6493,-2.7212,-2.7655,-2.7345,-2.78,-2.8173,-2.8173,-2.8421,-2.8607,-2.8607,-2.8607,-2.8607,-2.8607,-2.8607,-2.879,-2.9258,-2.8418,-2.8486,-2.9615,-2.8957,-2.8742,-2.9189,-2.9607,-2.9842,-2.9913,-2.9509,-2.9509,-2.961,-2.9737,-2.9986,-3.0236,-3.0019,-3.0162,-3.0665,-3.0867,-3.1424,-3.2416,-3.2488,-3.2598,-3.29,-3.3181,-3.3353,-3.3485,-3.3679,-3.405,-3.4513,-3.4289,-3.4401,-3.4444,-3.4528,-3.5347,-3.6334,-3.6302,-3.629,-3.6413,-3.6868,-3.6706,-3.636,-3.6037,-3.6297,-3.672,-3.697,-3.7144,-3.7374,-3.7374,-3.7374,-3.7483,-3.7609,-3.8146,-3.8298,-3.774,-3.8168,-3.8313,-3.7505,-3.7374,-3.7374,-3.7374,-3.7374,-3.7134,-3.65,-3.6435,-3.6369,-3.6173,-3.6326,-3.6631,-3.7112,-3.7287,-3.7374,-3.7374,-3.7374,-3.7309,-3.7134,-3.685,-3.6195,-3.5212,-3.5037,-3.4818,-3.4534,-3.4534,-3.4534,-1.0151,0.0,0.0,-1.3535,-1.4231,-1.4959,-1.7698,-1.9889,-2.1627,-2.2736,-2.4339,-2.553,-2.548,-2.6139,-2.6609,-2.6372,-2.6848,-2.7282,-2.7448,-2.7738,-2.7986,-2.8131,-2.825,-2.825,-2.825,-2.825,-2.8411,-2.8873,-2.8178,-2.8232,-2.9261,-2.853,-2.8232,-2.8603,-2.8824,-2.9056,-2.9105,-2.8661,-2.8562,-2.8906,-2.8906,-2.9136,-2.9677,-2.9484,-2.9627,-3.0125,-3.0205,-3.0772,-3.1832,-3.2184,-3.2252,-3.2317,-3.2469,-3.2771,-3.3161,-3.3224,-3.379,-3.4493,-3.4491,-3.4534,-3.4556,-3.4484,-3.5417,-3.6449,-3.6894,-3.656,-3.6177,-3.7163,-3.6881,-3.6351,-3.6351,-3.6503,-3.6741,-3.7309,-3.7374,-3.7374,-3.7374,-3.7253,-3.7197,-3.7126,-3.7919,-3.8326,-3.7277,-3.8065,-3.851,-3.7527,-3.7374,-3.7374,-3.7374,-3.7374,-3.7199,-3.6741,-3.6697,-3.6697,-3.6697,-3.6697,-3.6894,-3.7352,-3.7253,-3.7275,-3.7275,-3.7275,-3.7275,-3.7275,-3.709,-3.6522,-3.5714,-3.5364,-3.4971,-3.4534,-3.4534,-3.4534,0.0,0.0,0.0,-0.984,-1.0979,-1.24,-1.4482,-1.6908,-1.9243,-2.0688,-2.2596,-2.4052,-2.4381,-2.4977,-2.5539,-2.5799,-2.5854,-2.6061,-2.6609,-2.6692,-2.6838,-2.7274,-2.7431,-2.762,-2.76,-2.76,-2.7862,-2.8615,-2.783,-2.7765,-2.8859,-2.8082,-2.783,-2.8292,-2.8313,-2.8327,-2.8587,-2.8152,-2.8152,-2.8587,-2.7717,-2.8181,-2.9635,-2.8437,-2.8739,-3.0024,-2.9779,-2.9982,-3.0529,-3.1229,-3.1629,-3.157,-3.1819,-3.2162,-3.2652,-3.2814,-3.3595,-3.4515,-3.4515,-3.4534,-3.4466,-3.4545,-3.4539,-3.4733,-3.6025,-3.6351,-3.6578,-3.7221,-3.7374,-3.7352,-3.7374,-3.7374,-3.7374,-3.7374,-3.7374,-3.7374,-3.7374,-3.7154,-3.704,-3.7493,-3.7967,-3.814,-3.7665,-3.8239,-3.8488,-3.7527,-3.7374,-3.7374,-3.7374,-3.7374,-3.7199,-3.6762,-3.6719,-3.6719,-3.6719,-3.6719,-3.6915,-3.7352,-3.7154,-3.6911,-3.6911,-3.6911,-3.6911,-3.6911,-3.7275,-3.7156,-3.6697,-3.5714,-3.5015,-3.4556,-3.4556,-3.4534,-0.937,0.0,0.0,0.0,0.0,0.0,-1.262,-1.4934,-1.722,-1.8507,-2.0281,-2.1797,-2.2618,-2.3329,-2.3773,-2.3656,-2.5351,-2.6928,-2.7556,-2.7619,-2.7462,-2.718,-2.7159,-2.7012,-2.6655,-2.6613,-2.6858,-2.7393,-2.6533,-2.6558,-2.7683,-2.7721,-2.7907,-2.84,-2.8021,-2.804,-2.8697,-2.8321,-2.8223,-2.8404,-2.8152,-2.828,-2.8894,-2.8545,-2.8853,-2.9495,-2.9442,-2.9615,-2.9799,-3.1034,-3.1417,-3.1365,-3.1505,-3.1869,-3.2126,-3.1632,-3.2724,-3.4515,-3.4491,-3.4534,-3.4534,-3.451,-3.4793,-3.5343,-3.6136,-3.6312,-3.6326,-3.7156,-3.7134,-3.6959,-3.7287,-3.7374,-3.7374,-3.7374,-3.7374,-3.7374,-3.7374,-3.7154,-3.6954,-3.7083,-3.7616,-3.7913,-3.7191,-3.774,-3.8095,-3.7461,-3.7374,-3.7374,-3.7374,-3.7374,-3.733,-3.7199,-3.7199,-3.7199,-3.7199,-3.7199,-3.7243,-3.7374,-3.7253,-3.7275,-3.7275,-3.7275,-3.7275,-3.7275,-3.7374,-3.7156,-3.6697,-3.6413,-3.6042,-3.5561,-3.519,-3.5015,0.0,0.0,-0.9098,-0.9868,0.0,0.0,-1.1807,-1.3672,-1.552,-1.6779,-1.8485,-2.0065,-2.0892,-2.1564,-2.2062,-2.2512,-2.4075,-2.5612,-2.6445,-2.67,-2.6806,-2.6563,-2.6653,-2.661,-2.6525,-2.6525,-2.6615,-2.6993,-2.6367,-2.6302,-2.6928,-2.7036,-2.7205,-2.7607,-2.7232,-2.7352,-2.7915,-2.7463,-2.7473,-2.7944,-2.7099,-2.7145,-2.8048,-2.8048,-2.8297,-2.8731,-2.8948,-2.9204,-2.9466,-3.0295,-3.0777,-3.104,-3.0867,-3.123,-3.1825,-3.0872,-3.2169,-3.4425,-3.3551,-3.3878,-3.4405,-3.4229,-3.4556,-3.5194,-3.5676,-3.5808,-3.5801,-3.6566,-3.6588,-3.65,-3.6981,-3.709,-3.7134,-3.733,-3.7374,-3.7374,-3.7374,-3.7275,-3.7032,-3.6932,-3.7422,-3.7696,-3.6997,-3.7544,-3.7942,-3.7461,-3.7374,-3.7374,-3.7374,-3.7374,-3.7374,-3.7374,-3.7374,-3.7374,-3.7374,-3.7374,-3.7374,-3.7374,-3.7253,-3.7154,-3.7154,-3.7154,-3.7154,-3.7154,-3.7374,-3.7243,-3.6981,-3.6784,-3.6326,-3.5627,-3.5146,-3.4928,0.0,0.0,0.0,-0.9836,-0.9955,0.0,-1.1439,-1.2771,-1.4048,-1.5203,-1.6896,-1.8361,-1.9099,-1.9628,-2.0352,-2.1527,-2.2122,-2.2892,-2.4214,-2.4892,-2.5296,-2.5572,-2.5851,-2.6173,-2.6648,-2.6691,-2.6713,-2.6756,-2.6622,-2.6576,-2.6619,-2.6322,-2.6301,-2.6615,-2.6387,-2.6491,-2.6928,-2.6305,-2.6422,-2.7179,-2.5614,-2.5695,-2.7262,-2.7303,-2.7572,-2.8028,-2.838,-2.8844,-2.9338,-2.9274,-2.9947,-3.0843,-3.0421,-3.0846,-3.1527,-3.0496,-3.1866,-3.3915,-3.234,-3.2944,-3.4295,-3.3857,-3.4031,-3.4622,-3.5081,-3.5168,-3.5233,-3.5736,-3.5932,-3.6063,-3.65,-3.661,-3.6719,-3.7134,-3.7265,-3.7287,-3.7221,-3.7309,-3.7253,-3.6967,-3.7213,-3.7385,-3.6997,-3.7501,-3.7876,-3.744,-3.7374,-3.7374,-3.7374,-3.7374,-3.7374,-3.7374,-3.7374,-3.7374,-3.7374,-3.7374,-3.7374,-3.7374,-3.7154,-3.6932,-3.6932,-3.6932,-3.6932,-3.6932,-3.7275,-3.7374,-3.7374,-3.6959,-3.6282,-3.5364,-3.4906,-3.4644,-1.0684,-1.049,-1.03,-1.0127,-1.0643,0.0,-1.0321,-1.1451,-1.2712,-1.3048,-1.4038,-1.5215,-1.6517,-1.7266,-1.7876,-1.8522,-1.9295,-2.0719,-2.3217,-2.4513,-2.4911,-2.3887,-2.4399,-2.4823,-2.4648,-2.4708,-2.4941,-2.5496,-2.5866,-2.6173,-2.6563,-2.6303,-2.6388,-2.6883,-2.6619,-2.6653,-2.6928,-2.6978,-2.6949,-2.6703,-2.6754,-2.694,-2.7262,-2.7634,-2.8146,-2.8781,-2.8488,-2.8676,-2.9235,-2.8731,-2.9406,-3.0811,-3.1208,-3.1381,-3.1549,-3.1334,-3.1698,-3.2233,-3.2685,-3.3225,-3.3857,-3.425,-3.4447,-3.4622,-3.5081,-3.4949,-3.4753,-3.5212,-3.5648,-3.5976,-3.6085,-3.6107,-3.6129,-3.6216,-3.6544,-3.6719,-3.6326,-3.685,-3.7265,-3.6796,-3.7079,-3.7362,-3.7275,-3.7461,-3.7483,-3.7396,-3.7374,-3.7374,-3.7374,-3.7374,-3.7374,-3.7374,-3.7374,-3.7374,-3.7374,-3.7374,-3.7374,-3.7374,-3.7374,-3.7253,-3.7253,-3.7253,-3.7253,-3.7253,-3.7374,-3.7374,-3.7374,-3.7287,-3.6959,-3.6391,-3.5911,-3.5474,-1.084,-1.0671,-1.0415,-1.0389,-1.0601,0.0,0.0,-1.1093,-1.192,-1.2051,-1.2982,-1.3873,-1.4526,-1.5303,-1.6046,-1.6484,-1.7224,-1.8152,-1.9636,-2.1217,-2.2197,-2.2046,-2.2674,-2.3289,-2.3781,-2.4097,-2.4313,-2.4449,-2.4973,-2.5213,-2.5182,-2.5287,-2.5608,-2.6086,-2.6,-2.6065,-2.6504,-2.7003,-2.7147,-2.6949,-2.7087,-2.7098,-2.7118,-2.7232,-2.7606,-2.8313,-2.7735,-2.8105,-2.9084,-2.8006,-2.8438,-2.9789,-3.0132,-3.0767,-3.1592,-3.1564,-3.162,-3.1632,-3.2165,-3.2703,-3.318,-3.3639,-3.3967,-3.425,-3.4731,-3.4709,-3.4578,-3.4797,-3.5059,-3.5299,-3.5517,-3.5583,-3.5714,-3.6216,-3.6326,-3.6326,-3.6326,-3.65,-3.6675,-3.6697,-3.6872,-3.7112,-3.733,-3.7374,-3.7374,-3.7374,-3.7374,-3.7374,-3.7374,-3.7374,-3.7374,-3.7374,-3.7374,-3.7374,-3.7374,-3.7374,-3.7374,-3.7374,-3.7374,-3.7374,-3.7374,-3.7374,-3.7374,-3.7374,-3.7374,-3.7374,-3.7374,-3.7156,-3.6784,-3.6326,-3.5823,-3.5321,-1.0998,-1.0838,-1.0618,-1.0573,-1.0439,-1.0401,0.0,0.0,0.0,-1.1333,-1.2159,-1.293,-1.2973,-1.3608,-1.4297,-1.4738,-1.5191,-1.554,-1.5775,-1.7046,-1.8553,-2.0002,-2.0665,-2.1403,-2.266,-2.3525,-2.3816,-2.3303,-2.3896,-2.4025,-2.3578,-2.4003,-2.448,-2.493,-2.5039,-2.533,-2.5937,-2.6648,-2.7097,-2.7133,-2.6949,-2.6991,-2.7096,-2.6889,-2.7035,-2.7495,-2.6817,-2.7441,-2.8623,-2.7551,-2.7693,-2.8538,-2.8739,-2.9688,-3.1075,-3.1164,-3.135,-3.1476,-3.1586,-3.1979,-3.2608,-3.2918,-3.3399,-3.3857,-3.4272,-3.4447,-3.4534,-3.4534,-3.4534,-3.46,-3.4971,-3.5081,-3.5277,-3.6085,-3.6042,-3.5911,-3.6216,-3.6195,-3.6195,-3.65,-3.6631,-3.6806,-3.7178,-3.7243,-3.7221,-3.7112,-3.7112,-3.7134,-3.7243,-3.7243,-3.7287,-3.7374,-3.7374,-3.7374,-3.7374,-3.7374,-3.7374,-3.7374,-3.7374,-3.7374,-3.7374,-3.7374,-3.7374,-3.7374,-3.7374,-3.733,-3.7243,-3.6872,-3.6435,-3.5954,-3.5452,-3.4971,-1.1315,-1.1768,-1.1913,-1.0398,-1.0989,-1.1482,-0.948,0.0,-1.0439,-1.0149,0.0,-1.1013,-1.1997,0.0,0.0,-1.2683,-1.2828,-1.3102,-1.3665,-1.3846,-1.4907,-1.7382,-1.8218,-1.902,-2.0047,-2.124,-2.1861,-2.1544,-2.2616,-2.3137,-2.2741,-2.3095,-2.3566,-2.3929,-2.4459,-2.4764,-2.4955,-2.585,-2.6445,-2.6671,-2.6836,-2.7159,-2.7558,-2.7274,-2.7275,-2.731,-2.6785,-2.6773,-2.7056,-2.7635,-2.7757,-2.7598,-2.8485,-2.8977,-2.9149,-2.9721,-3.0296,-3.0895,-3.1455,-3.1957,-3.2459,-3.2918,-3.3399,-3.3814,-3.3857,-3.4185,-3.4534,-3.4534,-3.4534,-3.4534,-3.4578,-3.46,-3.4622,-3.4731,-3.5037,-3.519,-3.484,-3.5736,-3.65,-3.6129,-3.6391,-3.6719,-3.6762,-3.6762,-3.6631,-3.6195,-3.6129,-3.6282,-3.6719,-3.6762,-3.6937,-3.733,-3.7374,-3.7374,-3.7374,-3.7374,-3.7374,-3.7374,-3.7374,-3.7374,-3.7374,-3.7374,-3.7374,-3.7374,-3.7374,-3.7178,-3.6762,-3.6719,-3.6435,-3.5954,-3.5452,-3.4971,-1.2424,-1.2788,-1.275,-1.1704,-1.179,-1.179,-1.0453,-1.0141,-1.0014,-0.9599,0.0,0.0,0.0,0.0,0.0,0.0,-1.3129,-1.3456,-1.3807,-1.3663,-1.4298,-1.6336,-1.6951,-1.7798,-1.918,-1.9306,-1.9401,-1.9754,-2.0288,-2.0658,-2.0834,-2.159,-2.2241,-2.2667,-2.3402,-2.4093,-2.464,-2.5272,-2.5841,-2.622,-2.6041,-2.63,-2.7035,-2.666,-2.6744,-2.7225,-2.6564,-2.6222,-2.6304,-2.7003,-2.7436,-2.7686,-2.7191,-2.7735,-2.8807,-2.9053,-2.9829,-3.0765,-3.1105,-3.152,-3.2022,-3.2503,-3.2984,-3.342,-3.3704,-3.3945,-3.4163,-3.4447,-3.4534,-3.4534,-3.4534,-3.4534,-3.46,-3.4862,-3.4862,-3.484,-3.4906,-3.519,-3.5452,-3.5517,-3.5692,-3.5823,-3.5823,-3.6085,-3.6304,-3.6369,-3.6151,-3.6151,-3.6631,-3.6697,-3.6872,-3.733,-3.7374,-3.7374,-3.7374,-3.7374,-3.7374,-3.7374,-3.7374,-3.7265,-3.7003,-3.7243,-3.7374,-3.7374,-3.7374,-3.7156,-3.6697,-3.6413,-3.602,-3.5517,-3.5299,-3.4971,-1.3605,-1.3757,-1.3494,-1.2711,-1.2269,-1.1898,-1.1108,-1.0407,-0.9891,-0.9836,-1.0407,0.0,0.0,0.0,-1.2313,-1.2537,0.0,-1.3218,-1.3682,-1.357,-1.3942,-1.5241,-1.598,-1.6691,-1.7549,-1.7368,-1.7346,-1.7765,-1.8161,-1.861,-1.892,-1.994,-2.0839,-2.1515,-2.222,-2.308,-2.399,-2.4596,-2.5117,-2.5564,-2.5276,-2.5483,-2.6187,-2.5817,-2.5941,-2.6368,-2.5653,-2.5427,-2.5638,-2.5936,-2.6563,-2.7189,-2.6589,-2.717,-2.8369,-2.8433,-2.93,-3.0395,-3.0646,-3.1192,-3.1891,-3.2263,-3.2787,-3.3333,-3.3683,-3.3879,-3.4076,-3.4425,-3.4534,-3.4534,-3.4534,-3.4534,-3.46,-3.4949,-3.4775,-3.4622,-3.4949,-3.4862,-3.4818,-3.5146,-3.5212,-3.5255,-3.5386,-3.5605,-3.5845,-3.6063,-3.5801,-3.5801,-3.6413,-3.65,-3.6675,-3.7134,-3.7199,-3.7134,-3.7003,-3.6981,-3.6981,-3.6981,-3.6981,-3.685,-3.65,-3.6937,-3.7199,-3.7199,-3.7309,-3.7156,-3.6697,-3.6347,-3.5911,-3.5408,-3.5146,-3.484,-1.4528,-1.462,-1.4228,-1.2745,-1.2429,-1.2049,-1.0698,-1.0137,-1.0186,-1.1138,-1.093,-1.0816,-1.1425,-1.1175,-1.0872,0.0,-1.0972,0.0,0.0,-1.2842,-1.3166,-1.3882,-1.4984,-1.5271,-1.4173,-1.5429,-1.6038,-1.5351,-1.6708,-1.7543,-1.7441,-1.8331,-1.9325,-2.0501,-2.0907,-2.1589,-2.2533,-2.3474,-2.4152,-2.4662,-2.4791,-2.5035,-2.526,-2.5005,-2.4695,-2.4257,-2.3988,-2.4306,-2.4975,-2.469,-2.4893,-2.5661,-2.7329,-2.7656,-2.7381,-2.7547,-2.8412,-2.9598,-3.0057,-3.1171,-3.2372,-3.2372,-3.3005,-3.377,-3.3792,-3.4119,-3.4513,-3.4513,-3.4534,-3.4534,-3.4534,-3.4534,-3.4534,-3.4534,-3.4534,-3.4534,-3.4534,-3.4884,-3.519,-3.5212,-3.5212,-3.5364,-3.5845,-3.5539,-3.5081,-3.4666,-3.4578,-3.4906,-3.5867,-3.5998,-3.6173,-3.6653,-3.6719,-3.6522,-3.6042,-3.602,-3.602,-3.602,-3.602,-3.5998,-3.5998,-3.6457,-3.6719,-3.6719,-3.7156,-3.7156,-3.6697,-3.6675,-3.6435,-3.5911,-3.4993,-3.4534,-1.5002,-1.5154,-1.4972,-1.3947,-1.3608,-1.3272,-1.2376,-1.1617,-1.1115,-1.1454,-1.1475,-1.1432,-1.166,-1.1854,-1.1919,0.0,0.0,-1.2444,0.0,-1.2377,-1.2609,-1.3277,-1.3886,-1.4033,-1.3532,-1.349,-1.38,-1.4496,-1.5021,-1.5556,-1.6074,-1.7292,-1.8402,-1.9115,-2.0039,-2.1135,-2.2371,-2.2304,-2.2924,-2.4277,-2.326,-2.332,-2.4275,-2.4114,-2.4106,-2.4375,-2.3949,-2.3969,-2.4236,-2.3969,-2.4078,-2.4346,-2.4741,-2.5712,-2.6991,-2.8014,-2.8864,-2.9598,-3.0384,-3.1192,-3.187,-3.187,-3.2088,-3.2481,-3.3115,-3.3224,-3.3246,-3.3857,-3.4032,-3.4032,-3.4032,-3.4272,-3.4534,-3.4534,-3.4534,-3.4534,-3.4534,-3.4644,-3.4753,-3.4753,-3.4753,-3.4818,-3.4993,-3.4862,-3.4797,-3.4949,-3.4709,-3.4862,-3.5845,-3.567,-3.578,-3.661,-3.6413,-3.6151,-3.5976,-3.5976,-3.5823,-3.5474,-3.578,-3.5823,-3.5474,-3.626,-3.6544,-3.6216,-3.6675,-3.6522,-3.5714,-3.5714,-3.5474,-3.5015,-3.4666,-3.4687,-1.5619,-1.5777,-1.5629,-1.4754,-1.4453,-1.4065,-1.3462,-1.2796,-1.238,-1.2495,-1.2405,-1.235,-1.2482,-1.2256,-1.2071,0.0,0.0,-1.2274,0.0,-1.2448,-1.2627,-1.2842,-1.3204,-1.324,-1.2839,-1.2558,-1.2707,-1.3465,-1.3732,-1.4223,-1.5042,-1.6364,-1.7532,-1.8613,-1.9387,-2.0508,-2.1969,-2.152,-2.207,-2.3487,-2.2485,-2.2457,-2.3466,-2.3217,-2.3287,-2.3624,-2.3198,-2.3133,-2.3339,-2.3241,-2.3357,-2.3524,-2.3556,-2.4683,-2.6208,-2.7483,-2.8675,-2.9576,-3.0188,-3.093,-3.1629,-3.1629,-3.1848,-3.2263,-3.2874,-3.2853,-3.2721,-3.3158,-3.353,-3.3748,-3.3573,-3.4032,-3.4534,-3.4534,-3.4534,-3.4534,-3.4534,-3.4534,-3.4534,-3.4534,-3.4534,-3.4534,-3.4534,-3.4666,-3.4818,-3.4949,-3.4709,-3.4797,-3.5605,-3.5408,-3.5452,-3.6107,-3.5889,-3.5627,-3.5474,-3.5452,-3.5321,-3.4971,-3.5277,-3.5299,-3.4971,-3.5736,-3.6173,-3.6216,-3.6369,-3.6282,-3.5976,-3.5648,-3.5321,-3.5037,-3.4862,-3.5015]},{"header":{"parameterUnit":"m.s-1","parameterCategory":1,"la1":30.6,"la2":29.2853,"lo1":-89.7004,"lo2":-87.6739,"dy":0.0162,"dx":0.0183,"nx":112,"ny":82,"refTime":"2023-10-17T12:00:00:Z","depth":0,"parameterNumber":3,"parameterNumberName":"V-component_of_WINDS"},"data":[0.0,0.0,0.0,0.0,0.0,0.0,0.0,0.0,0.0,0.0,0.0,0.0,0.0,0.0,0.0,0.0,0.0,0.0,0.0,0.0,0.0,0.0,0.0,0.0,0.0,0.0,0.0,0.0,0.0,0.0,0.0,0.0,0.0,0.0,0.0,0.0,0.0,0.0,0.0,0.0,0.0,0.0,0.0,0.0,0.0,0.0,0.0,0.0,0.0,0.0,0.0,0.0,0.0,0.0,0.0,0.0,0.0,0.0,0.0,0.0,0.0,0.0,0.0,0.0,0.0,0.0,0.0,0.0,0.0,0.0,0.0,0.0,0.0,0.0,0.0,0.0,0.0,0.0,0.0,0.0,0.0,0.0,0.0,0.0,0.0,0.0,0.0,0.0,0.0,0.0,-2.8742,-3.5134,-4.2745,-4.7601,-4.8219,-4.7189,-4.2653,-3.3547,0.0,0.0,0.0,0.0,0.0,0.0,0.0,0.0,0.0,0.0,0.0,0.0,0.0,0.0,0.0,0.0,0.0,0.0,0.0,0.0,0.0,0.0,0.0,0.0,0.0,0.0,0.0,0.0,0.0,0.0,0.0,0.0,0.0,0.0,0.0,0.0,0.0,0.0,0.0,0.0,0.0,0.0,0.0,0.0,0.0,0.0,0.0,0.0,0.0,0.0,0.0,0.0,0.0,0.0,0.0,0.0,0.0,0.0,0.0,0.0,0.0,0.0,0.0,0.0,0.0,0.0,0.0,0.0,0.0,0.0,0.0,0.0,0.0,0.0,0.0,0.0,0.0,0.0,0.0,0.0,0.0,0.0,0.0,0.0,0.0,0.0,0.0,0.0,0.0,0.0,0.0,0.0,0.0,0.0,0.0,0.0,0.0,0.0,0.0,0.0,0.0,0.0,0.0,0.0,-3.129,-4.2782,-4.6529,-4.9029,-5.1002,-4.7098,-4.2215,-3.6682,0.0,0.0,0.0,0.0,0.0,0.0,0.0,0.0,0.0,0.0,0.0,0.0,0.0,0.0,0.0,0.0,0.0,0.0,0.0,0.0,0.0,0.0,0.0,0.0,0.0,0.0,0.0,0.0,0.0,0.0,0.0,0.0,0.0,0.0,0.0,0.0,0.0,0.0,0.0,0.0,0.0,0.0,0.0,0.0,0.0,0.0,0.0,0.0,0.0,0.0,0.0,0.0,0.0,0.0,0.0,0.0,0.0,0.0,0.0,0.0,0.0,0.0,0.0,0.0,0.0,0.0,0.0,0.0,0.0,0.0,0.0,0.0,0.0,0.0,0.0,0.0,0.0,0.0,0.0,0.0,0.0,0.0,0.0,0.0,0.0,0.0,0.0,0.0,0.0,0.0,0.0,0.0,0.0,0.0,0.0,0.0,0.0,0.0,0.0,0.0,0.0,0.0,0.0,-3.1341,-3.7288,-4.5147,-4.8278,-5.0237,-5.1316,-4.8062,-4.3432,-3.7448,-3.3754,0.0,0.0,0.0,0.0,0.0,0.0,0.0,0.0,0.0,0.0,0.0,0.0,0.0,0.0,0.0,0.0,0.0,0.0,0.0,0.0,0.0,0.0,0.0,0.0,0.0,0.0,0.0,0.0,0.0,0.0,0.0,0.0,0.0,0.0,0.0,0.0,0.0,0.0,0.0,0.0,0.0,0.0,0.0,0.0,0.0,0.0,0.0,0.0,0.0,0.0,0.0,0.0,0.0,0.0,0.0,0.0,0.0,0.0,0.0,0.0,0.0,0.0,0.0,0.0,0.0,0.0,0.0,0.0,0.0,0.0,0.0,0.0,0.0,0.0,0.0,0.0,0.0,0.0,0.0,0.0,0.0,0.0,0.0,0.0,0.0,0.0,0.0,0.0,0.0,0.0,0.0,0.0,0.0,0.0,0.0,0.0,0.0,0.0,0.0,0.0,0.0,0.0,-3.7378,-4.1708,-4.6061,-4.905,-5.0735,-5.0839,-4.8197,-4.369,-3.7036,-3.2784,0.0,0.0,0.0,0.0,0.0,0.0,0.0,0.0,0.0,0.0,0.0,0.0,0.0,0.0,0.0,0.0,0.0,0.0,0.0,0.0,0.0,0.0,0.0,0.0,0.0,0.0,0.0,0.0,0.0,0.0,0.0,0.0,0.0,0.0,0.0,0.0,0.0,0.0,0.0,0.0,0.0,0.0,0.0,0.0,0.0,0.0,0.0,0.0,0.0,0.0,0.0,0.0,0.0,0.0,0.0,0.0,0.0,0.0,0.0,0.0,0.0,0.0,0.0,0.0,0.0,0.0,0.0,0.0,0.0,0.0,0.0,0.0,0.0,0.0,0.0,0.0,0.0,0.0,0.0,0.0,0.0,0.0,0.0,0.0,0.0,0.0,0.0,0.0,0.0,0.0,0.0,0.0,0.0,0.0,0.0,0.0,0.0,0.0,0.0,0.0,0.0,0.0,-3.5646,-4.1288,-4.724,-4.9123,-5.0047,-5.0218,-4.6314,-4.1319,-3.5446,-3.0419,0.0,0.0,0.0,0.0,0.0,0.0,0.0,0.0,0.0,0.0,0.0,0.0,0.0,0.0,0.0,0.0,0.0,0.0,0.0,0.0,0.0,0.0,0.0,0.0,0.0,0.0,0.0,0.0,0.0,0.0,0.0,0.0,0.0,0.0,0.0,0.0,0.0,0.0,0.0,0.0,0.0,0.0,0.0,0.0,0.0,0.0,0.0,0.0,0.0,0.0,0.0,0.0,0.0,0.0,0.0,0.0,0.0,0.0,0.0,0.0,0.0,0.0,0.0,0.0,0.0,0.0,0.0,0.0,0.0,0.0,0.0,0.0,0.0,0.0,0.0,0.0,0.0,0.0,0.0,0.0,0.0,0.0,0.0,0.0,0.0,0.0,0.0,0.0,0.0,0.0,0.0,0.0,0.0,0.0,0.0,0.0,0.0,0.0,0.0,0.0,0.0,0.0,-3.6158,-4.1064,-4.6079,-4.7472,-4.8266,-4.8796,-4.5553,-4.1054,-3.5295,0.0,0.0,0.0,0.0,0.0,0.0,0.0,0.0,0.0,0.0,0.0,0.0,0.0,0.0,0.0,0.0,0.0,0.0,0.0,0.0,0.0,0.0,0.0,0.0,0.0,0.0,0.0,0.0,0.0,0.0,0.0,0.0,0.0,0.0,0.0,0.0,0.0,0.0,0.0,0.0,0.0,0.0,0.0,0.0,0.0,0.0,0.0,0.0,0.0,0.0,0.0,0.0,0.0,0.0,0.0,0.0,0.0,0.0,0.0,0.0,0.0,0.0,0.0,0.0,0.0,0.0,0.0,0.0,0.0,0.0,0.0,0.0,0.0,0.0,0.0,0.0,0.0,0.0,0.0,0.0,0.0,0.0,0.0,0.0,0.0,0.0,0.0,0.0,0.0,0.0,0.0,0.0,0.0,0.0,0.0,0.0,0.0,0.0,0.0,0.0,0.0,0.0,-3.1967,-3.6605,-4.111,-4.5019,-4.6311,-4.7007,-4.724,-4.4268,-4.0073,-3.4598,0.0,0.0,0.0,0.0,0.0,0.0,0.0,0.0,0.0,0.0,0.0,0.0,0.0,0.0,0.0,0.0,0.0,0.0,0.0,0.0,0.0,0.0,0.0,0.0,0.0,0.0,0.0,0.0,0.0,0.0,0.0,0.0,0.0,0.0,0.0,0.0,0.0,0.0,0.0,0.0,0.0,0.0,0.0,0.0,0.0,0.0,0.0,0.0,0.0,0.0,0.0,0.0,0.0,0.0,0.0,0.0,0.0,0.0,0.0,0.0,0.0,0.0,0.0,0.0,0.0,0.0,0.0,0.0,0.0,0.0,0.0,0.0,0.0,0.0,0.0,0.0,0.0,0.0,0.0,0.0,0.0,0.0,0.0,0.0,0.0,0.0,0.0,0.0,0.0,0.0,0.0,0.0,0.0,0.0,0.0,0.0,0.0,0.0,0.0,0.0,0.0,0.0,-3.1242,-3.6687,-4.1475,-4.4357,-4.598,-4.6513,-4.5692,-4.2411,-3.8162,0.0,0.0,0.0,0.0,0.0,0.0,0.0,0.0,0.0,0.0,0.0,0.0,0.0,0.0,0.0,0.0,0.0,0.0,0.0,0.0,0.0,0.0,0.0,0.0,0.0,0.0,0.0,0.0,0.0,0.0,0.0,0.0,0.0,0.0,0.0,0.0,0.0,0.0,0.0,0.0,0.0,0.0,0.0,0.0,0.0,0.0,0.0,0.0,0.0,0.0,0.0,0.0,0.0,0.0,0.0,0.0,0.0,0.0,0.0,0.0,0.0,0.0,0.0,0.0,0.0,0.0,0.0,0.0,0.0,0.0,0.0,0.0,0.0,0.0,0.0,0.0,0.0,0.0,0.0,0.0,0.0,0.0,0.0,0.0,0.0,0.0,0.0,0.0,0.0,0.0,0.0,0.0,0.0,0.0,0.0,0.0,0.0,0.0,0.0,0.0,0.0,0.0,0.0,-3.21,-3.6174,-4.015,-4.3562,-4.386,-4.3866,-4.4197,-4.1295,-3.7581,-3.3039,0.0,0.0,0.0,0.0,0.0,0.0,0.0,0.0,0.0,0.0,0.0,0.0,0.0,0.0,0.0,0.0,0.0,0.0,0.0,0.0,0.0,0.0,0.0,0.0,0.0,0.0,0.0,0.0,0.0,0.0,0.0,0.0,0.0,0.0,0.0,0.0,0.0,0.0,0.0,0.0,0.0,0.0,0.0,0.0,0.0,0.0,0.0,0.0,0.0,0.0,0.0,0.0,0.0,0.0,0.0,0.0,0.0,0.0,0.0,0.0,0.0,0.0,0.0,0.0,0.0,0.0,0.0,0.0,0.0,0.0,0.0,0.0,0.0,0.0,0.0,0.0,0.0,0.0,0.0,0.0,0.0,0.0,0.0,0.0,0.0,0.0,0.0,0.0,0.0,0.0,0.0,0.0,0.0,0.0,0.0,0.0,0.0,0.0,0.0,0.0,0.0,0.0,-3.1946,-3.591,-3.9632,-4.2435,-4.2866,-4.2973,-4.3079,-4.0668,-3.7581,-3.3822,0.0,0.0,0.0,0.0,0.0,0.0,0.0,0.0,0.0,0.0,0.0,0.0,0.0,0.0,0.0,0.0,0.0,0.0,0.0,0.0,0.0,0.0,0.0,0.0,0.0,0.0,0.0,0.0,0.0,0.0,0.0,0.0,0.0,0.0,0.0,0.0,0.0,0.0,0.0,0.0,0.0,0.0,0.0,0.0,0.0,0.0,0.0,0.0,0.0,0.0,0.0,0.0,0.0,0.0,0.0,0.0,0.0,0.0,0.0,0.0,0.0,0.0,0.0,0.0,0.0,0.0,0.0,0.0,0.0,0.0,0.0,0.0,0.0,0.0,0.0,0.0,0.0,0.0,0.0,0.0,0.0,0.0,0.0,0.0,0.0,0.0,0.0,0.0,0.0,0.0,0.0,0.0,0.0,0.0,0.0,0.0,0.0,0.0,0.0,0.0,0.0,0.0,-3.1309,-3.5844,-3.949,-4.1187,-4.2543,-4.3046,-4.2367,-4.0436,-3.8011,-3.5036,0.0,0.0,0.0,0.0,0.0,0.0,0.0,0.0,0.0,0.0,0.0,0.0,0.0,0.0,0.0,0.0,0.0,0.0,0.0,0.0,0.0,0.0,0.0,0.0,0.0,0.0,0.0,0.0,0.0,0.0,0.0,0.0,0.0,0.0,0.0,0.0,0.0,0.0,0.0,0.0,0.0,0.0,0.0,0.0,0.0,0.0,0.0,0.0,0.0,0.0,0.0,0.0,0.0,0.0,0.0,0.0,0.0,0.0,0.0,0.0,-3.5603,-3.4495,0.0,0.0,0.0,0.0,0.0,0.0,0.0,0.0,0.0,0.0,0.0,0.0,0.0,0.0,0.0,0.0,0.0,0.0,0.0,0.0,0.0,0.0,0.0,0.0,0.0,0.0,0.0,0.0,0.0,0.0,0.0,0.0,0.0,0.0,0.0,0.0,0.0,0.0,0.0,0.0,-3.2077,-3.5153,-3.8241,-4.0941,-4.1502,-4.1898,-4.2301,-4.0381,-3.8104,-3.563,-3.259,0.0,0.0,0.0,0.0,0.0,0.0,0.0,0.0,0.0,0.0,0.0,0.0,0.0,0.0,0.0,0.0,0.0,0.0,0.0,0.0,0.0,0.0,0.0,0.0,0.0,0.0,0.0,0.0,0.0,0.0,0.0,0.0,0.0,0.0,0.0,0.0,0.0,0.0,0.0,0.0,0.0,0.0,0.0,0.0,0.0,0.0,0.0,0.0,0.0,0.0,0.0,0.0,0.0,0.0,0.0,0.0,0.0,0.0,0.0,-3.9332,-3.7319,0.0,0.0,0.0,0.0,0.0,0.0,0.0,0.0,0.0,0.0,0.0,0.0,0.0,0.0,0.0,0.0,0.0,0.0,0.0,0.0,0.0,0.0,0.0,0.0,0.0,0.0,0.0,0.0,0.0,0.0,0.0,0.0,0.0,0.0,0.0,0.0,0.0,0.0,0.0,0.0,-3.2695,-3.5658,-3.8603,-4.1296,-4.1888,-4.2118,-4.215,-4.0508,-3.8668,-3.6725,-3.3499,0.0,0.0,0.0,0.0,0.0,0.0,0.0,0.0,0.0,0.0,0.0,0.0,0.0,0.0,0.0,0.0,0.0,0.0,0.0,0.0,0.0,0.0,0.0,0.0,0.0,0.0,0.0,0.0,0.0,0.0,0.0,0.0,0.0,0.0,0.0,0.0,0.0,0.0,0.0,0.0,0.0,0.0,0.0,0.0,0.0,0.0,0.0,0.0,0.0,0.0,0.0,0.0,0.0,-4.5245,-4.6253,-4.7232,-4.7415,-4.8188,-4.9062,-4.4917,-4.2197,-4.0642,-3.904,0.0,0.0,0.0,0.0,0.0,0.0,0.0,0.0,0.0,0.0,0.0,0.0,0.0,0.0,0.0,0.0,0.0,0.0,0.0,0.0,0.0,0.0,-3.5168,-3.7871,-3.7306,-3.5896,-3.5102,0.0,0.0,0.0,0.0,0.0,0.0,0.0,0.0,0.0,0.0,0.0,-3.3095,-3.6385,-3.9471,-4.1743,-4.2495,-4.2659,-4.2201,-4.0729,-3.9266,-3.7948,-3.4676,-3.2606,0.0,0.0,0.0,0.0,0.0,0.0,0.0,0.0,0.0,0.0,0.0,0.0,0.0,0.0,0.0,0.0,0.0,0.0,0.0,0.0,0.0,0.0,0.0,0.0,0.0,0.0,0.0,0.0,0.0,0.0,0.0,0.0,-3.2907,-3.4564,0.0,0.0,0.0,0.0,0.0,0.0,0.0,0.0,0.0,0.0,0.0,0.0,0.0,-4.2961,-4.3215,-4.7169,-4.86,-4.7489,-5.1359,-5.2551,-5.1502,-5.3304,-5.4276,-5.4405,-5.3725,0.0,-4.5694,-4.3039,0.0,0.0,0.0,0.0,0.0,0.0,0.0,0.0,0.0,0.0,0.0,0.0,0.0,0.0,0.0,0.0,0.0,0.0,0.0,0.0,0.0,0.0,-3.9251,-4.0761,-4.0105,-3.9414,-4.0339,-3.671,-3.3401,-3.3874,-3.2924,-3.1778,0.0,0.0,0.0,0.0,0.0,0.0,-3.3014,-3.6226,-3.9332,-4.1564,-4.189,-4.2183,-4.2704,-4.0906,-3.9634,-3.9381,-3.6367,-3.4147,-3.3079,-3.266,0.0,0.0,0.0,0.0,0.0,0.0,0.0,0.0,0.0,0.0,0.0,0.0,0.0,0.0,0.0,0.0,0.0,0.0,0.0,0.0,0.0,0.0,0.0,0.0,0.0,0.0,0.0,0.0,0.0,-3.2353,-3.4958,-3.5494,-3.6257,-3.5976,0.0,0.0,0.0,0.0,0.0,0.0,0.0,0.0,0.0,-4.4056,-4.6061,-4.7626,-4.8936,-5.189,-5.3486,-5.3791,-5.6254,-5.7423,-5.7228,-5.8896,-5.9393,-5.9036,-5.9457,-5.7514,-5.3725,-4.8835,-4.5113,-4.2346,0.0,0.0,0.0,0.0,-3.833,-3.9233,-4.0352,-4.1146,-4.1678,-4.1931,0.0,0.0,0.0,0.0,0.0,0.0,0.0,-3.7892,-3.9577,-4.1048,-4.261,-4.4756,-4.4204,-4.3425,-4.4529,-4.1211,-3.7633,-3.6437,-3.4676,-3.3223,-3.2597,-3.1831,0.0,0.0,0.0,-3.3941,-3.5318,-3.7857,-4.0254,-4.2032,-4.2226,-4.2356,-4.268,-4.1541,-4.0345,-3.9386,-3.7446,-3.5614,-3.4143,-3.3742,-3.2708,0.0,0.0,0.0,0.0,0.0,0.0,0.0,0.0,0.0,0.0,0.0,0.0,0.0,0.0,0.0,0.0,0.0,0.0,0.0,0.0,0.0,0.0,0.0,0.0,0.0,0.0,0.0,0.0,-3.4545,-3.6987,-3.6141,-3.8533,-3.9061,0.0,0.0,0.0,0.0,0.0,0.0,-4.4174,-4.4785,-4.6386,-4.9305,-5.119,-5.3095,-5.5245,-5.6986,-5.8515,-5.9924,-6.0736,-6.1523,-6.2451,-6.3307,-6.3408,-6.2923,-6.3473,-6.2502,-6.0073,-5.4258,-4.9766,-4.6386,-4.5047,-4.3928,-4.3092,-4.2643,-4.3047,-4.397,-4.4821,-4.5797,-4.6471,-4.5731,-4.5505,-4.4789,-4.1167,0.0,0.0,0.0,0.0,-4.0492,-4.2802,-4.4041,-4.5342,-4.7777,-4.755,-4.6867,-4.7326,-4.4854,-4.1829,-3.9325,-3.7113,-3.5356,-3.4545,-3.3877,0.0,-3.2526,-3.4363,-3.6291,-3.7695,-3.9735,-4.1517,-4.278,-4.2909,-4.2844,-4.265,-4.1808,-4.0836,-3.9591,-3.8101,-3.669,-3.5519,-3.4691,-3.3724,-3.2643,0.0,0.0,0.0,0.0,0.0,0.0,0.0,0.0,0.0,0.0,0.0,0.0,0.0,0.0,0.0,0.0,0.0,0.0,0.0,0.0,0.0,0.0,0.0,0.0,0.0,0.0,0.0,0.0,0.0,-3.694,-4.2308,0.0,0.0,0.0,0.0,-4.171,-4.3084,-4.544,-4.8973,-5.0221,-5.2734,-5.7116,-5.8507,-6.0202,-6.234,-6.3182,-6.3926,-6.4639,-6.4736,-6.5157,-6.5837,-6.5902,-6.5934,-6.5902,-6.5934,-6.4704,-6.2404,-5.8287,-5.5132,-5.2495,-4.9458,-4.8086,-4.7684,-4.6419,-4.7167,-4.879,-4.8204,-4.8323,-4.8965,-4.958,-4.8414,-4.641,-4.4269,-4.261,0.0,0.0,-4.2028,-4.303,-4.4367,-4.5828,-4.7326,-4.8609,-4.9186,-4.9132,-4.8161,-4.645,-4.4653,-4.2994,-4.0761,-3.8699,-3.7339,0.0,-3.63,-3.3502,-3.5532,-3.7838,-3.9242,-4.1225,-4.2812,-4.3589,-4.3654,-4.3362,-4.2682,-4.1355,-4.0513,-4.0448,-3.8359,-3.7141,-3.7155,-3.5616,-3.4792,-3.4832,-3.2836,0.0,0.0,0.0,0.0,0.0,0.0,0.0,0.0,0.0,0.0,0.0,0.0,0.0,0.0,0.0,0.0,0.0,0.0,0.0,0.0,0.0,0.0,0.0,0.0,0.0,0.0,0.0,0.0,-4.4509,-4.876,0.0,-4.6649,-4.6716,-4.7273,-4.7916,-5.0228,-5.2813,-5.5567,-5.7163,-5.9253,-6.1898,-6.2723,-6.3732,-6.4963,-6.5222,-6.5481,-6.5708,-6.5708,-6.5869,-6.6129,-6.6582,-6.655,-6.6129,-6.6614,-6.6096,-6.4801,-6.3101,-6.0001,-5.6303,-5.4542,-5.3378,-5.2712,-5.2421,-5.2802,-5.3408,-5.348,-5.3628,-5.3563,-5.2162,-4.9928,-4.7858,-4.7241,-4.6454,-4.5863,-4.6717,-4.7043,-4.7629,-4.9343,-4.9791,-4.9945,-5.0843,-5.0464,-4.9863,-4.9563,-4.8237,-4.6871,-4.6417,-4.3327,-4.054,-3.9657,-3.9495,-3.8918,-3.7481,-3.852,-3.9761,-4.0707,-4.1873,-4.2715,-4.2974,-4.3006,-4.2909,-4.265,-4.1743,-4.0998,-4.0513,-3.9321,-3.8165,-3.7206,-3.6658,-3.5894,-3.4888,-3.4169,-3.2965,0.0,0.0,0.0,0.0,0.0,0.0,0.0,0.0,0.0,0.0,0.0,0.0,0.0,0.0,0.0,0.0,0.0,0.0,0.0,0.0,0.0,0.0,0.0,0.0,0.0,-4.3787,-4.8597,-4.9678,-5.3997,-5.5587,-5.2443,-5.279,-5.3574,-5.4468,-5.6661,-5.8808,-6.1043,-6.2204,-6.3664,-6.5218,-6.5609,-6.6096,-6.6809,-6.6809,-6.6809,-6.6809,-6.6809,-6.6809,-6.6841,-6.7294,-6.7003,-6.6129,-6.6614,-6.629,-6.5351,-6.5088,-6.3095,-6.0173,-5.9369,-5.8442,-5.7544,-5.7919,-5.7948,-5.7832,-5.7748,-5.7177,-5.6187,-5.4547,-5.2454,-5.0641,-5.0818,-5.0434,-5.0039,-5.0955,-5.1001,-5.1141,-5.2498,-5.2345,-5.1944,-5.2139,-5.1567,-5.0756,-5.0375,-4.8946,-4.7842,-4.8037,-4.534,-4.2615,-4.1276,-4.0989,-4.0442,-3.9097,-3.9372,-3.9962,-4.0448,-4.1549,-4.2197,-4.1938,-4.2553,-4.2812,-4.2326,-4.1193,-4.0415,-4.0156,-3.8829,-3.7866,-3.7528,-3.6367,-3.5315,-3.4535,-3.3623,-3.2611,-3.1452,0.0,0.0,0.0,0.0,0.0,0.0,0.0,0.0,0.0,0.0,0.0,0.0,0.0,0.0,0.0,0.0,0.0,0.0,0.0,0.0,0.0,0.0,0.0,-4.1445,-4.7968,-5.2494,-5.2113,-5.7953,-6.0332,-5.6172,-5.86,-6.0609,-6.0882,-6.1775,-6.3075,-6.4995,-6.506,-6.5708,-6.71,-6.7165,-6.7489,-6.8136,-6.8169,-6.8201,-6.8201,-6.8201,-6.8201,-6.8201,-6.8234,-6.7489,-6.6161,-6.6193,-6.5416,-6.4121,-6.4088,-6.415,-6.4268,-6.3825,-6.2925,-6.1945,-6.2395,-6.2329,-6.189,-6.0522,-5.858,-5.6658,-5.6856,-5.5961,-5.4868,-5.5025,-5.4424,-5.3714,-5.3681,-5.3526,-5.3369,-5.3369,-5.3369,-5.3175,-5.243,-5.2389,-5.2075,-5.0529,-4.8654,-4.7424,-4.7896,-4.686,-4.5048,-4.2382,-4.1833,-4.0832,-3.8121,-3.8205,0.0,-3.8602,-4.0383,-4.1419,-4.0707,-4.2423,-4.3103,-4.1711,-3.9638,-3.8699,-3.9444,-3.6744,-3.6099,-3.8311,-3.478,-3.3168,-3.3995,-3.1227,-3.0808,-3.2918,0.0,0.0,0.0,0.0,0.0,0.0,0.0,0.0,0.0,0.0,0.0,0.0,0.0,0.0,0.0,0.0,0.0,0.0,0.0,0.0,0.0,-4.4377,-4.9258,-4.9953,-5.394,-5.8148,-6.1665,-6.4431,-6.5363,-6.3616,-6.3963,-6.4191,-6.3862,-6.5123,-6.6064,-6.655,-6.6096,-6.5999,-6.6388,-6.6388,-6.6485,-6.6679,-6.7683,-6.8201,-6.8201,-6.8201,-6.8201,-6.8234,-6.8752,-6.8493,-6.7651,-6.8169,-6.7618,-6.629,-6.574,-6.5222,-6.4766,-6.4146,-6.3432,-6.2841,-6.2198,-6.1353,-6.0258,-5.9523,-5.8893,-5.8287,-5.8404,-5.7836,-5.725,-5.7331,-5.692,-5.631,-5.5627,-5.5338,-5.5129,-5.4449,-5.4194,-5.4049,-5.3855,-5.3058,-5.2183,-5.1718,-5.0431,-4.9199,-4.8803,-4.8026,-4.6828,-4.5015,-4.4658,-4.4204,-4.3005,-4.2909,-4.3039,-4.3039,-4.3557,-4.3816,-4.3622,-4.2747,-4.2197,-4.2326,-3.993,-3.8699,-3.9444,-3.8246,-3.7737,-3.8375,-3.7381,-3.6593,-3.6216,-3.4446,-3.3544,0.0,0.0,0.0,0.0,0.0,0.0,0.0,0.0,0.0,0.0,0.0,0.0,0.0,0.0,0.0,0.0,0.0,0.0,0.0,0.0,0.0,0.0,-4.9908,-5.6062,-5.9201,-6.0952,-6.3188,-6.6856,-6.8522,-6.8726,-6.733,-6.7361,-6.7166,-6.6388,-6.7523,-6.8042,-6.7618,-6.788,-6.7426,-6.6129,-6.7262,-6.7327,-6.6129,-6.7813,-6.8493,-6.8201,-6.8201,-6.8201,-6.8201,-6.8622,-6.8104,-6.6906,-6.7651,-6.6971,-6.5384,-6.5287,-6.5058,-6.4731,0.0,0.0,0.0,0.0,-6.2093,-6.0913,-6.0576,-6.0054,-5.9532,-5.967,-5.9264,-5.8609,-5.856,-5.754,-5.6277,-5.5554,-5.4743,-5.4162,-5.4202,-5.411,-5.4017,-5.4341,-5.3499,-5.2495,-5.1912,-5.0422,-4.9192,-4.9062,-4.822,0.0,-4.6828,-4.5726,-4.4496,-4.3264,-4.3037,-4.278,-4.2197,-4.3168,-4.3524,-4.2618,-4.2229,-4.2067,-4.2164,-3.9515,0.0,0.0,0.0,-3.6754,-3.6486,-3.6886,0.0,0.0,0.0,-3.3899,-3.4349,-3.4349,0.0,0.0,-3.4161,-3.3304,0.0,0.0,0.0,0.0,0.0,0.0,0.0,0.0,0.0,0.0,0.0,0.0,0.0,0.0,0.0,0.0,-5.505,-6.1554,-6.7702,-6.779,-6.779,-6.9222,-7.0568,-7.0666,-6.8658,-6.9184,-6.9216,-6.8463,-6.9051,-6.9216,-6.8363,-6.9505,0.0,0.0,0.0,-6.8719,-6.6258,-6.8169,-6.8881,-6.8331,-6.8234,-6.8201,-6.8201,-6.8298,-6.7262,-6.5416,-6.6064,-6.5157,-6.3311,-6.3894,-6.4215,-6.4431,-6.4643,-6.4453,-6.4203,-6.4381,-6.3588,-6.2441,-6.2464,0.0,0.0,-6.045,-6.0022,-5.938,-5.9069,-5.7277,-5.5287,-5.4667,-5.3258,-5.2313,-5.3376,-5.3656,-5.3725,-5.4373,-5.3984,-5.3078,-5.1815,-4.9936,-4.8641,-4.9159,-4.8155,-4.741,-4.7929,-4.5888,-4.3588,-4.1699,-4.1286,-4.0772,-3.9509,-4.1484,-4.2294,-4.0448,-4.1549,0.0,-4.1743,-3.8972,-3.7907,-3.9379,-3.6869,-3.5091,-3.451,-3.5247,-3.4665,-3.2546,-3.2514,-3.3448,-3.5315,-3.5155,-3.6172,-3.8286,-3.5732,-3.4775,0.0,0.0,0.0,0.0,0.0,0.0,0.0,0.0,0.0,0.0,0.0,0.0,0.0,0.0,0.0,-5.4677,-6.1107,-6.6615,-6.9646,-7.1061,-7.1788,-7.1683,-7.1061,-7.0634,-7.0326,-6.9414,-6.8991,-6.9346,-6.8856,-6.8691,-6.9043,-6.7815,-6.7036,-6.6971,-6.6938,-6.6938,-6.6971,-6.7942,-6.8622,-6.9076,-6.846,0.0,-6.8234,-6.8816,-6.8525,-6.7586,-6.7748,-6.6906,-6.5448,-6.4995,-6.4928,-6.5147,-6.4839,-6.4159,-6.3512,-6.3284,-6.2618,-6.1677,-6.1172,-6.0863,-6.0534,-6.0026,-5.9957,-6.005,-5.938,-5.8754,0.0,-5.6498,-5.5913,-5.549,-5.4485,-5.46,-5.5053,-5.5183,-5.4697,-5.4114,-5.3855,-5.2527,-5.1264,-5.0843,-5.0066,-4.9159,-4.8188,-4.754,-4.6828,-4.5859,-4.5662,-4.5532,-4.5273,-4.5208,-4.5241,-4.5435,-4.2715,-4.1322,-4.2326,-3.9774,-3.857,-3.9412,-3.9418,-3.9037,-3.818,-3.8366,-3.7923,-3.6734,-3.6749,-3.691,-3.7327,-3.7327,-3.7527,-3.7982,-3.7576,-3.7173,0.0,0.0,0.0,0.0,0.0,0.0,0.0,0.0,0.0,0.0,0.0,-4.1573,-4.5048,0.0,-5.4689,-5.9879,-6.4367,-6.8035,-7.047,-7.1884,-7.2444,-7.1981,-7.172,-7.1258,-7.0363,-6.9577,-6.9121,-6.8953,-6.8953,-6.8853,-6.8752,-6.8528,-6.7946,-6.6679,-6.7683,-6.7748,-6.6647,-6.8039,-6.8752,-6.8752,-6.8363,-6.8201,-6.8201,-6.8557,-6.8169,-6.7165,-6.7521,-6.6679,-6.5027,-6.4734,-6.4699,-6.4699,-6.5073,-6.4937,-6.4453,-6.4006,-6.3252,-6.2441,-6.1982,-6.1488,-6.0909,-6.0076,-5.981,-5.9741,-5.8791,-5.7887,-5.689,-5.5698,-5.4848,-5.4215,-5.4092,-5.4194,-5.4535,-5.5247,-5.4632,-5.3855,-5.3855,-5.2721,-5.1588,-5.1264,-5.0833,-5.0047,-4.8771,-4.844,-4.7981,-4.7054,-4.6892,-4.6763,-4.6407,-4.6018,-4.5662,-4.5338,-4.3395,-4.2261,-4.2585,-4.0998,-3.9833,-3.936,-4.0033,-4.0318,-3.9844,-3.943,-3.9205,-3.9198,-3.8695,-3.8721,-3.9217,-3.9101,-3.9076,-3.9198,-3.9237,-3.8605,0.0,0.0,0.0,0.0,0.0,0.0,0.0,-3.7814,-3.9201,-4.2873,-4.4785,-4.743,-5.2443,-5.5306,-5.8838,-6.4708,-6.6733,-6.8597,-7.1125,-7.1745,-7.1913,-7.1555,-7.2016,-7.1683,-7.0102,-6.9642,-6.9184,-6.8528,-6.9018,-6.9083,-6.8428,-6.957,-6.9148,-6.6776,-6.8849,-6.8946,-6.6744,-6.8266,-6.8849,-6.8395,-6.8266,-6.8201,-6.8201,-6.8072,-6.7392,-6.6323,-6.6647,-6.5708,-6.4024,-6.4309,-6.4374,-6.425,-6.5274,-6.569,-6.5624,-6.5128,-6.4367,-6.3416,-6.3122,-6.2245,-6.1205,-6.0175,-5.9614,-5.9201,-5.8078,-5.6843,-5.5731,-5.4974,-5.377,-5.2997,-5.3857,-5.3883,-5.4017,-5.515,-5.4438,-5.3531,-5.3531,-5.2398,-5.1394,-5.1394,-5.1145,-5.0553,-4.9378,-4.9079,-4.8458,-4.7119,-4.6892,-4.6666,-4.6083,-4.5888,-4.537,-4.4237,-4.3751,-4.3201,-4.2488,-4.1905,-4.1067,-3.9914,-4.0518,-4.0836,-4.0647,-4.0006,-3.9844,-4.0404,-3.9645,-3.9612,-4.0391,-4.0194,-4.0199,-4.0437,-4.0301,-3.9574,-2.886,-2.6528,-2.7197,-3.2266,-3.3952,-3.643,0.0,-4.721,-4.867,-5.2006,-5.4876,-5.7493,-5.9834,-6.2091,-6.5023,-6.925,-6.9616,-7.0204,-7.2246,-7.185,-7.1287,-7.1289,-7.1153,-7.0917,-7.0652,-6.9278,-6.8658,-6.9512,-6.8823,-6.8557,-6.914,-6.8687,-6.859,-6.8914,-6.8622,-6.859,-6.8914,-6.8525,-6.859,-6.914,-6.8493,-6.8201,-6.8169,-6.7586,-6.723,-6.7003,-6.5805,-6.4801,-6.4056,-6.4671,-6.4898,-6.493,-6.4995,-6.5123,-6.5218,-6.5778,-6.4647,-6.3024,-6.3219,-6.2293,-6.0903,-5.9496,-5.9267,-5.9334,-5.7917,-5.7657,-5.7724,-5.697,-5.6482,-5.6092,-5.5668,-5.5345,-5.5215,-5.5377,-5.4826,-5.4276,-5.4276,-5.311,-5.2074,-5.2074,-5.1588,-5.094,-5.0131,-4.9969,-4.9289,-4.7184,-4.6892,-4.686,-4.6763,-4.6212,-4.5759,-4.5597,-4.3881,-4.2456,-4.1743,-4.1614,-4.1776,-4.2167,-4.2296,-4.207,-4.1332,-4.1171,-4.0817,-4.0176,-4.007,-4.0033,-4.0097,-4.0126,-4.0101,-4.0164,-4.016,-4.0119,-3.2871,-3.3367,-3.5217,-3.8162,-4.1387,-4.5209,-5.0373,-5.2571,-5.4338,-5.7445,-6.0022,-6.2183,-6.3817,-6.4626,-6.6184,-6.9583,-6.909,-6.9058,-7.0695,-7.0819,-6.9769,-6.7362,-6.7688,-6.8239,-6.8861,-6.8531,-6.7974,-6.7654,-6.8009,-6.8331,-6.8622,-6.8363,-6.8331,-6.8655,-6.8363,-6.8331,-6.8655,-6.8363,-6.8363,-6.8655,-6.7942,-6.7618,-6.7586,-6.6873,-6.655,-6.6485,-6.506,-6.4509,-6.4606,-6.4477,-6.4445,-6.4477,-6.4866,-6.4768,-6.4445,-6.4882,-6.4479,-6.3686,-6.3221,-6.2496,-6.1501,-5.9878,-5.9103,-5.8643,-5.7785,-5.739,-5.7225,-5.669,-5.6432,-5.6286,-5.5669,-5.5491,-5.5409,-5.5409,-5.4891,-5.4405,-5.4405,-5.324,-5.2203,-5.2203,-5.19,-5.1274,-5.0293,-5.038,-5.0015,-4.8382,-4.7799,-4.7378,-4.6957,-4.6245,-4.5662,-4.5241,-4.4043,-4.2974,-4.2261,-4.1808,-4.1711,-4.2002,-4.2002,-4.2067,-4.2072,-4.1652,-4.1459,-4.1588,-4.1091,-4.1119,-4.1552,-4.156,-4.1532,-4.1532,-4.153,-4.159,-3.4972,-3.7669,-4.071,-4.3005,-4.7568,-5.2351,-5.5378,-5.7282,-5.9156,-6.2191,-6.3952,-6.5318,-6.6582,-6.6387,-6.6808,-6.9384,-6.8502,-6.7883,-6.9219,-6.9148,-6.7553,-6.3829,-6.3959,-6.441,-6.4533,-6.6031,-6.6873,-6.6452,-6.7359,-6.8007,-6.8201,-6.8201,-6.8201,-6.8201,-6.8201,-6.8201,-6.8201,-6.8395,-6.8298,-6.791,-6.7813,-6.7456,-6.6873,-6.6129,-6.5708,-6.5481,-6.4445,-6.4283,-6.4736,-6.4639,-6.4477,-6.4347,-6.506,-6.4898,-6.425,-6.4244,-6.411,-6.3969,-6.3176,-6.2497,-6.1741,-6.0088,-5.9103,-5.8379,-5.7672,-5.7252,-5.6789,-5.6277,-5.6165,-5.5941,-5.5345,-5.528,-5.5377,-5.5183,-5.4762,-5.4405,-5.4405,-5.3402,-5.2495,-5.2495,-5.2372,-5.2049,-5.1092,-5.1113,-5.0919,-4.9807,-4.903,-4.8252,-4.7313,-4.6374,-4.5532,-4.4852,-4.414,-4.3492,-4.2974,-4.2456,-4.2261,-4.2456,-4.2067,-4.207,-4.2589,-4.1848,-4.1719,-4.2298,-4.1931,-4.1996,-4.2618,-4.2618,-4.2618,-4.2618,-4.2618,-4.2618,-3.2926,-3.5305,-3.8656,-4.4782,-5.0075,-5.5058,-5.9997,-6.202,-6.3599,-6.6647,-6.7395,-6.772,-6.847,-6.8014,-6.8079,-6.9845,-6.8502,-6.7555,-6.86,-6.6712,-6.438,-6.2145,-6.072,-5.9101,-5.7029,-6.1271,-6.4963,-6.7003,-6.7197,-6.7489,-6.8169,-6.8201,-6.8201,-6.8201,-6.8201,-6.8201,-6.8201,-6.8881,-6.8557,-6.723,-6.859,-6.8136,-6.6129,-6.5384,-6.4704,-6.4088,-6.4024,-6.4024,-6.4153,-6.5481,-6.561,-6.506,-6.5805,-6.5643,-6.4898,-6.425,-6.3757,-6.3316,-6.3012,-6.2289,-6.1349,-6.0008,-5.9431,-5.9085,-5.7837,-5.7456,-5.7291,-5.6599,-5.6244,-5.5922,-5.4998,-5.5085,-5.5247,-5.46,-5.4405,-5.4405,-5.4405,-5.3823,-5.3304,-5.3304,-5.3272,-5.3272,-5.324,-5.2624,-5.1944,-5.1232,-5.0519,-4.9548,-4.8155,-4.6698,-4.5532,-4.4852,-4.414,-4.3686,-4.3686,-4.3654,-4.3945,-4.4658,-4.3362,-4.2621,-4.259,-4.1949,-4.1626,-4.1659,-4.2233,-4.2618,-4.2618,-4.2618,-4.2618,-4.2618,-4.2618,-4.2618,-3.6849,-4.1573,-4.7209,-5.1778,-5.6173,-6.0261,-6.3936,-6.5576,-6.642,-6.655,-6.5026,-6.3302,-6.1735,-6.0467,-6.0359,-6.2281,-6.2874,-6.4017,-6.655,-6.5512,-6.3214,-6.0073,-5.9716,-5.868,-5.6025,-5.9457,-6.2178,-6.289,-6.5125,-6.6776,-6.7489,-6.7942,-6.8201,-6.8201,-6.8201,-6.8428,-6.8914,-6.8687,-6.8816,-6.9302,-6.8363,-6.6776,-6.4704,-6.4477,-6.4218,-6.4024,-6.4024,-6.4283,-6.4736,-6.5189,-6.5254,-6.506,-6.5287,-6.4963,-6.4315,-6.4088,-6.3631,-6.2977,-6.2713,-6.1905,-6.0978,-6.0345,-5.9605,-5.8997,-5.8183,-5.7723,-5.7324,-5.6599,-5.6402,-5.6179,-5.5791,-5.5683,-5.5523,-5.4807,-5.481,-5.4956,-5.4503,-5.4211,-5.4049,-5.4049,-5.4049,-5.3887,-5.3402,-5.311,-5.256,-5.1361,-4.9775,-4.8544,-4.8058,-4.7151,-4.6245,-4.5532,-4.4852,-4.4431,-4.4431,-4.3136,-4.3006,-4.469,-4.3006,-4.2361,-4.3299,-4.2645,-4.2252,-4.2266,-4.249,-4.2618,-4.2618,-4.2618,-4.2618,-4.2618,-4.2618,-4.2618,-4.0475,-4.6536,-5.3062,-5.6201,-6.0105,-6.3784,-6.5803,-6.6518,-6.629,-6.4866,-6.2307,-5.935,-5.6092,-5.45,-5.4403,-5.6546,-5.7651,-5.9772,-6.4315,-6.3311,-6.1433,-5.9619,-5.8907,-5.7838,-5.5992,-5.8356,-6.0235,-6.0842,-6.3862,-6.5934,-6.6518,-6.7068,-6.7683,-6.8169,-6.8201,-6.8428,-6.8881,-6.8687,-6.8946,-6.9594,-6.7456,-6.5708,-6.438,-6.4121,-6.3862,-6.3635,-6.3894,-6.4088,-6.4315,-6.4801,-6.5027,-6.5027,-6.5027,-6.4768,-6.4347,-6.4088,-6.3469,-6.2652,-6.2436,-6.1638,-6.0745,-6.0381,-5.9663,-5.8893,-5.8394,-5.7887,-5.7324,-5.6599,-5.6402,-5.6336,-5.5837,-5.5927,-5.5896,-5.4919,-5.528,-5.5604,-5.4924,-5.4762,-5.4762,-5.4762,-5.4762,-5.4632,-5.4146,-5.3661,-5.2851,-5.1394,-4.9807,-4.8673,-4.8414,-4.7734,-4.6892,-4.5921,-4.5208,-4.4787,-4.4787,-4.3265,-4.3136,-4.5046,-4.3395,-4.2877,-4.4042,-4.3088,-4.2594,-4.2618,-4.2522,-4.2522,-4.2522,-4.2458,-4.2458,-4.2458,-4.2397,-4.243,-4.3669,-5.0105,-5.614,-5.7872,-6.1886,-6.5476,-6.5901,-6.4833,-6.3311,-6.166,-5.8907,-5.5621,-5.1447,-5.001,-5.0302,-5.2714,-5.3188,-5.5507,-6.1919,-6.0494,-5.9295,-6.0623,-5.8421,-5.6737,-5.6705,-5.8065,-5.9577,-6.0987,-6.3534,-6.5155,-6.5443,-6.5934,-6.6809,-6.8169,-6.8201,-6.8234,-6.8266,-6.8946,-6.8881,-6.8072,-6.6031,-6.506,-6.4963,-6.4315,-6.3635,-6.2987,-6.37,-6.3635,-6.3117,-6.4477,-6.5027,-6.5027,-6.5027,-6.4995,-6.4898,-6.4218,-6.3237,-6.2216,-6.2183,-6.1516,-6.0712,-6.0294,-5.961,-5.8926,-5.8394,-5.7871,-5.7423,-5.6599,-5.6402,-5.627,-5.5312,-5.5927,-5.645,-5.4984,-5.5604,-5.6284,-5.5474,-5.5377,-5.5409,-5.5409,-5.5409,-5.5409,-5.5377,-5.4244,-5.2851,-5.1459,-5.0617,-4.9904,-4.9159,-4.8447,-4.7475,-4.605,-4.5273,-4.4852,-4.4885,-4.4172,-4.4302,-4.5726,-4.4496,-4.4043,-4.4787,-4.3415,-4.2692,-4.2682,-4.249,-4.2458,-4.2427,-4.2235,-4.2138,-4.2138,-4.2108,-4.2205,-4.898,-5.4851,-6.0736,-6.1981,-6.3709,-6.4896,-6.3926,-6.221,-5.9652,-5.5507,-5.0293,-4.5404,-4.1731,-4.0886,-4.2349,-4.7163,-5.0644,-5.489,-6.1174,-6.1465,-6.0947,-6.0818,-6.0591,-6.0235,-5.9749,-6.1951,-6.2983,-6.202,-6.3826,-6.5513,-6.668,-6.7294,-6.7845,-6.8201,-6.8201,-6.846,-6.9011,-6.9205,-6.8395,-6.6647,-6.6096,-6.5287,-6.425,-6.4088,-6.3926,-6.3732,-6.3926,-6.4185,-6.4509,-6.4866,-6.5027,-6.5027,-6.5027,-6.4704,-6.4185,-6.3659,-6.2815,-6.1847,-6.1508,-6.1,-6.0467,-6.0357,-6.0108,-5.9663,-5.8558,-5.8427,-5.8329,-5.6975,-5.6921,-5.7028,-5.6459,-5.6606,-5.653,-5.4567,-5.5295,-5.6025,-5.4244,-5.4665,-5.5409,-5.5409,-5.5409,-5.5247,-5.4762,-5.392,-5.3013,-5.2074,-5.1361,-5.0649,-4.9904,-4.8771,-4.7864,-4.7475,-4.6309,-4.5759,-4.6309,-4.4723,-4.4302,-4.5726,-4.4496,-4.4042,-4.4769,-4.3944,-4.3717,-4.4197,-4.3132,-4.2782,-4.3234,-4.2621,-4.2333,-4.2302,-4.2301,-4.2366,-5.3201,-5.8191,-6.302,-6.2473,-6.3034,-6.2923,-6.0235,-5.7709,-5.4179,-4.7896,-4.3265,-3.9055,-3.4966,-3.4966,-3.7275,-4.2382,-4.6545,-5.1577,-5.8486,-5.9749,-6.0526,-6.2016,-6.2242,-6.2502,-6.3084,-6.4574,-6.5125,-6.4439,-6.5091,-6.5708,-6.6323,-6.7004,-6.7553,-6.8169,-6.8201,-6.8395,-6.8784,-6.8525,-6.7618,-6.6096,-6.5772,-6.506,-6.4024,-6.4024,-6.4024,-6.4024,-6.4024,-6.4218,-6.4574,-6.4574,-6.4574,-6.4574,-6.4574,-6.4347,-6.3926,-6.3459,-6.2744,-6.1905,-6.1457,-6.0913,-6.0378,-6.0152,-5.9838,-5.9447,-5.8717,-5.8638,-5.8442,-5.7606,-5.7423,-5.7456,-5.7357,-5.746,-5.7151,-5.5534,-5.6108,-5.6478,-5.4632,-5.4859,-5.5409,-5.5409,-5.5409,-5.5215,-5.4535,-5.4082,-5.3531,-5.2786,-5.2074,-5.1491,-5.107,-4.9807,-4.8602,-4.7916,-4.6888,-4.6309,-4.6371,-4.498,-4.4658,-4.5726,-4.5079,-4.4784,-4.5194,-4.4841,-4.469,-4.4812,-4.3913,-4.346,-4.3493,-4.3009,-4.2558,-4.2172,-4.2173,-4.2238,-5.6792,-6.0641,-6.3835,-6.152,-6.1152,-6.0267,-5.596,-5.2365,-4.7799,-4.0415,-3.7307,-3.467,-3.0607,-3.1505,-3.4345,-3.8999,-4.2648,-4.7572,-5.515,-5.7093,-5.9198,-6.3246,-6.3311,-6.3894,-6.6031,-6.6161,-6.6452,-6.7262,-6.6744,-6.6226,-6.5801,-6.6161,-6.6906,-6.8039,-6.8136,-6.8169,-6.8072,-6.7392,-6.6711,-6.6096,-6.5287,-6.4574,-6.4024,-6.4024,-6.4024,-6.4024,-6.4024,-6.4024,-6.4024,-6.4024,-6.4024,-6.4024,-6.4024,-6.4024,-6.3926,-6.3459,-6.2834,-6.2118,-6.1633,-6.1,-6.0206,-5.9892,-5.9469,-5.9154,-5.9056,-5.8652,-5.8264,-5.815,-5.7821,-5.7621,-5.8035,-5.8183,-5.7936,-5.6955,-5.7131,-5.7158,-5.5604,-5.5345,-5.5409,-5.5409,-5.5409,-5.5215,-5.4632,-5.447,-5.4179,-5.3563,-5.2721,-5.2203,-5.2203,-5.0973,-4.9572,-4.82,-4.74,-4.6726,-4.5975,-4.5336,-4.5176,-4.5759,-4.5791,-4.5726,-4.5698,-4.5656,-4.5435,-4.4947,-4.4554,-4.4163,-4.3813,-4.3455,-4.2815,-4.2103,-4.1979,-4.1948,-5.9949,-6.2301,-6.448,-6.2741,-6.0764,-5.8065,-5.3994,-4.7972,-4.184,-3.695,-3.201,-2.8712,-2.8962,-3.0291,-3.3307,-3.9372,-4.3298,-4.7767,-5.3887,-5.6899,-5.9393,-6.1886,-6.3149,-6.4671,-6.6776,-6.6452,-6.6647,-6.791,-6.791,-6.778,-6.775,-6.778,-6.7683,-6.7359,-6.791,-6.791,-6.7359,-6.6647,-6.6226,-6.6096,-6.4801,-6.4121,-6.4024,-6.4024,-6.4024,-6.4024,-6.4024,-6.4024,-6.4024,-6.4024,-6.4024,-6.4024,-6.4024,-6.4024,-6.3926,-6.3427,-6.262,-6.1815,-6.1545,-6.0739,-5.9804,-5.9979,-6.0001,-5.9773,-5.9186,-5.8926,-5.8652,-5.7854,-5.7588,-5.7522,-5.7573,-5.7871,-5.7838,-5.6368,-5.6806,-5.7029,-5.5021,-5.5021,-5.5409,-5.5409,-5.5409,-5.5377,-5.5247,-5.4762,-5.4373,-5.4244,-5.3045,-5.2203,-5.2203,-5.0973,-5.0001,-4.9701,-4.8433,-4.7555,-4.7567,-4.6302,-4.5559,-4.5791,-4.5791,-4.5567,-4.4984,-4.4984,-4.521,-4.5624,-4.446,-4.4264,-4.523,-4.4042,-4.3266,-4.294,-4.2333,-4.2045,-6.0897,-6.2747,-6.4641,-6.2555,-5.9388,-5.5345,-4.9336,-4.3555,-3.7611,-3.1005,-2.8127,-2.6672,-2.6178,-2.8159,-3.1505,-3.6388,-4.0215,-4.4821,-5.1264,-5.4632,-5.7644,-6.0882,-6.289,-6.4542,-6.5934,-6.574,-6.5967,-6.7035,-6.71,-6.7424,-6.8169,-6.8201,-6.7877,-6.7197,-6.7845,-6.7683,-6.6647,-6.629,-6.5934,-6.5546,-6.4509,-6.4024,-6.4024,-6.438,-6.4542,-6.4574,-6.493,-6.4477,-6.3473,-6.425,-6.3862,-6.2955,-6.37,-6.4024,-6.3926,-6.3459,-6.2711,-6.1905,-6.1457,-6.0652,-5.9892,-5.9892,-5.9892,-5.9827,-5.9502,-5.9372,-5.9177,-5.8525,-5.8314,-5.8314,-5.8314,-5.8493,-5.8391,-5.7456,-5.7437,-5.7093,-5.5312,-5.5474,-5.5863,-5.5474,-5.5409,-5.5409,-5.5409,-5.515,-5.4924,-5.4924,-5.3693,-5.2786,-5.2786,-5.1556,-5.0519,-4.9983,-4.9337,-4.8659,-4.7916,-4.7238,-4.6726,-4.6374,-4.6374,-4.6086,-4.5373,-4.5341,-4.5437,-4.5659,-4.5139,-4.5069,-4.5576,-4.5014,-4.4138,-4.3227,-4.2845,-4.2621,-6.153,-6.3288,-6.4734,-6.2173,-5.8125,-5.2786,-4.5469,-3.9787,-3.399,-2.6529,-2.5501,-2.5538,-2.4302,-2.6613,-2.9892,-3.3632,-3.6702,-4.1216,-4.8382,-5.1912,-5.5345,-5.9814,-6.2372,-6.4088,-6.493,-6.5027,-6.5319,-6.6031,-6.6096,-6.6711,-6.8136,-6.8201,-6.7813,-6.6971,-6.778,-6.7456,-6.5902,-6.6031,-6.574,-6.5027,-6.4347,-6.4024,-6.4024,-6.4574,-6.4801,-6.4833,-6.5416,-6.4509,-6.2885,-6.4218,-6.3635,-6.2042,-6.3441,-6.4024,-6.3926,-6.3459,-6.2834,-6.2118,-6.1457,-6.0739,-6.0152,-5.9892,-5.9804,-5.9716,-5.9716,-5.9619,-5.9447,-5.9101,-5.8926,-5.8828,-5.8991,-5.9023,-5.8938,-5.8648,-5.8097,-5.7255,-5.6122,-5.6316,-5.6543,-5.5992,-5.5863,-5.583,-5.5668,-5.5636,-5.5604,-5.5442,-5.4211,-5.3337,-5.3337,-5.2074,-5.0898,-5.0166,-5.0047,-4.9572,-4.8329,-4.8013,-4.7664,-4.7151,-4.692,-4.65,-4.5824,-4.5791,-4.5729,-4.5636,-4.5788,-4.5773,-4.58,-4.5753,-4.504,-4.3671,-4.3451,-4.3323,-6.3024,-6.4317,-6.4542,-6.2652,-5.7275,-5.1015,-4.5342,-3.7622,-3.0628,-2.729,-2.4661,-2.3521,-2.5252,-2.6841,-2.9274,-3.3486,-3.4961,-3.8278,-4.6083,-4.9677,-5.3304,-5.8259,-6.1303,-6.3538,-6.4898,-6.5027,-6.5319,-6.6031,-6.6096,-6.6711,-6.8136,-6.8201,-6.7586,-6.6258,-6.7489,-6.7197,-6.5157,-6.5772,-6.574,-6.5027,-6.4347,-6.4024,-6.4024,-6.4088,-6.4088,-6.4121,-6.4185,-6.3437,-6.2321,-6.3599,-6.3307,-6.2256,-6.3534,-6.4024,-6.3926,-6.3427,-6.2802,-6.2207,-6.1808,-6.1172,-6.0378,-6.0292,-6.0066,-5.9716,-5.9716,-5.935,-5.9036,-5.9023,-5.8619,-5.8427,-5.886,-5.9023,-5.8938,-5.8648,-5.8097,-5.7547,-5.7417,-5.7417,-5.745,-5.7385,-5.7385,-5.7158,-5.651,-5.6413,-5.6187,-5.5507,-5.4211,-5.3337,-5.3337,-5.2074,-5.1167,-5.1102,-5.0338,-4.9812,-4.9831,-4.8345,-4.7605,-4.7896,-4.693,-4.6223,-4.5824,-4.5656,-4.5696,-4.5799,-4.5794,-4.6039,-4.6512,-4.5906,-4.5452,-4.5117,-4.4445,-4.4125,-5.9935,-6.2809,-6.4504,-6.1483,-5.6107,-4.9848,-4.2905,-3.6007,-2.9859,-2.5691,-2.3974,-2.3357,-2.3783,-2.4987,-2.6938,-2.9978,0.0,0.0,-4.1938,-4.4755,-4.8673,-5.5863,-5.8842,-6.1239,-6.3505,-6.4153,-6.4898,-6.6031,-6.6096,-6.6711,-6.8136,-6.7813,-6.7327,-6.6776,-6.7294,-6.6776,-6.506,-6.574,-6.574,-6.5027,-6.4768,-6.4606,-6.4606,-6.4606,-6.4412,-6.4056,-6.4898,-6.3566,-6.102,-6.3599,-6.3112,-6.1052,-6.321,-6.3858,-6.3497,-6.3297,-6.2721,-6.1852,-6.147,-6.0913,-6.0378,-6.0239,-5.9979,-5.9716,-5.9716,-5.961,-5.9372,-5.9068,-5.9036,-5.9101,-5.9056,-5.9263,-5.9285,-5.8745,-5.8745,-5.8615,-5.7773,-5.7903,-5.8097,-5.7644,-5.7579,-5.7352,-5.6608,-5.651,-5.6251,-5.5539,-5.4211,-5.3337,-5.3337,-5.2074,-5.1199,-5.1199,-5.0865,-5.051,-5.0131,-4.9434,-4.8756,-4.8058,-4.749,-4.6872,-4.6306,-4.5846,-4.5749,-4.612,-4.5888,-4.6076,-4.6615,-4.6325,-4.5902,-4.5277,-4.4989,-4.4861,-5.5781,-6.0001,-6.2815,-5.9295,-5.3984,-4.7702,-4.048,-3.4168,-2.8558,-2.4132,-2.3419,-2.3324,-2.2474,-2.3782,-2.5635,0.0,0.0,-3.196,-3.8951,-4.1484,-4.5273,-5.2398,-5.5312,-5.8032,-6.1303,-6.3084,-6.4606,-6.5999,-6.5708,-6.6193,-6.7813,-6.723,-6.6971,-6.7165,-6.7392,-6.6679,-6.506,-6.5967,-6.5869,-6.4736,-6.493,-6.4704,-6.4088,-6.4542,-6.4218,-6.3441,-6.4866,-6.3599,-6.0825,-6.3599,-6.308,-6.0825,-6.301,-6.3562,-6.3258,-6.2983,-6.2431,-6.1686,-6.1229,-6.0803,-6.0463,-6.0206,-6.0066,-5.9804,-5.9716,-5.9716,-5.9619,-5.9307,-5.9415,-5.9587,-5.9275,-5.9447,-5.9587,-5.9069,-5.9328,-5.9425,-5.8421,-5.8615,-5.881,-5.8292,-5.8194,-5.7968,-5.7255,-5.6964,-5.6575,-5.5863,-5.4325,-5.3355,-5.3628,-5.2398,-5.1523,-5.1491,-5.1491,-5.1199,-5.0487,-5.0154,-4.9604,-4.8673,-4.7974,-4.7316,-4.6948,-4.6185,-4.5923,-4.6362,-4.6104,-4.6099,-4.6512,-4.6474,-4.6147,-4.5559,-4.5597,-4.5667,-5.1177,-5.5928,-5.9069,-5.6187,-5.0617,-4.4366,-3.8634,-3.188,-2.5989,-2.3127,-2.3095,-2.3226,-2.1944,-2.3846,-2.6146,-2.7853,-2.9675,-3.2724,-3.7861,-4.0929,-4.4043,-4.767,-5.0552,-5.3952,-5.8259,-6.1919,-6.4606,-6.5999,-6.4833,-6.4963,-6.71,-6.6517,-6.6452,-6.7165,-6.7845,-6.7165,-6.506,-6.6452,-6.6129,-6.4024,-6.4704,-6.3926,-6.1886,-6.3344,-6.3214,-6.1919,-6.3408,-6.3274,-6.2313,-6.3501,-6.3242,-6.2248,-6.303,-6.329,-6.3219,-6.2191,-6.1838,-6.1706,-6.1267,-6.0919,-6.0633,-6.0463,-6.0239,-6.0066,-5.9804,-5.9716,-5.9716,-5.9716,-5.9716,-5.9716,-5.9716,-5.9716,-5.9716,-5.9716,-5.9716,-5.9716,-5.9684,-5.9684,-5.9716,-5.9684,-5.9684,-5.9457,-5.8745,-5.8032,-5.732,-5.6608,-5.4713,-5.3567,-5.4308,-5.3096,-5.2223,-5.2203,-5.2171,-5.1912,-5.1232,-5.037,-4.9918,-5.0075,-4.8231,-4.7276,-4.7645,-4.6629,-4.6279,-4.6582,-4.6397,-4.6326,-4.6262,-4.6152,-4.6112,-4.608,-4.6191,-4.6545,-4.2187,-4.5794,-4.8091,-4.5241,-4.1905,-3.8084,-3.3389,0.0,-2.5297,-2.2964,-2.2671,-2.2671,-2.2312,-2.3679,-2.5848,-2.8902,-3.0238,-3.2676,-3.7751,-4.0507,-4.414,-5.0163,-5.6446,-6.0979,-6.2825,-6.3635,-6.4606,-6.5999,-6.5222,-6.5416,-6.71,-6.6485,-6.6452,-6.7165,-6.6906,-6.6226,-6.5027,-6.5481,-6.5384,-6.4704,-6.493,-6.4153,-6.2566,-6.357,-6.3214,-6.1886,-6.3376,-6.3274,-6.2313,-6.3501,-6.3042,-6.1741,-6.2769,-6.2852,-6.2289,-6.1916,-6.1593,-6.1249,-6.0901,-6.0633,-6.0463,-6.0378,-6.0152,-5.9804,-5.9979,-5.9892,-5.9716,-5.9716,-5.9716,-5.9716,-5.9716,-5.9716,-5.9716,-5.9716,-5.9716,-5.9716,-5.9716,-5.9716,-5.9716,-5.9716,-5.9716,-5.9328,-5.813,-5.7721,-5.7203,-5.596,-5.4794,-5.418,-5.4388,-5.3531,-5.2741,-5.2268,-5.2203,-5.1912,-5.1232,-5.0898,-5.0542,-5.0098,-4.9256,-4.8552,-4.824,-4.7266,-4.6843,-4.6925,-4.655,-4.6294,-4.6262,-4.6152,-4.6184,-4.6223,-4.6262,-4.6218,0.0,-3.891,-4.116,-3.8918,-3.6324,0.0,0.0,0.0,-2.4102,-2.2834,-2.2899,-2.3158,-2.2997,-2.4265,-2.6113,-2.8519,-3.0238,-3.2611,-3.6377,-3.943,-4.3911,-5.088,-5.7275,-6.1757,-6.3372,-6.3797,-6.4477,-6.561,-6.506,-6.5287,-6.6711,-6.6096,-6.5902,-6.6355,-6.6193,-6.5772,-6.5027,-6.5287,-6.5157,-6.4639,-6.4898,-6.4121,-6.2502,-6.3538,-6.3214,-6.1886,-6.3084,-6.3177,0.0,-6.3107,-6.2841,-6.2044,-6.246,-6.2409,-6.1994,-6.1692,-6.1315,-6.0919,-6.0919,-6.0548,-6.0325,-6.0378,-6.0066,-5.9716,-5.9892,-5.9804,-5.9716,-5.9716,-5.9716,-5.9716,-5.9716,-5.9716,-5.9716,-5.9716,-5.9716,-5.9716,-5.9716,-5.9716,-5.9716,-5.9716,-5.9716,-5.936,-5.8206,-5.7818,-5.7236,-5.5956,-5.5002,-5.4487,-5.4777,-5.4131,-5.3549,-5.3078,-5.2786,-5.2333,-5.162,-5.1329,-5.1005,-5.0519,-4.9984,-4.9405,-4.902,-4.8073,-4.7575,-4.7617,-4.7171,-4.6789,-4.6606,-4.6207,-4.608,-4.6223,-4.6223,-4.6109,0.0,-3.4183,-3.7005,-3.5662,-3.2804,-2.9859,0.0,0.0,0.0,0.0,0.0,-2.4427,-2.4012,-2.5501,-2.6958,-2.7361,-3.0098,-3.2772,-3.4529,-3.8721,-4.3905,-5.0096,-5.4449,-5.8053,-6.075,-6.288,-6.4283,-6.4963,-6.4445,-6.4671,-6.6031,-6.5416,-6.5027,-6.5027,-6.5578,-6.5578,-6.4963,-6.561,-6.5254,-6.3862,-6.4606,-6.3764,-6.1627,-6.3214,-6.3117,-6.1789,-6.2566,-6.289,-6.2825,-6.2451,-6.2425,-6.2691,-6.1983,-6.2026,-6.2245,-6.133,-6.0919,-6.0717,-6.0919,-6.0666,-6.0152,-6.0325,-6.0066,-5.9716,-5.9716,-5.9716,-5.9716,-5.9716,-5.9716,-5.9716,-5.9716,-5.9716,-5.9716,-5.9716,-5.9716,-5.9716,-5.9716,-5.9716,-5.9716,-5.9716,-5.9684,-5.9402,-5.8654,-5.7958,-5.7268,-5.655,-5.5274,-5.468,-5.5345,-5.4826,-5.4358,-5.4341,-5.3661,-5.2948,-5.2203,-5.1556,-5.1199,-5.1199,-5.0392,-4.9855,-4.9908,-4.8839,-4.837,-4.8541,-4.8136,-4.7605,-4.7098,-4.6244,-4.5927,-4.6112,-4.6112,-4.6294,-2.2606,0.0,-2.6096,-2.5285,-2.4435,-2.3849,0.0,0.0,0.0,0.0,0.0,0.0,0.0,-2.7275,-2.8864,-3.0563,-3.2399,-3.4489,-3.7102,-4.4432,-4.988,-5.096,-5.7696,-6.1433,-5.9415,-6.2113,-6.4283,-6.4963,-6.4866,-6.5189,-6.6064,-6.5416,-6.5027,-6.5027,-6.4341,-6.4049,-6.425,-6.4412,-6.3764,-6.234,-6.3635,-6.2534,-5.9457,-6.1983,-6.2372,-6.1109,-6.234,-6.289,-6.289,-6.282,-6.2295,-6.1508,-6.1359,-6.1142,-6.0869,-6.0594,-6.0548,-6.0463,-6.0548,-6.041,-6.0066,-5.9892,-5.9804,-5.9716,-5.9716,-5.9716,-5.9716,-5.9716,-5.9716,-5.9716,-5.9716,-5.9716,-5.9716,-5.9716,-5.9716,-5.9716,-5.9716,-5.9716,-5.9716,-5.9716,-5.9198,-5.8626,-5.7964,-5.7216,-5.6537,-5.578,-5.5392,-5.5198,-5.5409,-5.4794,-5.4179,-5.3628,-5.2916,-5.2171,-5.1491,-5.1264,-5.1199,-5.1199,-5.0843,-5.0671,-5.0639,-4.9585,-4.9006,-4.9018,-4.8314,-4.753,-4.6877,-4.6645,-4.637,-4.6112,-4.6112,-4.6223,-1.9306,-2.0942,-2.2671,-2.3358,-2.3063,-2.2866,0.0,0.0,0.0,0.0,0.0,0.0,0.0,-2.8192,-2.9848,-3.1342,-3.3016,-3.5837,-4.0794,-4.628,-5.0918,-5.4105,-5.8105,-6.0688,-6.1223,-6.295,-6.4283,-6.4963,-6.4736,-6.4736,-6.5125,-6.4539,-6.4081,-6.3757,-6.3193,-6.3128,-6.3659,-6.3459,-6.2548,-6.1117,-6.249,-6.184,-5.9285,-6.14,-6.1983,-6.1239,-6.1044,-6.1303,-6.1854,-6.0939,-6.0769,-6.0931,-6.0837,-6.0761,-6.0663,-6.0509,-6.0292,-6.0325,-6.0378,-6.0325,-6.0066,-5.9804,-5.9716,-5.9716,-5.9716,-5.9716,-5.9716,-5.9716,-5.9716,-5.9716,-5.9716,-5.9716,-5.9716,-5.9716,-5.9716,-5.9716,-5.9716,-5.9716,-5.9716,-5.9716,-5.9079,-5.84,-5.7688,-5.7307,-5.677,-5.6027,-5.6214,-5.6316,-5.5924,-5.5312,-5.455,-5.3896,-5.3123,-5.243,-5.1718,-5.1653,-5.1523,-5.1199,-5.1124,-5.1048,-5.1048,-5.0358,-4.9936,-4.9705,-4.8853,-4.8162,-4.7751,-4.7435,-4.7035,-4.6412,-4.6485,-4.647,-1.862,-2.0622,-2.3028,-2.486,-2.4405,-2.3949,0.0,0.0,0.0,0.0,0.0,0.0,0.0,-2.9371,-3.1128,-3.1616,-3.3843,-3.7838,-4.469,-4.7163,-5.0579,-5.6824,-5.7688,-5.9242,-6.316,-6.3757,-6.4121,-6.4801,-6.4215,-6.3826,-6.3829,-6.3427,-6.2834,-6.2126,-6.2264,-6.2493,-6.29,-6.2623,-6.1731,-6.0292,-6.1499,-6.1312,-5.9849,-6.1101,-6.166,-6.1562,-5.9749,-5.9652,-6.0656,-5.9068,-5.9242,-6.0558,-6.0381,-6.0511,-6.0792,-6.0435,-6.0239,-6.0066,-6.0206,-6.0152,-5.9979,-5.9804,-5.9716,-5.9716,-5.9716,-5.9716,-5.9716,-5.9716,-5.9716,-5.9716,-5.9716,-5.9716,-5.9716,-5.9716,-5.9716,-5.9716,-5.9716,-5.9716,-5.9652,-5.9512,-5.8991,-5.8345,-5.774,-5.7593,-5.7312,-5.6622,-5.7098,-5.7312,-5.6573,-5.5892,-5.5166,-5.4574,-5.3786,-5.3045,-5.2353,-5.2268,-5.1944,-5.1361,-5.1232,-5.1199,-5.1199,-5.0972,-5.0666,-5.0356,-4.9519,-4.8983,-4.8889,-4.832,-4.7688,-4.6961,-4.7014,-4.6739,-2.0348,-2.2182,-2.3354,-2.3162,-2.2998,-2.3325,0.0,0.0,0.0,0.0,0.0,0.0,0.0,-3.3032,-3.5137,-3.467,-3.8544,-4.3186,-4.747,-5.1893,-5.46,-5.4456,-5.9545,-6.2191,-5.9772,-6.184,-6.3654,-6.4337,-6.3349,-6.286,-6.3297,-6.2769,-6.2223,-6.1912,-6.1685,-6.16,-6.1434,-6.1955,-6.1555,-6.0152,-6.1321,-6.0753,-5.8842,-6.0299,-6.0947,-6.0947,-6.0623,-6.0591,-6.0785,-6.0429,-6.0137,-5.9878,-5.9837,-5.9869,-5.9966,-5.9837,-5.9804,-5.9804,-5.9804,-5.9804,-5.9716,-5.9716,-5.9716,-5.9716,-5.9716,-5.9716,-5.9716,-5.9716,-5.9716,-5.9716,-5.9716,-5.9716,-5.9716,-5.9716,-5.9716,-5.9716,-5.9716,-5.9716,-5.9534,-5.8838,-5.8657,-5.8345,-5.774,-5.7593,-5.7312,-5.6622,-5.7125,-5.7309,-5.6622,-5.5834,-5.5345,-5.5264,-5.4049,-5.3193,-5.2907,-5.2482,-5.2094,-5.1843,-5.1447,-5.1124,-5.0972,-5.0743,-5.0512,-5.0324,-4.9915,-4.9489,-4.8889,-4.8794,-4.8383,-4.7719,-4.7087,-4.6814,-1.8555,-2.0456,-2.2606,-2.3419,-2.4305,-2.5553,0.0,0.0,0.0,0.0,0.0,0.0,0.0,-3.3908,-3.6722,-3.9487,-4.4362,-4.8387,-5.0096,-5.2655,-5.4808,-5.6039,-5.8703,-6.0435,-6.0163,-6.1783,-6.3015,-6.3342,-6.2754,-6.2273,-6.2118,-6.1792,-6.1345,-6.0866,-6.0586,-6.0365,-6.0279,-6.0247,-5.9834,-5.9095,-6.0272,-5.9924,-5.83,-5.9555,-6.0202,-6.017,-5.9393,-5.949,-6.017,-5.936,-5.9328,-5.9716,-5.9716,-5.9716,-5.9716,-5.9716,-5.9716,-5.9716,-5.9716,-5.9716,-5.9716,-5.9716,-5.9716,-5.9716,-5.9716,-5.9716,-5.9716,-5.9716,-5.9716,-5.9716,-5.9716,-5.9716,-5.9716,-5.9716,-5.9716,-5.9564,-5.9185,-5.9434,-5.9457,-5.8775,-5.8594,-5.8517,-5.8215,-5.8118,-5.8012,-5.7684,-5.7893,-5.7871,-5.7194,-5.6099,-5.5247,-5.4907,-5.4276,-5.3679,-5.3179,-5.3291,-5.2805,-5.1565,-5.1286,-5.1199,-5.1048,-5.0896,-5.0743,-5.0589,-5.0434,-5.0087,-4.9691,-4.9691,-4.9265,-4.8415,-4.7719,-4.7182,-1.7427,-1.9246,-2.1922,-2.4035,0.0,0.0,0.0,0.0,0.0,0.0,0.0,0.0,-3.2951,-3.5519,-3.8907,-4.4003,-4.8911,-5.2368,-5.3132,-5.4152,-5.585,-5.8757,-5.8757,-5.938,-6.1437,-6.2081,-6.2212,-6.2048,-6.1829,-6.1382,-6.0739,-6.0544,-6.0283,-5.9838,-5.9512,-5.9367,-5.9284,-5.884,-5.8494,-5.8363,-5.9389,-5.9251,-5.8242,-5.922,-5.9716,-5.9652,-5.8551,-5.8713,-5.9619,-5.8518,-5.8713,-5.9716,-5.9716,-5.9716,-5.9716,-5.9716,-5.9716,-5.9716,-5.9716,-5.9716,-5.9716,-5.9716,-5.9716,-5.9716,-5.9716,-5.9716,-5.9716,-5.9716,-5.9716,-5.9716,-5.9716,-5.9716,-5.9716,-5.9716,-5.9716,-5.9531,-5.8968,-5.9263,-5.9502,-5.8742,-5.8719,-5.8807,-5.8668,-5.871,-5.8839,-5.8622,-5.8743,-5.854,-5.7753,-5.6589,-5.5685,-5.4939,-5.4697,-5.4341,-5.3628,-5.384,-5.3355,-5.1782,-5.1523,-5.1329,-5.1199,-5.0972,-5.0896,-5.0896,-5.0666,-5.0512,-5.0356,-5.0356,-4.9992,-4.9265,-4.8523,-4.789,-1.9694,-2.0868,-2.2079,-2.4174,-2.3816,0.0,-3.1486,-2.975,0.0,-3.4706,-3.5291,-3.5389,-3.7501,-4.0339,-4.3418,-4.6716,-5.0566,-5.4105,-5.6933,-5.915,-6.0804,-6.1475,-6.2134,-6.2421,-6.2207,-6.2005,-6.1468,-6.064,-6.0289,-5.9944,-5.946,-5.9004,-5.8855,-5.9088,-5.879,-5.856,-5.8314,-5.8527,-5.8576,-5.8609,-5.8899,-5.9056,-5.8958,-5.9447,-5.9716,-5.9716,-5.9587,-5.9619,-5.9716,-5.9587,-5.9619,-5.9716,-5.9716,-5.9716,-5.9716,-5.9716,-5.9716,-5.9716,-5.9716,-5.9716,-5.9716,-5.9716,-5.9716,-5.9716,-5.9716,-5.9716,-5.9716,-5.9716,-5.9716,-5.9716,-5.9716,-5.9716,-5.9716,-5.9716,-5.9716,-5.9716,-5.9652,-5.9638,-5.9514,-5.8733,-5.9153,-5.936,-5.8743,-5.9156,-5.9402,-5.8687,-5.9208,-5.9134,-5.7797,-5.7482,-5.7196,-5.6413,-5.5733,-5.5053,-5.4373,-5.3599,-5.3068,-5.3175,-5.2495,-5.1847,-5.1199,-5.0972,-5.0896,-5.0896,-5.0666,-5.0589,-5.0589,-5.0589,-5.0557,-5.0493,-4.9528,-4.9101,-1.8003,-2.0012,-2.2834,-2.5306,-2.5208,0.0,0.0,-3.172,-3.2092,-3.8358,-3.8089,-3.7101,-3.8316,-4.1874,-4.5403,-4.7767,-5.1822,-5.5412,-5.7508,-5.8933,-5.9827,-6.001,-6.0225,-6.0307,-5.9971,-5.9876,-5.9696,-5.9267,-5.9054,-5.8889,-5.8889,-5.8577,-5.8379,-5.8307,-5.8035,-5.7723,-5.7314,-5.7263,-5.7146,-5.7099,-5.7919,-5.8222,-5.8203,-5.8713,-5.881,-5.8421,-5.9328,-5.9457,-5.9069,-5.9522,-5.9716,-5.9716,-5.9716,-5.9716,-5.9716,-5.9716,-5.9716,-5.9716,-5.9716,-5.9716,-5.9716,-5.9716,-5.9716,-5.9716,-5.9716,-5.9716,-5.9716,-5.9716,-5.9716,-5.9716,-5.9716,-5.9716,-5.9716,-5.9716,-5.9716,-5.9531,-5.912,-5.9404,-5.9512,-5.8742,-5.9185,-5.9587,-5.9318,-5.9577,-5.9652,-5.937,-5.9166,-5.8648,-5.7688,-5.7191,-5.6658,-5.5895,-5.5571,-5.5312,-5.5053,-5.4713,-5.4358,-5.4017,-5.2462,-5.1653,-5.1815,-5.135,-5.1124,-5.1124,-5.1048,-5.0896,-5.082,-5.082,-5.0743,-5.0557,-4.9623,-4.9197,-1.7377,-1.9635,-2.2965,-2.5505,0.0,0.0,-3.3535,-3.4088,-3.5052,-4.1146,-4.1108,-4.0123,-4.0554,-4.3309,-4.6224,-4.8622,-5.2488,-5.5776,-5.7541,-5.8436,-5.8899,-5.8899,-5.8899,-5.8819,-5.8576,-5.8657,-5.8558,-5.8165,-5.8051,-5.797,-5.8051,-5.7691,-5.7577,-5.7525,-5.72,-5.6887,-5.6564,-5.6395,-5.6244,-5.6039,-5.6825,-5.7279,-5.7339,-5.7968,-5.8032,-5.7644,-5.8615,-5.8745,-5.8324,-5.8842,-5.9036,-5.9036,-5.9036,-5.9166,-5.936,-5.936,-5.9522,-5.9716,-5.9716,-5.9716,-5.9716,-5.9716,-5.9716,-5.9716,-5.9716,-5.9716,-5.9716,-5.9716,-5.9716,-5.9716,-5.9716,-5.9716,-5.9716,-5.9716,-5.9716,-5.9531,-5.9088,-5.937,-5.9531,-5.9088,-5.9402,-5.9716,-5.9716,-5.9716,-5.9652,-5.9425,-5.8907,-5.8312,-5.7352,-5.6802,-5.6219,-5.5507,-5.5409,-5.5312,-5.5118,-5.4891,-5.4665,-5.4405,-5.2398,-5.1491,-5.2171,-5.1556,-5.1199,-5.1199,-5.1199,-5.1124,-5.0972,-5.0972,-5.0896,-5.0788,-5.0077,-4.97,-1.8568,-2.0196,-2.2297,-2.4411,0.0,0.0,-3.6776,-3.6778,-3.6961,-4.2986,-4.4689,-4.5082,-4.5082,-4.5114,-4.6192,-4.945,-5.2389,-5.5028,-5.7475,-5.8403,-5.8866,-5.8866,-5.8866,-5.8786,-5.8576,-5.8705,-5.8375,-5.7167,-5.7376,-5.7296,-5.6808,-5.6366,-5.6334,-5.6776,-5.6366,-5.6086,-5.6086,-5.6086,-5.6006,-5.5766,-5.5766,-5.6124,-5.6808,-5.7307,-5.7579,-5.7547,-5.7579,-5.7579,-5.7579,-5.7579,-5.7579,-5.7579,-5.7579,-5.8,-5.8615,-5.8648,-5.9069,-5.9716,-5.9716,-5.9716,-5.9716,-5.9716,-5.9716,-5.9716,-5.9716,-5.9716,-5.9684,-5.9716,-5.9716,-5.9716,-5.9716,-5.9716,-5.9716,-5.9716,-5.9716,-5.9716,-5.9716,-5.9716,-5.9716,-5.9716,-5.9716,-5.9716,-5.9716,-5.9716,-5.9457,-5.8745,-5.8648,-5.813,-5.6672,-5.651,-5.6219,-5.5507,-5.5409,-5.515,-5.447,-5.3758,-5.3628,-5.4341,-5.2398,-5.1491,-5.2171,-5.1556,-5.1199,-5.1199,-5.1199,-5.1199,-5.1199,-5.1199,-5.1199,-5.1199,-5.0972,-5.082,-2.0177,-2.1632,-2.395,-2.7022,0.0,0.0,0.0,-3.7481,0.0,-4.5698,-4.6352,-4.5767,-4.5212,-4.6912,-4.8658,-4.9156,-5.1702,-5.4254,-5.6017,-5.6448,-5.6779,-5.7276,-5.7342,-5.7264,-5.7028,-5.6488,-5.6244,-5.6381,-5.5843,-5.5777,-5.6301,-5.6217,-5.6105,-5.6092,-5.6105,-5.5927,-5.5572,-5.5766,-5.5538,-5.481,-5.481,-5.5166,-5.5848,-5.6478,-5.6543,-5.6122,-5.7126,-5.7288,-5.6867,-5.7352,-5.7579,-5.7579,-5.7579,-5.7709,-5.7935,-5.8453,-5.8777,-5.9036,-5.9555,-5.9716,-5.9619,-5.9101,-5.8972,-5.8939,-5.8961,-5.8637,-5.8421,-5.9425,-5.937,-5.9088,-5.9531,-5.9716,-5.9716,-5.9716,-5.9716,-5.9716,-5.9716,-5.9716,-5.9716,-5.9716,-5.9716,-5.9716,-5.9716,-5.9716,-5.9457,-5.8745,-5.8442,-5.784,-5.6453,-5.6427,-5.6219,-5.5507,-5.5409,-5.515,-5.447,-5.4211,-5.3952,-5.3661,-5.2527,-5.2236,-5.2948,-5.1815,-5.1199,-5.1199,-5.1199,-5.1199,-5.1199,-5.1199,-5.1199,-5.1199,-5.0972,-5.082,-2.1121,-2.3092,-2.602,-2.9802,-3.2229,-3.443,-3.7404,-3.9911,-4.3154,-4.8654,-4.8372,-4.74,-4.8413,-4.8977,-4.9674,-5.0801,-5.2561,-5.4088,-5.5057,-5.5454,-5.5686,-5.5819,-5.6007,-5.5996,-5.5699,-5.5489,-5.5365,-5.5312,-5.4652,-5.4542,-5.5044,-5.4783,-5.4593,-5.476,-5.4919,-5.484,-5.46,-5.476,-5.4565,-5.3984,-5.3984,-5.4179,-5.46,-5.5345,-5.5409,-5.5053,-5.5928,-5.6057,-5.5733,-5.6413,-5.6705,-5.6705,-5.6705,-5.6899,-5.7191,-5.7611,-5.7968,-5.8292,-5.8713,-5.8874,-5.8777,-5.8356,-5.8227,-5.8194,-5.8247,-5.7956,-5.7741,-5.8637,-5.8701,-5.8742,-5.9198,-5.9457,-5.9716,-5.9716,-5.9716,-5.9716,-5.9716,-5.949,-5.936,-5.9652,-5.949,-5.9393,-5.9652,-5.949,-5.9036,-5.8324,-5.7624,-5.6989,-5.6408,-5.6168,-5.5992,-5.5863,-5.5571,-5.5021,-5.4049,-5.3984,-5.379,-5.3337,-5.2624,-5.2527,-5.3304,-5.1944,-5.1199,-5.1199,-5.1199,-5.1199,-5.1199,-5.1199,-5.1199,-5.1199,-5.1048,-5.0896,-2.1831,-2.4446,-2.803,-3.2348,-3.425,-3.6364,-4.1238,-4.3353,-4.5832,-5.1173,-5.0163,-4.9355,-5.2899,-5.0798,-4.9654,-5.3231,-5.3865,-5.4006,-5.4221,-5.4924,-5.5123,-5.4593,-5.4939,-5.5028,-5.4518,-5.527,-5.5345,-5.4251,-5.3782,-5.3551,-5.3616,-5.2811,-5.2624,-5.3304,-5.3337,-5.3337,-5.3337,-5.324,-5.3207,-5.3207,-5.3142,-5.3175,-5.324,-5.3984,-5.4308,-5.4308,-5.4308,-5.4308,-5.4341,-5.5053,-5.528,-5.5247,-5.528,-5.5701,-5.6219,-5.6349,-5.6802,-5.7385,-5.7514,-5.7579,-5.7579,-5.7482,-5.7482,-5.7482,-5.7534,-5.7417,-5.7469,-5.7553,-5.7947,-5.8452,-5.8551,-5.9069,-5.9619,-5.9619,-5.9652,-5.9716,-5.9716,-5.9134,-5.8842,-5.9587,-5.9134,-5.8874,-5.9587,-5.9166,-5.8453,-5.7676,-5.6413,-5.5733,-5.6316,-5.5895,-5.5733,-5.6349,-5.5798,-5.4891,-5.3531,-5.3369,-5.3337,-5.3337,-5.2624,-5.2527,-5.3304,-5.2009,-5.1232,-5.1199,-5.1199,-5.1199,-5.1199,-5.1199,-5.1199,-5.1199,-5.1199,-5.1124,-2.4113,-2.5307,0.0,-3.2282,-3.6135,-4.0148,-4.5503,-4.6021,-4.6248,-4.9199,-4.8946,-4.8828,-5.079,-5.0602,-5.0287,-5.073,-5.1437,-5.2175,-5.2771,-5.297,-5.3434,-5.4394,-5.4585,-5.4618,-5.4527,-5.4039,-5.3856,-5.4227,-5.3442,-5.315,-5.3584,-5.3376,-5.3298,-5.3304,-5.3337,-5.3337,-5.3337,-5.2721,-5.243,-5.243,-5.1912,-5.1912,-5.2462,-5.3207,-5.3563,-5.3563,-5.3563,-5.3563,-5.3596,-5.4341,-5.4276,-5.3823,-5.4405,-5.4373,-5.4146,-5.5247,-5.5733,-5.6057,-5.7191,-5.7579,-5.7482,-5.6899,-5.6737,-5.6788,-5.6791,-5.6351,-5.6089,-5.7261,-5.7307,-5.7171,-5.8324,-5.8745,-5.8874,-5.8874,-5.9295,-5.9716,-5.9716,-5.9134,-5.8842,-5.9587,-5.9134,-5.8874,-5.9587,-5.9587,-5.8949,-5.7485,-5.6718,-5.6039,-5.5486,-5.5942,-5.6089,-5.5701,-5.5507,-5.5086,-5.4244,-5.3661,-5.3337,-5.3337,-5.2624,-5.2527,-5.3304,-5.2462,-5.1718,-5.1199,-5.1199,-5.1199,-5.1199,-5.1199,-5.1199,-5.1199,-5.1199,-5.1124,-2.3243,0.0,0.0,-3.4904,0.0,-4.2932,-4.5404,-4.6475,-4.729,-4.8285,-4.8583,-4.9115,-5.0798,-5.0576,-5.0227,-5.0336,-5.0876,-5.128,-5.1347,-5.1541,-5.1905,-5.2407,-5.2521,-5.2441,-5.2329,-5.2269,-5.2097,-5.1546,-5.123,-5.1084,-5.1043,-5.1002,-5.0983,-5.1264,-5.1264,-5.1264,-5.1264,-5.0876,-5.0681,-5.0681,-5.0325,-5.0519,-5.1232,-5.23,-5.2786,-5.2786,-5.2786,-5.2786,-5.2851,-5.3596,-5.3661,-5.3369,-5.3725,-5.3661,-5.3466,-5.4535,-5.4924,-5.5086,-5.6154,-5.6543,-5.6478,-5.6089,-5.596,-5.596,-5.5994,-5.5718,-5.5571,-5.6334,-5.6546,-5.6676,-5.7423,-5.7891,-5.813,-5.813,-5.8939,-5.9522,-5.8842,-5.8389,-5.8227,-5.8615,-5.8389,-5.8227,-5.8615,-5.8389,-5.7721,-5.6505,-5.6136,-5.5877,-5.5795,-5.5877,-5.596,-5.5928,-5.5312,-5.4632,-5.3952,-5.3531,-5.3337,-5.3337,-5.3272,-5.3434,-5.3823,-5.3466,-5.2754,-5.1685,-5.1329,-5.1199,-5.1199,-5.1199,-5.1199,-5.1199,-5.1199,-5.1124,-2.1735,0.0,-3.1417,-3.7666,-4.1764,-4.4268,-4.3977,-4.5895,-4.772,-4.7675,-4.8356,-4.9336,-5.0903,-5.0124,-4.9473,-5.0204,-5.0545,-5.0551,-5.0088,-5.038,-5.0578,-5.0253,-5.0298,-5.0255,-4.9977,-5.068,-5.0576,-4.8948,-4.9104,-4.8963,-4.8376,-4.8204,-4.8323,-4.8835,-4.8965,-4.903,-4.903,-4.89,-4.89,-4.903,-4.903,-4.9321,-4.9969,-5.1135,-5.1718,-5.1815,-5.1685,-5.1718,-5.1879,-5.2624,-5.2948,-5.2981,-5.3078,-5.3045,-5.3045,-5.3758,-5.4017,-5.4114,-5.4826,-5.5053,-5.5053,-5.5053,-5.5086,-5.5118,-5.5134,-5.515,-5.5166,-5.5247,-5.5734,-5.6206,-5.6352,-5.6871,-5.7352,-5.7307,-5.8292,-5.9004,-5.7838,-5.7482,-5.7417,-5.7547,-5.7579,-5.7611,-5.7741,-5.7061,-5.6284,-5.5701,-5.5507,-5.5636,-5.6219,-5.5798,-5.5604,-5.6089,-5.5086,-5.4114,-5.3369,-5.3337,-5.3369,-5.3499,-5.4082,-5.447,-5.4567,-5.447,-5.3758,-5.243,-5.1718,-5.1297,-5.1199,-5.1199,-5.1199,-5.1199,-5.1199,-5.1199,-2.2546,0.0,-3.3725,0.0,-3.9837,-4.2108,-4.4333,-4.5245,-4.58,-4.6254,-4.7496,-4.8576,-4.867,-4.8256,-4.7967,-4.8133,-4.8299,-4.863,-4.916,-4.9326,-4.9591,-5.0154,-5.0218,-5.0251,-5.0152,-5.0317,-5.0248,-5.0019,-4.9422,-4.8923,-4.8518,-4.8449,-4.8376,-4.8155,-4.8706,-4.903,-4.903,-4.8447,-4.8447,-4.903,-4.903,-4.9062,-4.9159,-4.9354,-4.9775,-5.0357,-4.971,-4.9807,-5.0455,-5.1167,-5.1459,-5.1523,-5.2106,-5.1977,-5.1556,-5.2421,-5.2649,-5.2592,-5.3571,-5.3753,-5.3596,-5.3753,-5.3837,-5.3887,-5.4052,-5.4096,-5.4212,-5.4663,-5.4875,-5.5069,-5.5685,-5.6222,-5.6561,-5.6076,-5.6969,-5.7806,-5.7611,-5.7093,-5.6834,-5.745,-5.7579,-5.7773,-5.8389,-5.7385,-5.6478,-5.6381,-5.583,-5.5442,-5.5539,-5.5474,-5.5215,-5.4729,-5.4503,-5.4114,-5.3369,-5.3337,-5.3596,-5.4211,-5.4341,-5.4665,-5.5247,-5.4729,-5.4017,-5.3175,-5.243,-5.1782,-5.1199,-5.1199,-5.1199,-5.1199,-5.1199,-5.1199,-2.4015,-2.7404,-3.1145,0.0,-3.809,-3.9462,-4.2997,-4.397,-4.436,-4.5408,-4.6291,-4.698,-4.7275,-4.6816,-4.6485,-4.6614,-4.7042,-4.7504,-4.7835,-4.8167,-4.8464,-4.8928,-4.876,-4.8693,-4.8827,-4.8827,-4.8595,-4.8133,-4.8165,-4.7967,-4.7339,-4.7632,-4.7596,-4.7101,-4.7753,-4.7948,-4.7525,-4.7232,-4.7036,-4.6939,-4.7261,-4.7582,-4.8004,-4.7902,-4.8447,-4.9483,-4.9159,-4.9451,-5.0131,-5.0455,-5.0811,-5.1199,-5.1523,-5.1459,-5.1264,-5.2021,-5.228,-5.23,-5.3123,-5.3369,-5.3355,-5.3499,-5.3623,-5.3604,-5.3803,-5.3858,-5.3957,-5.4146,-5.4291,-5.4287,-5.4574,-5.5082,-5.5377,-5.5212,-5.5767,-5.6381,-5.6381,-5.6446,-5.6608,-5.6899,-5.6964,-5.7061,-5.7385,-5.6899,-5.6349,-5.596,-5.5604,-5.5409,-5.5409,-5.5409,-5.515,-5.447,-5.4049,-5.3661,-5.3337,-5.3337,-5.3628,-5.4341,-5.4762,-5.5086,-5.5409,-5.5118,-5.4632,-5.3952,-5.2786,-5.1847,-5.1199,-5.1199,-5.1199,-5.1199,-5.1199,-5.1199,0.0,0.0,-2.7827,-3.3434,-3.5102,-3.6299,-3.9985,-4.1449,-4.2523,-4.4161,-4.4746,-4.5167,-4.5695,-4.5692,-4.5656,-4.5781,-4.6245,-4.6609,-4.6609,-4.6944,-4.7275,-4.7438,-4.7243,-4.7111,-4.721,-4.721,-4.7012,-4.6454,-4.6684,-4.6684,-4.6389,-4.642,-4.642,-4.6389,-4.6913,-4.7011,-4.6651,-4.6651,-4.6389,-4.5897,-4.6061,-4.655,-4.7199,-4.6741,-4.7221,-4.8479,-4.8479,-4.89,-4.958,-4.958,-5.0001,-5.0649,-5.0843,-5.0908,-5.1005,-5.1761,-5.2021,-5.2009,-5.2637,-5.2819,-5.2792,-5.3207,-5.3343,-5.3346,-5.376,-5.3856,-5.3931,-5.4082,-5.4049,-5.4085,-5.4097,-5.4509,-5.484,-5.4756,-5.5085,-5.5409,-5.5409,-5.583,-5.6316,-5.6705,-5.6608,-5.6543,-5.6737,-5.6608,-5.6251,-5.5539,-5.5409,-5.5409,-5.5409,-5.5409,-5.5086,-5.4211,-5.3661,-5.324,-5.3045,-5.3207,-5.3628,-5.4341,-5.5053,-5.5409,-5.5409,-5.5409,-5.5086,-5.4405,-5.3304,-5.2333,-5.1426,-5.1264,-5.1199,-5.1199,-5.1199,-5.1199,0.0,-2.3357,0.0,-2.7636,-3.0095,-3.2497,-3.4658,-3.7242,-3.9808,-4.1737,-4.2873,-4.352,-4.3553,-4.4764,-4.5781,-4.5781,-4.5814,-4.5847,-4.5847,-4.5881,-4.5914,-4.5914,-4.5914,-4.5914,-4.5914,-4.5914,-4.6116,-4.6551,-4.5491,-4.5326,-4.6323,-4.5111,-4.498,-4.6356,-4.6257,-4.6616,-4.7404,-4.7404,-4.7404,-4.7372,-4.6716,-4.6683,-4.7134,-4.593,-4.5961,-4.6989,-4.6989,-4.741,-4.8123,-4.8123,-4.8512,-4.9192,-4.9872,-5.0163,-5.026,-5.1229,-5.1415,-5.1307,-5.1531,-5.1489,-5.1469,-5.2281,-5.2519,-5.2692,-5.3658,-5.3877,-5.4035,-5.4533,-5.468,-5.4681,-5.4644,-5.4987,-5.5264,-5.4775,-5.5085,-5.5409,-5.5409,-5.5442,-5.5863,-5.7255,-5.6964,-5.6705,-5.7417,-5.6931,-5.6251,-5.5539,-5.5409,-5.5409,-5.5409,-5.5409,-5.4891,-5.3531,-5.3337,-5.3045,-5.23,-5.2916,-5.3628,-5.4341,-5.5053,-5.5409,-5.5409,-5.5409,-5.5086,-5.4405,-5.4341,-5.3596,-5.2139,-5.1491,-5.1199,-5.1199,-5.1199,-5.1199,0.0,0.0,0.0,-2.7709,-2.8516,-2.9403,-3.2763,-3.4871,-3.6795,-3.9073,-4.0343,-4.1238,-4.1989,-4.3337,-4.4257,-4.3761,-4.4489,-4.5086,-4.5086,-4.5483,-4.5781,-4.5781,-4.5781,-4.5781,-4.5781,-4.5781,-4.5851,-4.5925,-4.4607,-4.4286,-4.5603,-4.4166,-4.384,-4.4947,-4.5374,-4.5734,-4.6061,-4.6321,-4.6321,-4.6256,-4.6453,-4.6618,-4.6783,-4.6225,-4.6225,-4.655,-4.6415,-4.703,-4.8058,-4.8621,-4.9017,-4.9238,-5.0131,-5.0391,-5.0351,-5.0644,-5.096,-5.1167,-5.1317,-5.1242,-5.1307,-5.1674,-5.2159,-5.262,-5.3068,-5.3549,-5.3984,-5.4148,-5.4164,-5.4161,-5.4189,-5.4579,-5.4955,-5.5069,-5.5329,-5.5409,-5.5409,-5.5409,-5.5571,-5.6286,-5.682,-5.7048,-5.6481,-5.6853,-5.6802,-5.5604,-5.5409,-5.5409,-5.5409,-5.5409,-5.5053,-5.4114,-5.4017,-5.392,-5.3628,-5.3855,-5.4308,-5.5021,-5.528,-5.5409,-5.5409,-5.5409,-5.5312,-5.5053,-5.4632,-5.3661,-5.2203,-5.1944,-5.162,-5.1199,-5.1199,-5.1199,-2.3486,0.0,0.0,-2.6422,-2.6764,-2.7125,-3.0196,-3.2297,-3.4112,-3.5861,-3.7478,-3.8939,-3.9995,-4.1427,-4.2377,-4.2204,-4.2965,-4.3661,-4.3926,-4.439,-4.4787,-4.5019,-4.4991,-4.4991,-4.4991,-4.4991,-4.5028,-4.5105,-4.4019,-4.3892,-4.5273,-4.3932,-4.3473,-4.4256,-4.4812,-4.5173,-4.5466,-4.5425,-4.5487,-4.5593,-4.5593,-4.5956,-4.6584,-4.6059,-4.606,-4.6389,-4.629,-4.6713,-4.7415,-4.8167,-4.8497,-4.8595,-4.9524,-4.9746,-4.9628,-5.0196,-5.057,-5.0898,-5.1135,-5.1199,-5.1232,-5.1609,-5.2017,-5.254,-5.3182,-5.3696,-5.4143,-5.4325,-5.4422,-5.4403,-5.4403,-5.463,-5.4987,-5.5312,-5.5409,-5.5409,-5.5409,-5.5491,-5.5669,-5.6092,-5.7019,-5.7358,-5.632,-5.6969,-5.7093,-5.5636,-5.5409,-5.5409,-5.5409,-5.5409,-5.515,-5.447,-5.4405,-5.4405,-5.4405,-5.4405,-5.4697,-5.5377,-5.5491,-5.5523,-5.5523,-5.5523,-5.5523,-5.5523,-5.4988,-5.4146,-5.2948,-5.243,-5.1847,-5.1199,-5.1199,-5.1199,0.0,0.0,0.0,-2.3322,-2.4659,-2.5852,-2.6673,-2.9434,-3.1867,-3.2163,-3.4464,-3.6685,-3.7544,-3.9018,-4.0282,-4.1087,-4.1375,-4.1707,-4.2377,-4.251,-4.2741,-4.3436,-4.3476,-4.3355,-4.3323,-4.3323,-4.3525,-4.4063,-4.3685,-4.4004,-4.5299,-4.408,-4.3685,-4.441,-4.4443,-4.4896,-4.5748,-4.5052,-4.5052,-4.5748,-4.4357,-4.4665,-4.6518,-4.5289,-4.5329,-4.6454,-4.6519,-4.6389,-4.6124,-4.6738,-4.6892,-4.7026,-4.7846,-4.8134,-4.8181,-4.9812,-5.0278,-5.022,-5.093,-5.1199,-5.134,-5.1945,-5.2183,-5.2476,-5.3915,-5.4403,-5.4485,-5.5183,-5.5409,-5.5377,-5.5409,-5.5409,-5.5409,-5.5409,-5.5409,-5.5409,-5.5409,-5.5604,-5.5961,-5.6645,-5.7362,-5.7623,-5.6906,-5.7228,-5.7061,-5.5636,-5.5409,-5.5409,-5.5409,-5.5409,-5.515,-5.4503,-5.4438,-5.4438,-5.4438,-5.4438,-5.4729,-5.5377,-5.5604,-5.5766,-5.5766,-5.5766,-5.5766,-5.5766,-5.5523,-5.5086,-5.4405,-5.2948,-5.1912,-5.1232,-5.1232,-5.1199,-2.523,0.0,0.0,0.0,0.0,0.0,-2.5875,-2.7939,-2.9976,-3.0349,-3.2144,-3.405,-3.5334,-3.627,-3.696,-3.7312,-3.9985,-4.2268,-4.284,-4.2939,-4.29,-4.2664,-4.2631,-4.24,-4.184,-4.1774,-4.1756,-4.1782,-4.0664,-4.0508,-4.1824,-4.2081,-4.2566,-4.3317,-4.3563,-4.4014,-4.4614,-4.4669,-4.4731,-4.4801,-4.5052,-4.5479,-4.6016,-4.5682,-4.595,-4.6746,-4.5993,-4.5603,-4.5669,-4.7335,-4.7691,-4.7163,-4.8054,-4.8609,-4.9001,-4.9414,-5.0151,-5.093,-5.1135,-5.1199,-5.1199,-5.1404,-5.1826,-5.2398,-5.3323,-5.3582,-5.3855,-5.5086,-5.5053,-5.4794,-5.528,-5.5409,-5.5409,-5.5409,-5.5409,-5.5409,-5.5409,-5.5604,-5.5831,-5.6027,-5.6564,-5.6741,-5.6189,-5.6481,-5.6478,-5.5539,-5.5409,-5.5409,-5.5409,-5.5409,-5.5345,-5.515,-5.515,-5.515,-5.515,-5.515,-5.5215,-5.5409,-5.5491,-5.5523,-5.5523,-5.5523,-5.5523,-5.5523,-5.5409,-5.5086,-5.4405,-5.3984,-5.3434,-5.2721,-5.2171,-5.1912,0.0,0.0,-2.4498,-2.6045,0.0,0.0,-2.5612,-2.7273,-2.8733,-2.7925,-2.9582,-3.1495,-3.2636,-3.3365,-3.4299,-3.5679,-3.7972,-3.9818,-4.0721,-4.1114,-4.1278,-4.1296,-4.1238,-4.1173,-4.1041,-4.1041,-4.0983,-4.0782,-4.0025,-3.9928,-4.0684,-4.0847,-4.1298,-4.2108,-4.1933,-4.2321,-4.3399,-4.3317,-4.3542,-4.4075,-4.4005,-4.4297,-4.4887,-4.4887,-4.5284,-4.598,-4.5659,-4.5403,-4.5373,-4.6651,-4.6943,-4.6675,-4.7304,-4.7861,-4.8311,-4.8694,-4.93,-4.9855,-5.0213,-5.0464,-5.0768,-5.0746,-5.1232,-5.1932,-5.2644,-5.2838,-5.3078,-5.4211,-5.4244,-5.4114,-5.4826,-5.4988,-5.5053,-5.5345,-5.5409,-5.5409,-5.5409,-5.5523,-5.5685,-5.5799,-5.6271,-5.6416,-5.5896,-5.6189,-5.6251,-5.5539,-5.5409,-5.5409,-5.5409,-5.5409,-5.5409,-5.5409,-5.5409,-5.5409,-5.5409,-5.5409,-5.5409,-5.5409,-5.5491,-5.5604,-5.5604,-5.5604,-5.5604,-5.5604,-5.5409,-5.5215,-5.4826,-5.4535,-5.3855,-5.2819,-5.2106,-5.1782,0.0,0.0,0.0,-2.6307,-2.6805,0.0,-2.5693,-2.7232,-2.8176,-2.5681,-2.7304,-2.9383,-2.998,-3.0662,-3.21,-3.4958,-3.5232,-3.5761,-3.7465,-3.833,-3.8952,-3.9378,-3.9429,-3.9732,-4.0261,-4.0326,-4.0359,-4.0424,-4.0606,-4.0729,-4.0794,-4.0148,-4.0116,-4.0983,-4.0246,-4.0598,-4.2268,-4.1692,-4.208,-4.3495,-4.2211,-4.2345,-4.3628,-4.3694,-4.4125,-4.4854,-4.5417,-4.5494,-4.5177,-4.5078,-4.5245,-4.5726,-4.5961,-4.6383,-4.6961,-4.7869,-4.8144,-4.8211,-4.886,-4.9538,-5.0134,-5.0196,-5.0691,-5.1329,-5.2009,-5.2139,-5.2236,-5.2981,-5.3272,-5.3466,-5.4114,-5.4276,-5.4438,-5.5053,-5.5247,-5.528,-5.5183,-5.5312,-5.5491,-5.5588,-5.6222,-5.6483,-5.5896,-5.6124,-5.6154,-5.5507,-5.5409,-5.5409,-5.5409,-5.5409,-5.5409,-5.5409,-5.5409,-5.5409,-5.5409,-5.5409,-5.5409,-5.5409,-5.5604,-5.5799,-5.5799,-5.5799,-5.5799,-5.5799,-5.5523,-5.5409,-5.5409,-5.4794,-5.379,-5.243,-5.175,-5.1361,-2.82,-2.7689,-2.7009,-2.7449,-2.8466,0.0,-2.5869,-2.7475,-2.8889,-2.6753,-2.7701,-2.9072,-2.9343,-2.9905,-3.0499,-3.0979,-3.1332,-3.2838,-3.662,-3.8109,-3.8177,-3.6607,-3.7392,-3.7861,-3.7416,-3.7329,-3.7503,-3.7978,-3.8529,-3.917,-3.9755,-3.974,-4.0058,-4.0808,-4.0794,-4.1238,-4.2268,-4.2144,-4.2301,-4.2734,-4.3024,-4.3322,-4.3628,-4.4224,-4.4826,-4.5395,-4.4933,-4.4582,-4.417,-4.3614,-4.4009,-4.504,-4.562,-4.6306,-4.6994,-4.7792,-4.8348,-4.8931,-4.9616,-4.9961,-5.0196,-5.0778,-5.107,-5.1329,-5.2009,-5.1815,-5.1523,-5.2203,-5.2851,-5.3337,-5.3499,-5.3531,-5.3563,-5.3693,-5.4179,-5.4438,-5.3855,-5.4632,-5.5247,-5.481,-5.5231,-5.5653,-5.5523,-5.5539,-5.5571,-5.5442,-5.5409,-5.5409,-5.5409,-5.5409,-5.5409,-5.5409,-5.5409,-5.5409,-5.5409,-5.5409,-5.5409,-5.5409,-5.5409,-5.5491,-5.5491,-5.5491,-5.5491,-5.5491,-5.5409,-5.5409,-5.5409,-5.528,-5.4794,-5.3952,-5.324,-5.2592,-2.8057,-2.7619,-2.7132,-2.7602,-2.7981,0.0,0.0,-2.7115,-2.7913,-2.5844,-2.6915,-2.8132,-2.7757,-2.8184,-2.88,-2.9585,-2.9387,-3.0062,-3.2679,-3.3955,-3.4676,-3.4772,-3.5251,-3.5691,-3.5929,-3.6234,-3.656,-3.6938,-3.7199,-3.7556,-3.8046,-3.8023,-3.8325,-3.904,-3.9097,-3.9756,-4.1009,-4.1383,-4.1802,-4.2301,-4.2723,-4.2947,-4.298,-4.337,-4.3965,-4.4443,-4.3746,-4.3695,-4.3942,-4.2921,-4.2965,-4.3751,-4.4463,-4.54,-4.6399,-4.6795,-4.7322,-4.8017,-4.8367,-4.8713,-4.9192,-4.9872,-5.0357,-5.0778,-5.1491,-5.1459,-5.1264,-5.1588,-5.1977,-5.2333,-5.2657,-5.2754,-5.2948,-5.3693,-5.3855,-5.3855,-5.3855,-5.4114,-5.4373,-5.4405,-5.4665,-5.5021,-5.5345,-5.5409,-5.5409,-5.5409,-5.5409,-5.5409,-5.5409,-5.5409,-5.5409,-5.5409,-5.5409,-5.5409,-5.5409,-5.5409,-5.5409,-5.5409,-5.5409,-5.5409,-5.5409,-5.5409,-5.5409,-5.5409,-5.5409,-5.5409,-5.5409,-5.5086,-5.4535,-5.3855,-5.311,-5.2365,-2.7743,-2.7513,-2.7305,-2.7364,-2.7374,-2.7096,0.0,0.0,0.0,-2.5013,-2.6224,-2.7416,-2.6746,-2.6999,-2.7612,-2.8615,-2.7978,-2.7607,-2.8459,-2.9084,-3.0275,-3.264,-3.2595,-3.2957,-3.4235,-3.5207,-3.5812,-3.6055,-3.6274,-3.647,-3.6481,-3.6437,-3.6637,-3.7134,-3.7297,-3.8089,-3.956,-4.0261,-4.1135,-4.2183,-4.2301,-4.2367,-4.2532,-4.2617,-4.2848,-4.3158,-4.2708,-4.2867,-4.3451,-4.2425,-4.2239,-4.271,-4.3421,-4.4432,-4.5427,-4.5556,-4.6044,-4.6666,-4.6828,-4.741,-4.8117,-4.8803,-4.9515,-5.0196,-5.0811,-5.107,-5.1199,-5.1199,-5.1199,-5.1297,-5.1847,-5.2009,-5.23,-5.3499,-5.3434,-5.324,-5.3693,-5.3661,-5.3661,-5.4114,-5.4308,-5.4567,-5.5118,-5.5215,-5.5183,-5.5021,-5.5021,-5.5053,-5.5215,-5.5215,-5.528,-5.5409,-5.5409,-5.5409,-5.5409,-5.5409,-5.5409,-5.5409,-5.5409,-5.5409,-5.5409,-5.5409,-5.5409,-5.5409,-5.5409,-5.5345,-5.5215,-5.4665,-5.4017,-5.3304,-5.256,-5.1847,-2.8542,-2.9497,-2.986,-2.7264,-2.8627,-2.9526,-2.5356,0.0,-2.7374,-2.6439,0.0,-2.7779,-2.8092,0.0,0.0,-2.6149,-2.5729,-2.5854,-2.6532,-2.604,-2.6483,-2.8929,-2.8874,-2.9148,-3.0577,-3.255,-3.3824,-3.398,-3.5844,-3.667,-3.6042,-3.6604,-3.6814,-3.6672,-3.7306,-3.8133,-3.9171,-3.9617,-4.0721,-4.2477,-4.2327,-4.2631,-4.3257,-4.3436,-4.302,-4.2255,-4.2451,-4.2228,-4.1862,-4.195,-4.2337,-4.2906,-4.3448,-4.3779,-4.4039,-4.4691,-4.5341,-4.6021,-4.6633,-4.7378,-4.8123,-4.8803,-4.9515,-5.0131,-5.0196,-5.0681,-5.1199,-5.1199,-5.1199,-5.1199,-5.1264,-5.1297,-5.1329,-5.1491,-5.1944,-5.2171,-5.1653,-5.2981,-5.4114,-5.3563,-5.3952,-5.4438,-5.4503,-5.4503,-5.4308,-5.3661,-5.3563,-5.379,-5.4438,-5.4503,-5.4762,-5.5345,-5.5409,-5.5409,-5.5409,-5.5409,-5.5409,-5.5409,-5.5409,-5.5409,-5.5409,-5.5409,-5.5409,-5.5409,-5.5409,-5.5118,-5.4503,-5.4438,-5.4017,-5.3304,-5.256,-5.1847,-3.0369,-3.1064,-3.1165,-2.9522,-2.974,-2.974,-2.741,-2.6944,-2.6783,-2.602,0.0,0.0,0.0,0.0,0.0,0.0,-2.619,-2.5848,-2.6105,-2.5429,-2.5928,-2.8727,-2.8777,-2.9043,-3.0252,-3.045,-3.0898,-3.1921,-3.2785,-3.3383,-3.3504,-3.4551,-3.525,-3.558,-3.6734,-3.7636,-3.8307,-3.9479,-4.0367,-4.0959,-4.1674,-4.2294,-4.2848,-4.3082,-4.28,-4.2124,-4.1898,-4.1559,-4.1091,-4.1383,-4.1847,-4.243,-4.3304,-4.3746,-4.3938,-4.4103,-4.4854,-4.5826,-4.6115,-4.673,-4.7475,-4.8188,-4.89,-4.9548,-4.9969,-5.0325,-5.0649,-5.107,-5.1199,-5.1199,-5.1199,-5.1199,-5.1297,-5.1685,-5.1685,-5.1653,-5.175,-5.2171,-5.256,-5.2657,-5.2916,-5.311,-5.311,-5.3499,-5.3823,-5.392,-5.3596,-5.3596,-5.4308,-5.4405,-5.4665,-5.5345,-5.5409,-5.5409,-5.5409,-5.5409,-5.5409,-5.5409,-5.5409,-5.5247,-5.4859,-5.5215,-5.5409,-5.5409,-5.5409,-5.5086,-5.4405,-5.3984,-5.3402,-5.2657,-5.2333,-5.1847,-3.2247,-3.2607,-3.2379,-3.1265,-3.0559,-2.9823,-2.8749,-2.747,-2.6454,-2.6307,-2.747,0.0,0.0,0.0,-2.7656,-2.704,0.0,-2.5663,-2.5463,-2.5124,-2.5811,-2.8217,-2.8389,-2.8477,-2.892,-2.8481,-2.8586,-2.9566,-3.0375,-3.0972,-3.1332,-3.2861,-3.4006,-3.4598,-3.5907,-3.6936,-3.7656,-3.8983,-3.9809,-4.0127,-4.1045,-4.1788,-4.2318,-4.2545,-4.2332,-4.1791,-4.1455,-4.1089,-4.0634,-4.0908,-4.1296,-4.1868,-4.2759,-4.3271,-4.3477,-4.3575,-4.4268,-4.5275,-4.5435,-4.6245,-4.7281,-4.7831,-4.8609,-4.9418,-4.9936,-5.0228,-5.0519,-5.1038,-5.1199,-5.1199,-5.1199,-5.1199,-5.1297,-5.1815,-5.1556,-5.1329,-5.1815,-5.1685,-5.162,-5.2106,-5.2203,-5.2268,-5.2462,-5.2786,-5.3142,-5.3466,-5.3078,-5.3078,-5.3984,-5.4114,-5.4373,-5.5053,-5.515,-5.5053,-5.4859,-5.4826,-5.4826,-5.4826,-5.4826,-5.4632,-5.4114,-5.4762,-5.515,-5.515,-5.5312,-5.5086,-5.4405,-5.3887,-5.324,-5.2495,-5.2106,-5.1653,-3.402,-3.4235,-3.3723,-3.1546,-3.0957,-3.0394,-2.8237,-2.7112,-2.6885,-2.8276,-2.8106,-2.7815,-2.8456,-2.8009,-2.691,0.0,-2.479,0.0,0.0,-2.467,-2.5426,-2.6109,-2.6485,-2.6185,-2.4924,-2.659,-2.7501,-2.6995,-2.9683,-3.1006,-3.0209,-3.24,-3.3812,-3.4119,-3.4968,-3.6108,-3.7501,-3.7934,-3.903,-4.0642,-4.0654,-4.1055,-4.1832,-4.203,-4.1715,-4.0975,-4.1133,-4.0855,-4.0358,-4.0488,-4.0821,-4.1266,-4.1684,-4.1983,-4.2163,-4.3032,-4.3542,-4.3881,-4.4561,-4.6212,-4.7993,-4.7993,-4.8933,-5.0066,-5.0098,-5.0584,-5.1167,-5.1167,-5.1199,-5.1199,-5.1199,-5.1199,-5.1199,-5.1199,-5.1199,-5.1199,-5.1199,-5.1718,-5.2171,-5.2203,-5.2203,-5.243,-5.3142,-5.2689,-5.2009,-5.1394,-5.1264,-5.175,-5.3175,-5.3369,-5.3628,-5.4341,-5.4438,-5.4146,-5.3434,-5.3402,-5.3402,-5.3402,-5.3402,-5.3369,-5.3369,-5.4049,-5.4438,-5.4438,-5.5086,-5.5086,-5.4405,-5.4373,-5.4017,-5.324,-5.1879,-5.1199,-3.5558,-3.5918,-3.5486,-3.3671,-3.3262,-3.285,-3.1021,-2.9682,-2.8956,-2.9453,-2.9319,-2.921,-2.9414,-2.8619,-2.7743,0.0,0.0,-2.5657,0.0,-2.4689,-2.4746,-2.5369,-2.5442,-2.5316,-2.4923,-2.4589,-2.4641,-2.5234,-2.6822,-2.7777,-2.7841,-3.0564,-3.236,-3.2942,-3.4709,-3.6241,-3.7416,-3.7864,-3.8723,-4.0007,-3.9885,-4.0392,-4.1418,-4.1557,-4.1336,-4.0769,-4.1066,-4.0692,-3.994,-4.0692,-4.1081,-4.1331,-4.2638,-4.2791,-4.2367,-4.2729,-4.3197,-4.3881,-4.5046,-4.6245,-4.7249,-4.7249,-4.7572,-4.8155,-4.9094,-4.9256,-4.9289,-5.0196,-5.0455,-5.0455,-5.0455,-5.0811,-5.1199,-5.1199,-5.1199,-5.1199,-5.1199,-5.1361,-5.1523,-5.1523,-5.1523,-5.162,-5.1879,-5.1685,-5.1588,-5.1815,-5.1459,-5.1685,-5.3142,-5.2883,-5.3045,-5.4276,-5.3984,-5.3596,-5.3337,-5.3337,-5.311,-5.2592,-5.3045,-5.311,-5.2592,-5.3758,-5.4179,-5.3693,-5.4373,-5.4146,-5.2948,-5.2948,-5.2592,-5.1912,-5.1394,-5.1426,-3.7248,-3.7394,-3.682,-3.562,-3.511,-3.4594,-3.3321,-3.2073,-3.1229,-3.152,-3.1093,-3.0568,-3.0134,-2.8874,-2.7762,0.0,0.0,-2.5305,0.0,-2.4696,-2.4517,-2.467,-2.4833,-2.477,-2.4275,-2.3495,-2.3282,-2.3799,-2.4902,-2.5791,-2.6317,-2.907,-3.1147,-3.2239,-3.4092,-3.5701,-3.711,-3.7462,-3.8227,-3.9479,-3.934,-3.9895,-4.0849,-4.1036,-4.0951,-4.0713,-4.1002,-4.0679,-4.002,-4.0663,-4.0866,-4.0951,-4.2279,-4.2537,-4.2351,-4.2933,-4.3323,-4.3848,-4.4755,-4.5856,-4.6892,-4.6892,-4.7216,-4.7831,-4.8738,-4.8706,-4.8512,-4.9159,-4.971,-5.0034,-4.9775,-5.0455,-5.1199,-5.1199,-5.1199,-5.1199,-5.1199,-5.1199,-5.1199,-5.1199,-5.1199,-5.1199,-5.1199,-5.1394,-5.162,-5.1815,-5.1459,-5.1588,-5.2786,-5.2495,-5.256,-5.3531,-5.3207,-5.2819,-5.2592,-5.256,-5.2365,-5.1847,-5.23,-5.2333,-5.1847,-5.2981,-5.3628,-5.3693,-5.392,-5.379,-5.3337,-5.2851,-5.2365,-5.1944,-5.1685,-5.1912]}]]